Date StartTime U_cm/s V_cm/s W_cm/s Ustd_cm/s Vstd_cm/s Wstd_cm/s Uvar_(cm/s)^2 Vvar_(cm/s)^2 Wvar_(cm/s)^2 KE_(m/s)^2 TurbulentKE_(m/s)^2 HorizWindSpeed_cm/s FrictionSpeec_cm/s DragCoef SpeedOfSound_m/s SonicTemperature_C Pressure_mb 
09/06/2013  00:00:00      -78.211      -31.745      -10.574       19.556       20.963       13.667      382.451      439.451      186.788        0.412        0.050       84.408        9.019        0.011      343.755       20.089      862.375
09/06/2013  00:01:00       13.671        1.645        7.381       40.901       18.755       20.164     1672.922      351.739      406.583        0.134        0.122       13.769       16.698        1.471      343.151       19.061      862.386
09/06/2013  00:02:00       46.389      -19.094       -1.996       33.540       13.567       20.258     1124.930      184.071      410.369        0.212        0.086       50.165        9.105        0.033      342.760       18.396      862.423
09/06/2013  00:03:00       17.842      -27.749        1.475       55.271       21.329       19.183     3054.868      454.919      368.007        0.248        0.194       32.990        9.631        0.085      343.388       19.464      862.463
09/06/2013  00:04:00       41.444      -54.096       -9.549       22.836       31.699       24.591      521.503     1004.832      604.710        0.343        0.107       68.147       15.532        0.052      343.221       19.180      862.482
09/06/2013  00:05:00       49.466      -30.066       -6.565       25.358       18.079       23.016      643.006      326.834      529.741        0.245        0.075       57.886       10.182        0.031      343.262       19.250      862.468
09/06/2013  00:06:00       50.943      -36.195       21.749       41.389       68.650       29.434     1713.045     4712.850      866.384        0.583        0.365       62.492       33.373        0.285      343.149       19.058      862.474
09/06/2013  00:07:00       45.022       -6.017       51.466       55.959      105.799       61.520     3131.423    11193.393     3784.652        1.141        0.905       45.422       70.072        2.380      343.335       19.374      862.493
09/06/2013  00:08:00      144.663      -38.433       27.369       75.390       74.563       53.952     5683.655     5559.644     2910.775        1.865        0.708      149.682       57.282        0.146      343.008       18.816      862.507
09/06/2013  00:09:00       39.460       -7.599       25.476       45.472       74.006       31.784     2067.672     5476.915     1010.223        0.541        0.428       40.185       25.436        0.401      343.136       19.036      862.516
09/06/2013  00:10:00      112.168       68.833       60.712       73.648       69.984       41.157     5424.031     4897.696     1693.879        1.651        0.601      131.604       27.677        0.044      343.142       19.044      862.524
09/06/2013  00:11:00      142.580      109.951       62.723       97.636       64.442       53.831     9532.738     4152.736     2897.792        2.646        0.829      180.051       23.510        0.017      343.029       18.851      862.511
09/06/2013  00:12:00      178.661      125.528       65.072       80.151       52.530       62.537     6424.223     2759.391     3910.843        3.250        0.655      218.351       42.608        0.038      342.974       18.756      862.486
09/06/2013  00:13:00       26.536       55.342       69.708       54.779       54.291       32.492     3000.684     2947.471     1055.760        0.781        0.350       61.375       25.527        0.173      342.723       18.330      862.495
09/06/2013  00:14:00      -13.778      -19.012       10.316       69.080       46.376       31.712     4771.986     2150.744     1005.621        0.429        0.396       23.480       32.821        1.954      342.739       18.361      862.536
09/06/2013  00:15:00     -106.111       14.850      -14.210       34.928       34.644       18.365     1219.938     1200.188      337.257        0.722        0.138      107.145       17.195        0.026      342.945       18.710      862.568
09/06/2013  00:16:00     -158.251      -24.073      -17.124       24.809       32.881       22.381      615.494     1081.135      500.921        1.406        0.110      160.071       12.354        0.006      342.892       18.619      862.599
09/06/2013  00:17:00     -140.136       12.824      -16.630       48.129       36.647       22.866     2316.448     1343.033      522.853        1.213        0.209      140.722       14.189        0.010      342.918       18.663      862.622
09/06/2013  00:18:00     -133.671       37.780      -19.288       42.866       30.697       19.564     1837.505      942.322      382.743        1.141        0.158      138.907       14.105        0.010      342.999       18.801      862.631
09/06/2013  00:19:00      -34.603      110.564       -6.992       42.666       44.066       24.150     1820.402     1941.823      583.228        0.891        0.217      115.852       20.714        0.032      343.012       18.823      862.641
09/06/2013  00:20:00       87.244      114.931        3.472       71.760       66.868       51.606     5149.527     4471.266     2663.184        1.656        0.614      144.293       40.049        0.077      342.967       18.745      862.594
09/06/2013  00:21:00      245.250      137.322       20.001       91.428       67.480       58.460     8359.040     4553.573     3417.560        4.786        0.817      281.079       43.549        0.024      342.986       18.775      862.496
09/06/2013  00:22:00      215.597       99.610       37.306       97.688       62.841       58.812     9542.849     3948.989     3458.885        3.737        0.848      237.495       47.323        0.040      342.994       18.792      862.503
09/06/2013  00:23:00      114.712       72.664       16.733       83.149       73.955       46.244     6913.800     5469.310     2138.470        1.662        0.726      135.790       20.004        0.022      342.961       18.736      862.587
09/06/2013  00:24:00       76.837       52.841        9.416       97.797       67.309       45.552     9564.222     4530.452     2075.014        1.247        0.808       93.253       27.964        0.090      342.919       18.665      862.618
09/06/2013  00:25:00       39.760       15.017       11.855       67.862       54.560       38.092     4605.297     2976.783     1450.997        0.549        0.452       42.502       33.127        0.607      342.902       18.638      862.607
09/06/2013  00:26:00     -125.948      -57.082        8.074       82.944       51.270       30.410     6879.737     2628.583      924.747        1.481        0.522      138.280       30.762        0.049      342.910       18.650      862.624
09/06/2013  00:27:00     -127.204      -79.976       11.480       82.966       54.528       37.870     6883.348     2973.298     1434.171        1.700        0.565      150.256       38.094        0.064      342.919       18.666      862.660
09/06/2013  00:28:00     -162.419      -36.492       -5.062       67.663       44.055       31.867     4578.270     1940.824     1015.532        1.763        0.377      166.468       25.810        0.024      343.024       18.844      862.686
09/06/2013  00:29:00      -90.197      -74.152        7.635       63.776       42.300       30.579     4067.360     1789.276      935.073        1.024        0.340      116.765       29.927        0.066      342.999       18.802      862.706
09/06/2013  00:30:00      -55.292      -81.902        8.141       53.245       42.190       22.412     2835.045     1779.994      502.293        0.747        0.256       98.819       19.904        0.041      343.016       18.830      862.689
09/06/2013  00:31:00      -26.734      -88.383        1.386       23.634       44.027       13.849      558.554     1938.392      191.792        0.561        0.134       92.337       18.033        0.038      343.123       19.012      862.671
09/06/2013  00:32:00       12.427      -38.389       32.482       32.799       42.128       32.500     1075.791     1774.755     1056.263        0.329        0.195       40.350       20.063        0.247      342.818       18.494      862.675
09/06/2013  00:33:00       63.164      -92.404        3.198       76.134       99.249       45.370     5796.387     9850.403     2058.473        1.512        0.885      111.929       56.185        0.252      342.843       18.535      862.691
09/06/2013  00:34:00      102.991     -125.668       14.133       79.381      111.520       53.987     6301.293    12436.701     2914.600        2.412        1.083      162.479       61.047        0.141      342.820       18.494      862.695
09/06/2013  00:35:00       50.574      -39.635       20.002       43.910       70.250       30.637     1928.107     4935.037      938.629        0.616        0.390       64.255       28.165        0.192      342.669       18.242      862.723
09/06/2013  00:36:00        5.765      -37.907       -3.233       30.774       39.828       30.790      947.052     1586.291      948.012        0.248        0.174       38.343       31.247        0.664      342.251       17.532      862.749
09/06/2013  00:37:00        4.270      -45.319      -13.386       31.956       18.075       19.044     1021.202      326.695      362.686        0.198        0.086       45.520       11.581        0.065      342.594       18.111      862.745
09/06/2013  00:38:00      -64.316      -68.295       -4.853       17.349       19.326       14.031      300.978      373.483      196.877        0.485        0.044       93.812        2.460        0.001      342.977       18.765      862.737
09/06/2013  00:39:00      -52.014      -40.375        6.971       30.469       24.693       24.277      928.384      609.747      589.368        0.326        0.106       65.845       15.436        0.055      342.939       18.701      862.774
09/06/2013  00:40:00     -169.545      -31.599        0.171       83.824       57.105       31.311     7026.534     3260.989      980.386        2.050        0.563      172.465       36.076        0.044      342.905       18.640      862.796
09/06/2013  00:41:00      -89.416      -22.256        9.457       73.710       45.452       34.686     5433.124     2065.857     1203.095        0.864        0.435       92.144       32.478        0.124      342.833       18.519      862.791
09/06/2013  00:42:00     -112.161       -8.724       -0.157       53.982       38.077       21.599     2914.086     1449.846      466.497        0.874        0.242      112.500       23.205        0.043      343.038       18.867      862.767
09/06/2013  00:43:00      -55.303       12.759        1.812       32.902       14.315        9.424     1082.519      204.908       88.812        0.230        0.069       56.756       10.559        0.035      343.160       19.079      862.742
09/06/2013  00:44:00        1.996       53.404       -6.048       22.105       21.493        8.375      488.621      461.968       70.139        0.196        0.051       53.441        7.627        0.020      342.979       18.768      862.707
09/06/2013  00:45:00       34.946       36.157        4.396       30.148       25.949       16.556      908.885      673.370      274.109        0.220        0.093       50.285       15.130        0.091      342.824       18.505      862.678
09/06/2013  00:46:00       43.703      -13.094       15.632       30.706       26.425       25.107      942.867      698.260      630.344        0.230        0.114       45.623       15.342        0.113      342.136       17.335      862.683
09/06/2013  00:47:00       62.514       -7.231        0.624       22.961       24.533       22.972      527.201      601.884      527.724        0.281        0.083       62.931       19.601        0.097      342.403       17.789      862.747
09/06/2013  00:48:00       93.297       66.977       36.145       49.681       44.372       31.137     2468.165     1968.876      969.527        0.995        0.270      114.849       15.276        0.018      342.526       17.998      862.779
09/06/2013  00:49:00       39.624       40.219       55.480       53.357       45.345       23.160     2846.953     2056.182      536.376        0.585        0.272       56.459       13.368        0.056      342.361       17.716      862.765
09/06/2013  00:50:00       19.484       27.412       47.380       44.964       39.412       31.251     2021.791     1553.332      976.623        0.396        0.228       33.631       24.846        0.546      342.365       17.724      862.742
09/06/2013  00:51:00      -31.868      -39.310       10.036       24.150       30.091       22.013      583.200      905.454      484.580        0.232        0.099       50.605       11.979        0.056      342.091       17.259      862.748
09/06/2013  00:52:00      -32.518       -7.144       -9.478       17.337       14.489        6.134      300.565      209.945       37.625        0.087        0.027       33.294        3.371        0.010      342.248       17.524      862.798
09/06/2013  00:53:00      -71.111        2.372       -7.880       23.094       14.006        9.733      533.343      196.160       94.740        0.297        0.041       71.150        9.509        0.018      342.606       18.133      862.849
09/06/2013  00:54:00     -109.100      -13.266       -5.851       36.475       17.522       17.727     1330.456      307.005      314.244        0.703        0.098      109.904       16.671        0.023      342.761       18.397      862.844
09/06/2013  00:55:00      -53.318        9.102        9.614       38.370       34.879       21.185     1472.255     1216.534      448.804        0.308        0.157       54.090       18.348        0.115      342.639       18.189      862.825
09/06/2013  00:56:00      -13.096       -8.463       11.695       24.365       32.622       16.115      593.637     1064.205      259.696        0.115        0.096       15.593       12.829        0.677      342.563       18.061      862.843
09/06/2013  00:57:00       -5.297       -6.184        0.812       24.117       10.812       10.960      581.637      116.909      120.116        0.044        0.041        8.142        5.691        0.488      342.537       18.016      862.882
09/06/2013  00:58:00      -14.041       14.918       -2.017       24.325       10.567       12.907      591.704      111.667      166.592        0.065        0.043       20.486       13.330        0.423      342.609       18.138      862.894
09/06/2013  00:59:00      -53.901       42.583      -13.164       29.823       24.530       14.562      889.417      601.745      212.041        0.330        0.085       68.692       16.922        0.061      342.720       18.327      862.902
09/06/2013  01:00:00      -65.973       -3.891      -11.855       10.812       19.923        8.153      116.900      396.920       66.466        0.254        0.029       66.088        6.100        0.009      342.819       18.495      862.922
09/06/2013  01:01:00      -61.660      -26.319       -8.319       19.255       11.160       10.236      370.747      124.535      104.768        0.258        0.030       67.043        4.831        0.005      342.853       18.553      862.938
09/06/2013  01:02:00      -59.967      -29.791       -1.848       34.676       25.395       14.399     1202.452      644.883      207.333        0.327        0.103       66.959        7.819        0.014      342.785       18.438      862.922
09/06/2013  01:03:00      -40.177      -33.976        9.363       63.627       45.381       21.561     4048.406     2059.419      464.897        0.471        0.329       52.617       21.397        0.165      342.496       17.945      862.921
09/06/2013  01:04:00      -74.644      -41.002        4.068       54.271       60.795       38.387     2945.390     3696.017     1473.532        0.769        0.406       85.164       42.545        0.250      342.596       18.115      862.941
09/06/2013  01:05:00     -132.932       25.968       -2.715       56.499       29.482       21.372     3192.118      869.181      456.749        1.143        0.226      135.445       24.484        0.033      342.510       17.970      862.971
09/06/2013  01:06:00     -197.116       82.126      -12.340       71.349       38.241       27.791     5090.662     1462.352      772.319        2.654        0.366      213.540       19.474        0.008      342.418       17.811      862.958
09/06/2013  01:07:00     -121.068       95.688      -16.412       49.150       37.284       28.465     2415.689     1390.073      810.230        1.435        0.231      154.317       24.719        0.026      342.410       17.801      862.936
09/06/2013  01:08:00      -68.371       49.492       -6.085       56.722       48.940       30.828     3217.369     2395.132      950.339        0.686        0.328       84.404       32.487        0.148      342.527       17.998      862.972
09/06/2013  01:09:00      -75.271       39.662      -15.784       33.464       45.048       23.058     1119.836     2029.334      531.665        0.558        0.184       85.081       23.537        0.077      342.519       17.986      862.986
09/06/2013  01:10:00      -76.413      110.067      -12.576       40.853       58.769       27.653     1668.981     3453.822      764.710        1.200        0.294      133.992       28.923        0.047      342.710       18.309      862.944
09/06/2013  01:11:00      -76.986      202.474      -22.104       44.363       57.634       34.743     1968.045     3321.632     1207.087        2.695        0.325      216.616       30.807        0.020      342.822       18.498      862.889
09/06/2013  01:12:00      -28.130      192.011      -17.019       45.309       56.478       30.314     2052.880     3189.750      918.915        2.205        0.308      194.061       26.147        0.018      342.827       18.506      862.886
09/06/2013  01:13:00      -31.629      101.937      -14.844       35.303       33.739       23.622     1246.292     1138.324      558.014        0.728        0.147      106.732       16.717        0.025      342.807       18.476      862.903
09/06/2013  01:14:00      -13.884      113.342      -18.591       31.576       42.434       16.122      997.057     1800.629      259.929        0.822        0.153      114.189       20.968        0.034      342.842       18.534      862.899
09/06/2013  01:15:00      -21.235      122.881      -19.036       59.265       45.594       22.364     3512.291     2078.838      500.166        1.100        0.305      124.702       19.946        0.026      342.824       18.504      862.904
09/06/2013  01:16:00      -78.733       25.902       -8.509       46.866       26.238       19.579     2196.424      688.425      383.351        0.510        0.163       82.884       20.845        0.063      342.674       18.249      862.912
09/06/2013  01:17:00      -89.640       16.760      -11.853       55.615       41.321       24.106     3093.042     1707.454      581.087        0.692        0.269       91.193       28.193        0.096      342.668       18.237      862.910
09/06/2013  01:18:00      -91.673       20.146      -13.053       48.106      103.438       25.891     2314.150    10699.424      670.332        1.133        0.684       93.860       24.195        0.066      342.659       18.223      862.912
09/06/2013  01:19:00      -64.556      -81.504       13.187       73.267       42.875       39.776     5368.075     1838.232     1582.095        0.988        0.439      103.973       43.539        0.175      342.514       17.977      862.953
09/06/2013  01:20:00     -141.004      -94.276        0.553       72.546       49.082       31.654     5262.949     2409.029     1002.000        1.872        0.434      169.617       35.331        0.043      342.448       17.862      862.975
09/06/2013  01:21:00      -86.688      -55.045        1.299       53.755       35.273       29.154     2889.643     1244.214      849.949        0.776        0.249      102.687       30.836        0.090      342.465       17.894      862.973
09/06/2013  01:22:00      -81.855      -17.679        0.900       47.115       46.779       24.135     2219.845     2188.256      582.503        0.600        0.250       83.742       22.528        0.072      342.439       17.849      862.944
09/06/2013  01:23:00      -84.124       97.758      -28.338       46.820       61.797       23.656     2192.096     3818.924      559.596        1.200        0.329      128.971       24.656        0.037      342.434       17.841      862.899
09/06/2013  01:24:00      -25.486       85.420       -8.700       36.253       29.990       18.964     1314.300      899.383      359.639        0.530        0.129       89.141       13.788        0.024      342.410       17.800      862.849
09/06/2013  01:25:00      -51.030       58.303      -17.154       32.790       38.028       16.724     1075.169     1446.147      279.686        0.455        0.140       77.481       20.983        0.073      342.511       17.972      862.832
09/06/2013  01:26:00      -62.144       39.811       -8.270       25.110       45.622       20.714      630.493     2081.382      429.073        0.433        0.157       73.803       20.171        0.075      342.566       18.065      862.834
09/06/2013  01:27:00      -92.869      -47.071        1.734       42.695       25.200       17.806     1822.860      635.054      317.064        0.681        0.139      104.117        8.432        0.007      342.550       18.037      862.839
09/06/2013  01:28:00      -46.197      -37.114       -1.506       65.128       34.275       38.075     4241.634     1174.798     1449.686        0.519        0.343       59.258       34.278        0.335      342.313       17.635      862.839
09/06/2013  01:29:00      -74.441      -52.965        1.018       43.965       48.381       23.951     1932.918     2340.703      573.649        0.660        0.242       91.360       22.136        0.059      342.362       17.719      862.855
09/06/2013  01:30:00     -112.814      -94.536        3.514       61.272       60.198       37.324     3754.250     3623.809     1393.049        1.522        0.439      147.187       37.503        0.065      342.389       17.762      862.857
09/06/2013  01:31:00     -169.503      -41.474      -10.539       40.973       41.616       24.358     1678.755     1731.912      593.306        1.728        0.200      174.503       24.439        0.020      342.419       17.815      862.861
09/06/2013  01:32:00     -170.209      -21.572       -4.404       48.760       37.351       28.079     2377.538     1395.113      788.448        1.701        0.228      171.571       26.881        0.025      342.315       17.638      862.869
09/06/2013  01:33:00     -138.158      -25.864       -9.124       44.420       36.746       22.581     1973.153     1350.240      509.910        1.184        0.192      140.558       22.804        0.026      342.251       17.529      862.879
09/06/2013  01:34:00     -113.732       18.742       -2.435       22.803       27.731       15.404      519.972      768.992      237.291        0.741        0.076      115.266       10.613        0.008      342.251       17.530      862.864
09/06/2013  01:35:00      -92.492       -9.545      -14.174       24.304       22.626       19.266      590.699      511.948      371.175        0.516        0.074       92.984       15.594        0.028      342.318       17.644      862.856
09/06/2013  01:36:00      -76.336       10.945      -12.896       18.378       23.242       16.832      337.747      540.199      283.318        0.364        0.058       77.117        9.638        0.016      342.386       17.760      862.858
09/06/2013  01:37:00        3.543       -6.538        0.816       16.330       19.920        9.580      266.654      396.821       91.775        0.041        0.038        7.436        5.767        0.601      342.357       17.708      862.869
09/06/2013  01:38:00       15.854      -45.254       -4.072       16.166       11.901       14.656      261.333      141.623      214.791        0.147        0.031       47.951        9.264        0.037      342.425       17.826      862.896
09/06/2013  01:39:00      -16.085      -39.747        8.006       47.591       23.145       17.958     2264.932      535.709      322.485        0.251        0.156       42.879       21.895        0.261      342.342       17.684      862.905
09/06/2013  01:40:00      -83.481      -54.234       -4.367       29.692       32.739       13.457      881.625     1071.826      181.101        0.603        0.107       99.551       13.189        0.018      342.341       17.683      862.871
09/06/2013  01:41:00     -120.463      -31.898      -21.577       19.753       25.902       13.332      390.172      670.917      177.729        0.862        0.062      124.614       12.275        0.010      342.335       17.672      862.844
09/06/2013  01:42:00     -109.485      -25.334      -16.437       18.949       22.994       14.008      359.048      528.703      196.213        0.699        0.054      112.378       12.351        0.012      342.348       17.695      862.856
09/06/2013  01:43:00      -75.931      -18.171       -7.137       34.467       29.383       18.612     1187.987      863.355      346.421        0.427        0.120       78.075       15.312        0.038      342.254       17.536      862.868
09/06/2013  01:44:00     -122.798        2.013      -14.723       30.104       23.655       14.591      906.259      559.555      212.887        0.849        0.084      122.814       10.252        0.007      342.321       17.648      862.888
09/06/2013  01:45:00     -135.426       11.192      -17.194       33.827       31.535       19.331     1144.268      994.431      373.701        1.064        0.126      135.888       14.872        0.012      342.249       17.526      862.897
09/06/2013  01:46:00     -120.235       11.773       -8.461       48.682       40.306       26.159     2369.920     1624.608      684.319        0.967        0.234      120.810       17.339        0.021      342.138       17.337      862.834
09/06/2013  01:47:00     -145.785      -33.215       -9.753       34.454       24.056       21.753     1187.078      578.704      473.208        1.234        0.112      149.521       18.397        0.015      342.149       17.355      862.789
09/06/2013  01:48:00     -154.854      -10.341      -18.129       20.636       14.477       12.492      425.851      209.581      156.054        1.260        0.040      155.199        5.551        0.001      342.187       17.421      862.797
09/06/2013  01:49:00      -88.974       21.405      -16.372       22.898       15.835       16.663      524.323      250.744      277.650        0.485        0.053       91.513       14.088        0.024      342.103       17.278      862.830
09/06/2013  01:50:00     -109.919      -14.822      -14.196       22.517       22.828       19.323      507.022      521.097      373.387        0.695        0.070      110.913       10.497        0.009      342.163       17.381      862.851
09/06/2013  01:51:00     -114.358       22.713      -14.649       31.728       26.751       19.381     1006.655      715.594      375.627        0.795        0.105      116.592       13.815        0.014      342.125       17.315      862.877
09/06/2013  01:52:00     -129.469      -19.793      -17.328       34.426       29.843       19.529     1185.128      890.592      381.372        0.996        0.123      130.974       16.638        0.016      342.154       17.365      862.890
09/06/2013  01:53:00     -112.272      -17.705       -7.239       44.522       35.420       21.767     1982.176     1254.594      473.783        0.834        0.186      113.659       20.645        0.033      342.169       17.390      862.883
09/06/2013  01:54:00      -85.490       47.277      -13.674       36.889       55.179       20.848     1360.832     3044.710      434.631        0.728        0.242       97.692       27.435        0.079      342.182       17.414      862.864
09/06/2013  01:55:00      -99.377       22.480      -10.406       26.827       28.102       16.564      719.707      789.696      274.364        0.614        0.089      101.888       14.736        0.021      342.144       17.348      862.873
09/06/2013  01:56:00     -119.559      -30.337      -11.711       23.433       27.926       14.936      549.122      779.861      223.090        0.845        0.078      123.348        9.311        0.006      342.118       17.303      862.904
09/06/2013  01:57:00     -133.640       69.052      -33.823       80.348       94.567       46.509     6455.744     8942.934     2163.089        2.066        0.878      150.425       50.718        0.114      342.111       17.291      862.913
09/06/2013  01:58:00      -56.877       66.596        5.516       55.522       51.331       35.726     3082.717     2634.846     1276.364        0.735        0.350       87.579       34.007        0.151      342.001       17.106      862.889
09/06/2013  01:59:00      -41.108      133.159       -6.058       92.705       82.707       45.504     8594.289     6840.390     2070.613        1.848        0.875      139.360       51.654        0.137      342.084       17.244      862.870
09/06/2013  02:00:00      -40.009      138.331      -12.556       31.654       64.451       32.273     1001.969     4153.936     1041.567        1.354        0.310      144.001       31.743        0.049      342.026       17.146      862.870
09/06/2013  02:01:00      -56.550      123.542      -28.776       44.316       44.467       23.046     1963.865     1977.281      531.115        1.188        0.224      135.870       19.539        0.021      342.045       17.179      862.864
09/06/2013  02:02:00      -65.105       55.121        0.774       50.260       41.258       24.893     2526.082     1702.185      619.672        0.606        0.242       85.305       23.400        0.075      341.982       17.073      862.867
09/06/2013  02:03:00     -106.032       58.717      -21.524       20.746       36.073       18.459      430.402     1301.238      340.722        0.861        0.104      121.204       19.594        0.026      342.018       17.134      862.903
09/06/2013  02:04:00      -80.456       15.674       -3.376       39.421       33.057       30.289     1553.986     1092.752      917.420        0.515        0.178       81.969       25.680        0.098      341.979       17.067      862.964
09/06/2013  02:05:00      -41.132       86.505      -11.600       44.078       74.280       32.383     1942.848     5517.541     1048.641        0.891        0.425       95.786       14.624        0.023      341.973       17.058      862.982
09/06/2013  02:06:00     -117.609      105.595      -15.872       64.347       55.319       32.249     4140.509     3060.145     1039.999        1.674        0.412      158.058       20.357        0.017      341.944       17.007      862.934
09/06/2013  02:07:00      -78.214       79.977      -12.333       41.257       41.424       27.556     1702.110     1715.979      759.357        0.842        0.209      111.864       25.322        0.051      341.905       16.943      862.911
09/06/2013  02:08:00      -36.889       32.128       -3.403       17.419       25.112       11.031      303.406      630.612      121.692        0.173        0.053       48.918       11.130        0.052      341.896       16.927      862.956
09/06/2013  02:09:00      -28.186       80.054      -15.610       33.227       55.685       18.703     1104.001     3100.776      349.784        0.600        0.228       84.871       26.069        0.094      341.946       17.013      863.010
09/06/2013  02:10:00      -33.934       69.575      -15.400       36.760       49.258       22.691     1351.316     2426.334      514.867        0.526        0.215       77.409       20.929        0.073      341.942       17.005      863.033
09/06/2013  02:11:00     -143.923       55.529      -23.361       61.395       78.682       34.126     3769.319     6190.857     1164.561        1.773        0.556      154.263       33.608        0.047      341.857       16.859      863.051
09/06/2013  02:12:00      -88.925      109.737      -32.524       34.480       42.167       37.193     1188.874     1778.073     1383.331        1.268        0.218      141.244       29.168        0.043      341.799       16.763      863.046
09/06/2013  02:13:00      -49.493       90.549      -14.733       22.112       34.109       21.963      488.935     1163.391      482.386        0.650        0.107      103.192       11.718        0.013      341.856       16.859      863.016
09/06/2013  02:14:00      -82.044       47.209      -15.527       35.495       37.784       21.892     1259.915     1427.664      479.269        0.618        0.158       94.657       20.301        0.046      341.820       16.798      862.990
09/06/2013  02:15:00      -91.620       25.467      -15.298       33.822       24.630       15.565     1143.931      606.622      242.260        0.563        0.100       95.093        9.998        0.011      341.806       16.774      862.982
09/06/2013  02:16:00     -105.181        3.932      -16.753       43.726       39.983       17.040     1911.976     1598.650      290.353        0.758        0.190      105.255       16.020        0.023      341.718       16.625      863.005
09/06/2013  02:17:00     -108.419       22.083      -17.719       28.406       20.841       19.249      806.888      434.342      370.506        0.708        0.081      110.645       16.888        0.023      341.753       16.686      863.007
09/06/2013  02:18:00      -67.822       88.859      -20.682       41.655       39.258       23.039     1735.140     1541.211      530.784        0.836        0.190      111.784       20.051        0.032      341.781       16.734      862.983
09/06/2013  02:19:00      -94.366      105.577      -18.189       67.407       57.732       39.897     4543.749     3333.019     1591.800        1.492        0.473      141.604       37.061        0.069      341.778       16.726      862.948
09/06/2013  02:20:00      -72.043       89.385      -13.423       35.434       51.522       28.358     1255.588     2654.524      804.161        0.904        0.236      114.804       26.088        0.052      341.755       16.687      862.861
09/06/2013  02:21:00      -18.283       71.015       -5.053       52.309       67.931       34.457     2736.250     4614.597     1187.286        0.697        0.427       73.331       32.451        0.196      341.700       16.595      862.837
09/06/2013  02:22:00     -107.818      102.800      -15.910       70.311       60.549       36.011     4943.683     3666.146     1296.807        1.617        0.495      148.972       38.078        0.065      341.739       16.660      862.908
09/06/2013  02:23:00      -52.543      102.153      -12.983       93.602       50.344       37.056     8761.260     2534.511     1373.130        1.301        0.633      114.873       50.504        0.193      341.706       16.603      862.976
09/06/2013  02:24:00       -4.994       62.066       -6.409       53.325       49.016       34.340     2843.516     2402.536     1179.241        0.517        0.321       62.267       11.393        0.033      341.740       16.663      862.950
09/06/2013  02:25:00      -12.171       32.604      -20.717       28.834       35.489       18.504      831.422     1259.475      342.386        0.204        0.122       34.802       14.704        0.179      341.792       16.752      862.917
09/06/2013  02:26:00       -8.963       -5.438       -0.442       16.899       14.066       13.348      285.564      197.844      178.170        0.039        0.033       10.484       10.833        1.068      341.693       16.582      862.944
09/06/2013  02:27:00        1.528      -18.629        0.544       14.803       11.318        8.754      219.133      128.102       76.626        0.039        0.021       18.691        5.535        0.088      341.727       16.642      862.998
09/06/2013  02:28:00      -64.443      -54.743        3.142       55.564       36.870       16.899     3087.346     1359.379      285.565        0.595        0.237       84.556       14.178        0.028      341.798       16.760      863.038
09/06/2013  02:29:00     -145.583      -91.434      -10.767       42.282       36.164       27.676     1787.728     1307.871      765.941        1.677        0.193      171.914       19.045        0.012      341.671       16.546      863.026
09/06/2013  02:30:00     -133.318      -39.756       -8.560       43.066       56.665       23.161     1854.718     3210.880      536.423        1.251        0.280      139.119       23.232        0.028      341.563       16.362      862.959
09/06/2013  02:31:00     -157.572      -51.634      -10.687       34.788       38.202       21.658     1210.186     1459.417      469.058        1.537        0.157      165.816       16.373        0.010      341.532       16.307      862.954
09/06/2013  02:32:00     -178.340      -68.035       -4.406       48.434       61.404       31.728     2345.826     3770.442     1006.647        2.179        0.356      190.877       25.467        0.018      341.507       16.263      862.994
09/06/2013  02:33:00     -197.538      -73.145      -14.999       60.269       54.100       31.892     3632.299     2926.787     1017.127        2.608        0.379      210.645       31.338        0.022      341.512       16.274      863.008
09/06/2013  02:34:00     -197.165      -58.307      -16.378       58.987       56.127       33.631     3479.434     3150.207     1131.054        2.515        0.388      205.606       29.256        0.020      341.558       16.350      863.031
09/06/2013  02:35:00     -231.404      -83.462      -12.310       74.797       63.086       40.166     5594.542     3979.789     1613.278        3.592        0.559      245.995       38.569        0.025      341.544       16.325      863.042
09/06/2013  02:36:00     -217.270      -91.509       -2.044       82.295       49.297       35.428     6772.437     2430.233     1255.125        3.302        0.523      235.754       38.658        0.027      341.566       16.364      863.029
09/06/2013  02:37:00     -155.793      -29.525       -9.586       47.561       52.273       28.578     2262.065     2732.512      816.726        1.552        0.291      158.566       16.240        0.010      341.499       16.251      863.017
09/06/2013  02:38:00     -159.440      -10.325      -22.994       35.406       42.818       20.347     1253.577     1833.415      413.980        1.478        0.175      159.774       18.162        0.013      341.549       16.338      863.026
09/06/2013  02:39:00     -119.346       29.962      -18.192       41.791       67.532       31.423     1746.515     4560.599      987.390        1.138        0.365      123.049       32.949        0.072      341.615       16.449      863.033
09/06/2013  02:40:00      -96.727       87.533      -11.429       45.949       45.956       36.089     2111.301     2111.999     1302.441        1.134        0.276      130.454       35.233        0.073      341.571       16.376      863.020
09/06/2013  02:41:00     -130.911      135.679      -31.665       37.753       43.609       28.711     1425.253     1901.775      824.335        2.035        0.208      188.538       23.175        0.015      341.706       16.603      863.013
09/06/2013  02:42:00     -126.532      128.573      -34.037       32.862       54.624       25.591     1079.936     2983.799      654.877        1.921        0.236      180.392       27.738        0.024      341.721       16.628      863.008
09/06/2013  02:43:00     -130.742       80.809      -21.581       44.311       36.533       30.854     1963.455     1334.678      951.989        1.417        0.213      153.700       22.738        0.022      341.679       16.558      863.015
09/06/2013  02:44:00     -142.100      111.800      -26.317       40.112       55.477       33.827     1608.996     3077.647     1144.242        1.961        0.292      180.808       30.686        0.029      341.654       16.515      863.028
09/06/2013  02:45:00     -117.363      110.758      -30.310       33.360       51.464       26.639     1112.869     2648.588      709.657        1.571        0.224      161.374       22.113        0.019      341.633       16.480      863.064
09/06/2013  02:46:00     -112.318       83.348      -23.406       30.632       35.862       23.261      938.292     1286.106      541.086        1.144        0.138      139.865       17.003        0.015      341.617       16.454      863.053
09/06/2013  02:47:00      -90.838      112.291      -26.622       33.012       40.673       23.378     1089.788     1654.311      546.519        1.243        0.165      144.433       13.053        0.008      341.600       16.424      863.002
09/06/2013  02:48:00     -119.136      111.272      -22.845       56.049       33.665       28.031     3141.459     1133.333      785.764        1.608        0.253      163.018       30.775        0.036      341.622       16.463      862.979
09/06/2013  02:49:00     -140.813      120.400      -27.399       44.730       48.870       28.214     2000.742     2388.316      796.026        2.013        0.259      185.269       26.440        0.020      341.569       16.370      862.994
09/06/2013  02:50:00     -147.284       41.103      -20.102       49.753       36.205       26.259     2475.351     1310.790      689.528        1.413        0.224      152.912       24.024        0.025      341.632       16.478      863.030
09/06/2013  02:51:00     -121.489       49.214      -13.523       49.983       33.642       20.604     2498.283     1131.775      424.541        1.071        0.203      131.078       22.024        0.028      341.570       16.374      863.032
09/06/2013  02:52:00     -136.913      -23.802      -13.942       31.380       40.370       21.589      984.697     1629.752      466.080        1.129        0.154      138.966       16.854        0.015      341.461       16.191      862.991
09/06/2013  02:53:00     -119.192      -13.653       -7.837       37.806       35.097       25.900     1429.306     1231.820      670.805        0.889        0.167      119.971       24.297        0.041      341.300       15.918      862.968
09/06/2013  02:54:00     -111.411      -30.160      -12.337       28.298       45.999       18.179      800.792     2115.949      330.486        0.836        0.162      115.421       11.305        0.010      341.368       16.032      862.977
09/06/2013  02:55:00     -101.933        7.028       -8.814       27.291       36.257       24.811      744.817     1314.578      615.597        0.660        0.134      102.175       18.157        0.032      341.309       15.932      862.974
09/06/2013  02:56:00      -55.663       45.523       -9.994       34.602       41.781       25.519     1197.333     1745.633      651.232        0.443        0.180       71.907       26.772        0.139      341.274       15.873      862.963
09/06/2013  02:57:00      -39.791       47.805       -4.050       33.083       20.253       16.341     1094.488      410.199      267.041        0.283        0.089       62.199       13.081        0.044      341.329       15.967      862.959
09/06/2013  02:58:00      -61.487       31.632       -6.499       27.983       22.929       16.022      783.076      525.755      256.693        0.319        0.078       69.147       15.390        0.050      341.280       15.883      862.973
09/06/2013  02:59:00      -86.173       24.545      -13.963       25.423       19.983       15.186      646.310      399.311      230.613        0.475        0.064       89.600       11.712        0.017      341.216       15.774      863.014
09/06/2013  03:00:00     -102.588       16.706       -9.433       29.941       18.152       13.085      896.461      329.480      171.224        0.614        0.070      103.940       11.230        0.012      341.163       15.686      863.039
09/06/2013  03:01:00      -73.435       -8.740      -13.841       36.693       21.819       14.186     1346.350      476.070      201.254        0.384        0.101       73.953       14.127        0.036      341.152       15.667      863.046
09/06/2013  03:02:00      -72.686       15.596      -10.823       20.577       19.398       13.645      423.404      376.276      186.183        0.331        0.049       74.340        8.136        0.012      341.158       15.678      863.029
09/06/2013  03:03:00      -61.594       35.743      -11.989       21.746       20.449       13.736      472.904      418.153      188.668        0.315        0.054       71.214       12.846        0.033      341.241       15.818      863.020
09/06/2013  03:04:00      -81.786       51.934      -16.418       22.897       29.029       15.543      524.287      842.670      241.580        0.563        0.080       96.882       15.525        0.026      341.371       16.036      863.005
09/06/2013  03:05:00      -56.505       10.392      -11.488       17.044       21.029       14.029      290.506      442.201      196.818        0.218        0.046       57.453        9.047        0.025      341.295       15.909      863.014
09/06/2013  03:06:00      -64.865       -1.460      -15.558       14.393       18.498       13.343      207.147      342.191      178.047        0.259        0.036       64.882       10.526        0.026      341.207       15.761      863.032
09/06/2013  03:07:00      -83.331      -12.151      -12.387       30.252       22.725       11.543      915.187      516.424      133.230        0.440        0.078       84.212       10.315        0.015      341.128       15.627      863.040
09/06/2013  03:08:00     -131.970      -18.872      -11.868       42.796       42.693       23.054     1831.521     1822.683      531.499        1.105        0.209      133.313       19.035        0.020      341.022       15.447      863.074
09/06/2013  03:09:00     -136.918       17.213      -10.983       37.957       29.944       22.114     1440.715      896.651      489.018        1.099        0.141      137.996       19.406        0.020      340.854       15.161      863.113
09/06/2013  03:10:00     -119.179       31.716       -6.366       23.265       21.638       15.546      541.241      468.187      241.676        0.825        0.063      123.327       10.845        0.008      340.929       15.290      863.122
09/06/2013  03:11:00      -72.512       10.285       -6.206       36.191       23.519       16.670     1309.800      553.135      277.877        0.377        0.107       73.238       16.410        0.050      340.924       15.281      863.120
09/06/2013  03:12:00      -50.568       76.394      -10.832       35.578       32.885       19.655     1265.775     1081.423      386.333        0.562        0.137       91.614       21.576        0.055      341.157       15.674      863.096
09/06/2013  03:13:00      -12.938       67.586       -5.045       34.218       26.996       18.719     1170.838      728.775      350.391        0.350        0.113       68.813       17.791        0.067      341.088       15.560      863.069
09/06/2013  03:14:00       14.473      122.626      -18.193       33.861       43.637       18.098     1146.582     1904.178      327.548        0.948        0.169      123.477       13.304        0.012      341.298       15.915      863.073
09/06/2013  03:15:00        4.856       54.156       -5.627       24.038       28.648       19.428      577.829      820.719      377.460        0.238        0.089       54.373       16.914        0.097      341.220       15.783      863.100
09/06/2013  03:16:00      -43.624      -24.529       -8.035       30.540       24.364       18.690      932.701      593.604      349.321        0.222        0.094       50.048       21.060        0.177      341.221       15.784      863.139
09/06/2013  03:17:00      -74.192      -42.542       -5.004       35.758       17.763       13.612     1278.600      315.540      185.274        0.456        0.089       85.524        9.277        0.012      341.183       15.717      863.165
09/06/2013  03:18:00      -63.226      -44.094       -8.531       26.726       23.659       16.636      714.289      559.745      276.743        0.378        0.078       77.083        8.423        0.012      341.142       15.649      863.167
09/06/2013  03:19:00      -75.627      -31.105       -6.417       14.839       14.849        9.871      220.190      220.507       97.442        0.363        0.027       81.773        5.570        0.005      341.168       15.694      863.149
09/06/2013  03:20:00     -112.523      -10.391       -9.083       32.023       27.184       14.273     1025.443      738.979      203.710        0.741        0.098      113.002       13.741        0.015      341.040       15.479      863.143
09/06/2013  03:21:00     -105.412      -21.904      -17.257       28.127       33.325       17.568      791.138     1110.565      308.647        0.705        0.111      107.664        6.411        0.004      340.934       15.298      863.142
09/06/2013  03:22:00     -103.555       23.222      -10.754       43.248       53.760       25.341     1870.432     2890.085      642.188        0.839        0.270      106.127       28.796        0.074      341.178       15.711      863.152
09/06/2013  03:23:00      -67.775      -20.036       -8.274       18.879       24.325       16.043      356.399      591.685      257.387        0.313        0.060       70.674       10.133        0.021      341.176       15.707      863.168
09/06/2013  03:24:00      -66.112       38.954       -8.484       35.472       41.228       27.079     1258.291     1699.771      733.257        0.483        0.185       76.735       25.623        0.112      341.163       15.684      863.184
09/06/2013  03:25:00      -87.817       81.642      -20.582       26.706       42.373       17.730      713.202     1795.473      314.349        0.881        0.141      119.905       20.609        0.030      341.367       16.031      863.186
09/06/2013  03:26:00      -70.699       95.429      -17.863       34.969       23.268       20.333     1222.817      541.382      413.427        0.830        0.109      118.765       19.964        0.028      341.380       16.052      863.176
09/06/2013  03:27:00      -28.399       72.866       -7.648       17.561       23.831       13.891      308.390      567.915      192.966        0.362        0.053       78.205       10.330        0.017      341.411       16.105      863.186
09/06/2013  03:28:00      -40.816       42.854      -11.785       17.534       33.835       10.145      307.424     1144.837      102.923        0.260        0.078       59.181       12.300        0.043      341.444       16.160      863.209
09/06/2013  03:29:00      -87.818      -17.866      -15.161       13.298       14.002        8.504      176.833      196.060       72.324        0.435        0.022       89.617        4.629        0.003      341.219       15.780      863.221
09/06/2013  03:30:00      -87.741      -16.779      -11.165       21.174       17.139       11.540      448.351      293.728      133.168        0.449        0.044       89.331        8.006        0.008      341.143       15.651      863.207
09/06/2013  03:31:00      -76.804      -13.016       -4.459       19.685       25.554       13.418      387.490      653.018      180.036        0.365        0.061       77.899        9.087        0.014      341.066       15.522      863.199
09/06/2013  03:32:00      -83.508       -1.488       -8.395       19.951       20.418       14.096      398.057      416.910      198.692        0.403        0.051       83.522       12.855        0.024      341.126       15.623      863.211
09/06/2013  03:33:00      -86.125       17.412       -8.683       25.226       16.421       13.080      636.364      269.640      171.095        0.444        0.054       87.867       10.404        0.014      341.164       15.686      863.225
09/06/2013  03:34:00      -54.304       33.526       -8.168       19.570       23.943       13.039      382.993      573.283      170.009        0.263        0.056       63.819       11.379        0.032      341.187       15.726      863.223
09/06/2013  03:35:00      -44.664       50.417      -12.548       18.959       18.330       11.596      359.434      335.982      134.468        0.276        0.041       67.355        6.847        0.010      341.294       15.907      863.211
09/06/2013  03:36:00      -50.850       25.062      -14.003       12.922       32.321        9.426      166.973     1044.644       88.843        0.235        0.065       56.690        8.730        0.024      341.271       15.867      863.202
09/06/2013  03:37:00      -32.040      -18.795       -6.428       18.945       15.133       10.567      358.894      228.996      111.660        0.106        0.035       37.146       11.250        0.092      341.259       15.849      863.186
09/06/2013  03:38:00      -44.113       -1.524       -6.664       16.762       11.245        7.627      280.953      126.445       58.166        0.123        0.023       44.139        5.532        0.016      341.147       15.660      863.172
09/06/2013  03:39:00      -72.294      -21.150       -4.018       22.920       15.844       12.448      525.340      251.020      154.942        0.331        0.047       75.324        7.027        0.009      341.128       15.626      863.186
09/06/2013  03:40:00     -120.639      -25.783       -8.831       24.328       16.163       13.427      591.838      261.248      180.284        0.816        0.052      123.363       12.641        0.011      340.948       15.320      863.210
09/06/2013  03:41:00      -68.977       -4.863       -4.636       34.160       29.703       16.955     1166.916      882.294      287.463        0.357        0.117       69.148       13.234        0.037      340.787       15.049      863.209
09/06/2013  03:42:00      -60.211       -1.997       -0.378       25.514       24.140       17.012      650.971      582.722      289.410        0.258        0.076       60.244       15.816        0.069      340.766       15.012      863.189
09/06/2013  03:43:00      -43.568       -3.457       -2.307       26.799       15.744       11.374      718.199      247.887      129.376        0.151        0.055       43.705       10.006        0.052      340.788       15.050      863.179
09/06/2013  03:44:00      -68.640       -2.414      -10.910       31.981       23.420       11.964     1022.811      548.477      143.139        0.328        0.086       68.682        8.110        0.014      340.875       15.198      863.185
09/06/2013  03:45:00      -62.589      -19.078        1.382       30.214       34.332       19.090      912.915     1178.685      364.418        0.337        0.123       65.432       16.888        0.067      340.762       15.006      863.204
09/06/2013  03:46:00      -67.863       -7.935       -4.487       45.738       48.152       21.586     2091.959     2318.643      465.945        0.478        0.244       68.325       18.224        0.071      340.717       14.931      863.219
09/06/2013  03:47:00     -182.181        0.497      -19.316       32.171       39.548       31.996     1034.990     1564.011     1023.775        1.859        0.181      182.181       23.067        0.016      340.715       14.928      863.220
09/06/2013  03:48:00      -87.830        1.874       -6.809       50.798       30.204       22.886     2580.387      912.270      523.787        0.589        0.201       87.849       20.396        0.054      340.652       14.821      863.196
09/06/2013  03:49:00      -78.930       37.717        2.323       40.267       29.059       27.152     1621.432      844.399      737.237        0.543        0.160       87.479       15.709        0.032      340.614       14.756      863.162
09/06/2013  03:50:00      -55.584       69.436      -15.419       35.057       29.984       16.308     1228.983      899.031      265.938        0.527        0.120       88.944       10.392        0.014      340.786       15.048      863.148
09/06/2013  03:51:00      -61.047       77.717      -14.114       33.188       47.455       20.406     1101.451     2251.984      416.402        0.687        0.188       98.826       16.448        0.028      340.906       15.251      863.163
09/06/2013  03:52:00      -47.282       17.352       -8.839       21.591       24.549       12.184      466.191      602.645      148.448        0.192        0.061       50.366       11.583        0.053      340.816       15.098      863.193
09/06/2013  03:53:00      -46.516      -10.909       -5.280       13.230       22.039       13.213      175.045      485.720      174.572        0.157        0.042       47.778        7.447        0.024      340.875       15.196      863.223
09/06/2013  03:54:00      -79.756      -32.426        0.445       23.077       19.350       13.806      532.542      374.441      190.601        0.425        0.055       86.096        6.362        0.005      340.810       15.088      863.234
09/06/2013  03:55:00      -93.259       -6.827       -6.706       22.000       22.084       14.273      483.978      487.691      203.707        0.498        0.059       93.509       11.697        0.016      340.702       14.906      863.251
09/06/2013  03:56:00      -77.378       14.489       -5.789       35.700       22.620       13.533     1274.518      511.653      183.133        0.410        0.098       78.722       13.646        0.030      340.661       14.835      863.251
09/06/2013  03:57:00      -62.578       29.079       -1.040       32.067       22.359       19.513     1028.315      499.935      380.754        0.334        0.095       69.004       12.057        0.031      340.562       14.668      863.270
09/06/2013  03:58:00     -130.856       26.551      -15.567       28.356       25.279       17.957      804.037      639.036      322.454        0.992        0.088      133.523        6.076        0.002      340.771       15.022      863.293
09/06/2013  03:59:00      -62.589       28.142      -15.636       26.034       30.610       17.242      677.784      936.983      297.300        0.343        0.096       68.625        7.291        0.011      340.763       15.007      863.318
09/06/2013  04:00:00      -51.864       19.281      -10.699       26.670       31.752       15.871      711.308     1008.207      251.876        0.257        0.099       55.332       10.184        0.034      340.801       15.072      863.321
09/06/2013  04:01:00      -27.586       56.402       -4.182       17.950       18.392       13.488      322.190      338.268      181.914        0.240        0.042       62.787        7.802        0.015      340.884       15.215      863.309
09/06/2013  04:02:00      -18.943       74.236       -8.173       16.870       22.282       15.272      284.597      496.489      233.242        0.348        0.051       76.615       15.616        0.042      340.932       15.294      863.289
09/06/2013  04:03:00      -60.243       12.987       -5.742       25.212       32.389       12.105      635.636     1049.074      146.537        0.283        0.092       61.627        7.016        0.013      340.917       15.271      863.296
09/06/2013  04:04:00     -117.331      -35.953      -11.450       19.608       16.432       10.546      384.480      270.026      111.226        0.798        0.038      122.716        6.954        0.003      340.749       14.984      863.318
09/06/2013  04:05:00     -136.094       -5.481      -14.385       26.926       46.041       13.339      724.993     2119.741      177.925        1.089        0.151      136.204        9.487        0.005      340.633       14.788      863.337
09/06/2013  04:06:00      -87.529       63.571      -14.178       34.608       38.489       24.154     1197.748     1481.392      583.398        0.758        0.163      108.179       21.233        0.039      340.854       15.162      863.343
09/06/2013  04:07:00      -77.860       82.763      -15.100       51.927       46.566       31.927     2696.394     2168.434     1019.339        0.951        0.294      113.631       34.921        0.094      340.923       15.278      863.327
09/06/2013  04:08:00      -72.566       58.132      -18.256       29.872       29.686       20.692      892.360      881.243      428.179        0.559        0.110       92.979       18.616        0.040      340.913       15.261      863.317
09/06/2013  04:09:00      -78.256       67.135      -16.247       28.114       24.955       19.645      790.413      622.737      385.916        0.635        0.090      103.107       17.590        0.029      340.880       15.206      863.318
09/06/2013  04:10:00      -81.748        2.979      -14.067       20.793       20.553       12.899      432.342      422.411      166.372        0.396        0.051       81.802        9.243        0.013      340.853       15.162      863.336
09/06/2013  04:11:00      -87.245        5.953      -16.508       30.723       23.599       16.271      943.923      556.907      264.740        0.484        0.088       87.448       13.484        0.024      340.798       15.068      863.347
09/06/2013  04:12:00     -121.986       33.476      -20.376       28.764       32.223       20.587      827.376     1038.340      423.833        0.935        0.114      126.496       16.779        0.018      340.890       15.221      863.354
09/06/2013  04:13:00     -127.173       -9.516      -14.862       40.115       38.209       24.001     1609.203     1459.908      576.051        1.006        0.182      127.528       23.273        0.033      340.793       15.060      863.348
09/06/2013  04:14:00     -122.644       -7.851      -12.037       34.976       36.423       20.257     1223.300     1326.668      410.342        0.910        0.148      122.895       17.466        0.020      340.658       14.830      863.332
09/06/2013  04:15:00     -110.424       34.817      -17.716       42.156       64.762       28.932     1777.111     4194.084      837.087        1.026        0.340      115.783       27.816        0.058      340.723       14.940      863.331
09/06/2013  04:16:00     -121.426       95.207      -24.763       78.927       74.358       40.494     6229.416     5529.095     1639.768        1.891        0.670      154.300       30.978        0.040      340.779       15.034      863.339
09/06/2013  04:17:00     -175.064      178.892      -41.943       67.034       72.817       45.363     4493.570     5302.371     2057.842        3.813        0.593      250.299       40.839        0.027      340.827       15.113      863.342
09/06/2013  04:18:00     -124.721      152.232      -41.401       53.543       60.466       30.746     2866.866     3656.095      945.323        2.395        0.373      196.799       35.118        0.032      340.896       15.232      863.355
09/06/2013  04:19:00     -102.912      128.520      -28.990       57.881       76.518       32.801     3350.266     5854.947     1075.888        1.911        0.514      164.646       35.909        0.048      340.885       15.213      863.375
09/06/2013  04:20:00      -85.412      158.964      -21.658       54.384       60.315       35.364     2957.611     3637.946     1250.601        2.044        0.392      180.457       32.143        0.032      340.933       15.293      863.379
09/06/2013  04:21:00     -137.844      106.356      -28.998       55.365       52.503       32.739     3065.297     2756.529     1071.821        1.902        0.345      174.105       30.341        0.030      340.972       15.360      863.381
09/06/2013  04:22:00     -127.492      127.613      -31.261       49.024       46.807       29.053     2403.326     2190.873      844.099        1.948        0.272      180.386       19.642        0.012      341.011       15.426      863.382
09/06/2013  04:23:00     -155.943      128.453      -27.584       57.103       66.340       43.085     3260.741     4401.044     1856.275        2.555        0.476      202.035       43.236        0.046      341.015       15.434      863.377
09/06/2013  04:24:00     -161.449      115.086      -28.812       59.662       63.977       37.835     3559.603     4093.045     1431.510        2.461        0.454      198.269       38.357        0.037      340.966       15.348      863.381
09/06/2013  04:25:00     -165.728       79.887      -21.700       72.525       62.951       38.950     5259.832     3962.781     1517.123        2.253        0.537      183.977       25.941        0.020      340.932       15.291      863.400
09/06/2013  04:26:00      -92.753      120.914      -14.026       68.651       84.205       42.105     4712.906     7090.525     1772.821        1.850        0.679      152.392       44.596        0.086      340.841       15.138      863.413
09/06/2013  04:27:00     -149.424       62.964      -17.630       67.575       57.938       32.814     4566.402     3356.780     1076.789        1.780        0.450      162.149       25.008        0.024      340.859       15.170      863.413
09/06/2013  04:28:00      -56.950       81.355       -9.876       45.886       54.933       32.036     2105.524     3017.659     1026.282        0.805        0.307       99.307       27.915        0.079      340.838       15.134      863.426
09/06/2013  04:29:00     -112.302      147.597      -19.627       66.105       78.811       34.992     4369.878     6211.099     1224.465        2.329        0.590      185.463       29.642        0.026      340.877       15.200      863.428
09/06/2013  04:30:00     -125.264      130.591      -25.642       71.607       71.736       48.182     5127.498     5146.119     2321.495        2.300        0.630      180.956       40.261        0.050      340.855       15.160      863.417
09/06/2013  04:31:00     -170.780      178.474      -41.057       97.273       93.434       51.769     9461.956     8729.876     2679.988        4.178        1.044      247.020       58.352        0.056      340.834       15.126      863.423
09/06/2013  04:32:00     -192.092      167.789      -36.305       84.241       86.308       57.326     7096.561     7449.032     3286.322        4.210        0.892      255.054       59.995        0.055      340.862       15.172      863.443
09/06/2013  04:33:00     -190.246      155.791      -37.999       96.306       84.893       55.512     9274.767     7206.830     3081.623        4.073        0.978      245.895       59.476        0.059      340.768       15.014      863.459
09/06/2013  04:34:00     -164.549      178.933      -32.300       68.683      102.858       48.721     4717.396    10579.685     2373.692        3.890        0.884      243.091       40.192        0.027      340.756       14.993      863.470
09/06/2013  04:35:00     -172.600      206.913      -21.743       82.296       83.312       63.639     6772.682     6940.886     4049.974        4.542        0.888      269.451       50.686        0.035      340.749       14.982      863.482
09/06/2013  04:36:00     -151.681      192.553      -39.301       84.441      108.962       48.257     7130.246    11872.731     2328.690        4.148        1.067      245.120       50.767        0.043      340.791       15.053      863.464
09/06/2013  04:37:00     -158.384      313.969      -37.693       86.356      132.965       57.442     7457.423    17679.585     3299.564        7.675        1.422      351.656       65.118        0.034      340.713       14.921      863.454
09/06/2013  04:38:00     -113.859      277.976      -32.994       94.822      115.531       45.902     8991.122    13347.490     2106.970        5.788        1.222      300.391       46.124        0.024      340.764       15.007      863.441
09/06/2013  04:39:00      -84.445      218.546      -19.534       68.898       85.714       51.100     4746.884     7346.947     2611.181        3.499        0.735      234.293       46.571        0.040      340.779       15.032      863.433
09/06/2013  04:40:00      -78.887      207.150       -7.131       58.616      120.903       50.713     3435.809    14617.615     2571.844        3.490        1.031      221.662       56.764        0.066      340.809       15.084      863.446
09/06/2013  04:41:00     -100.527       49.201       -0.185       68.221       67.980       36.137     4654.136     4621.227     1305.865        1.155        0.529      111.921       32.711        0.085      340.824       15.112      863.488
09/06/2013  04:42:00     -170.753      218.940      -40.479       89.011       88.503       49.276     7922.980     7832.766     2428.119        4.845        0.909      277.653       62.336        0.050      340.841       15.137      863.517
09/06/2013  04:43:00     -161.376      140.289      -20.094       73.372       95.272       56.121     5383.479     9076.814     3149.518        3.186        0.880      213.830       45.860        0.046      340.782       15.037      863.513
09/06/2013  04:44:00     -141.427      240.202      -44.841       71.947       76.703       42.329     5176.333     5883.309     1791.758        4.628        0.643      278.745       31.290        0.013      340.790       15.048      863.511
09/06/2013  04:45:00     -141.715      249.628      -47.498       65.875       61.785       31.799     4339.566     3817.399     1011.191        4.691        0.458      287.049       25.669        0.008      340.790       15.051      863.486
09/06/2013  04:46:00     -122.958      244.272      -26.708       70.265       92.590       51.553     4937.204     8572.882     2657.724        4.583        0.808      273.473       53.248        0.038      340.770       15.017      863.460
09/06/2013  04:47:00     -129.808      223.987      -33.368       99.366       91.028       49.817     9873.555     8286.113     2481.754        4.438        1.032      258.883       59.123        0.052      340.838       15.131      863.457
09/06/2013  04:48:00     -126.084      196.800      -21.521       80.891      124.609       55.316     6543.300    15527.279     3059.901        4.011        1.257      233.725       60.627        0.067      340.840       15.135      863.473
09/06/2013  04:49:00     -112.522      103.314      -12.890       93.806       53.931       41.037     8799.481     2908.511     1684.074        1.844        0.670      152.758       44.647        0.085      340.791       15.054      863.502
09/06/2013  04:50:00     -115.661      142.125      -12.182       86.609       72.800       49.604     7501.174     5299.886     2460.591        2.449        0.763      183.241       47.665        0.068      340.747       14.978      863.535
09/06/2013  04:51:00      -96.135      167.501      -21.217       55.860       71.682       41.960     3120.290     5138.302     1760.673        2.388        0.501      193.128       35.669        0.034      340.745       14.977      863.554
09/06/2013  04:52:00     -101.994      158.830      -24.820       62.429       83.063       38.411     3897.319     6899.511     1475.378        2.426        0.614      188.758       42.796        0.051      340.714       14.924      863.568
09/06/2013  04:53:00      -84.808      159.200      -11.748       46.957       54.411       42.198     2204.963     2960.521     1780.631        1.981        0.347      180.380       35.331        0.038      340.685       14.874      863.581
09/06/2013  04:54:00     -103.166      146.150      -20.145       56.056       83.635       39.961     3142.318     6994.886     1596.842        2.207        0.587      178.894       45.415        0.064      340.715       14.927      863.584
09/06/2013  04:55:00     -116.483      107.736      -11.748       65.404       63.318       36.572     4277.672     4009.179     1337.489        1.747        0.481      158.667       31.616        0.040      340.777       15.031      863.596
09/06/2013  04:56:00      -78.461       86.069      -11.184       58.692       63.381       33.553     3444.744     4017.202     1125.788        1.114        0.429      116.465       26.541        0.052      340.786       15.047      863.625
09/06/2013  04:57:00     -174.805      165.509      -46.619       80.631       70.109       42.259     6501.427     4915.245     1785.787        3.666        0.660      240.728       47.685        0.039      340.846       15.146      863.642
09/06/2013  04:58:00     -181.729      223.925      -34.067       84.461      102.310       60.867     7133.675    10467.270     3704.737        5.281        1.065      288.389       55.225        0.037      340.879       15.199      863.682
09/06/2013  04:59:00     -197.739      161.033      -37.223       97.494       86.094       54.826     9504.985     7412.184     3005.872        4.317        0.996      255.015       53.871        0.045      340.938       15.301      863.697
09/06/2013  05:00:00     -157.526      112.660      -28.718       60.425       64.144       39.604     3651.173     4114.435     1568.460        2.383        0.467      193.666       44.198        0.052      340.861       15.172      863.680
09/06/2013  05:01:00     -223.805      145.280      -46.898       85.853       86.482       48.223     7370.655     7479.079     2325.488        4.528        0.859      266.824       54.551        0.042      340.949       15.319      863.674
09/06/2013  05:02:00     -169.956       89.957      -24.928       95.452       55.070       44.840     9111.037     3032.671     2010.614        2.587        0.708      192.295       48.712        0.064      340.910       15.253      863.675
09/06/2013  05:03:00     -127.367       78.454      -13.700       49.557       57.919       32.418     2455.856     3354.566     1050.931        1.471        0.343      149.591       30.947        0.043      340.934       15.297      863.677
09/06/2013  05:04:00     -110.686       76.597       -7.287       61.611       68.900       34.904     3795.953     4747.189     1218.266        1.396        0.488      134.605       39.541        0.086      340.955       15.332      863.708
09/06/2013  05:05:00     -195.503       75.362      -23.812       70.211       74.052       48.488     4929.605     5483.658     2351.075        2.861        0.638      209.526       33.325        0.025      341.040       15.474      863.746
09/06/2013  05:06:00     -165.116        5.002      -12.120       58.933       58.846       38.399     3473.066     3462.903     1474.466        1.792        0.421      165.192       28.042        0.029      341.035       15.469      863.748
09/06/2013  05:07:00     -173.404      -41.207       -7.842       77.468       62.510       40.569     6001.217     3907.458     1645.854        2.169        0.578      178.233       39.707        0.050      341.017       15.434      863.739
09/06/2013  05:08:00      -87.265       50.298      -16.853       43.781       38.346       31.210     1916.818     1470.420      974.075        0.739        0.218      100.723       24.788        0.061      340.934       15.298      863.737
09/06/2013  05:09:00     -117.254       50.600      -24.977       39.338       42.534       22.654     1547.497     1809.137      513.210        1.040        0.193      127.707       12.100        0.009      340.934       15.297      863.724
09/06/2013  05:10:00     -157.524       26.841      -18.957       44.377       39.225       24.910     1969.348     1538.606      620.495        1.501        0.206      159.794       14.353        0.008      341.026       15.452      863.738
09/06/2013  05:11:00      -92.491      -50.302       -2.994       53.281       46.243       29.715     2838.891     2138.384      882.996        0.848        0.293      105.285       29.671        0.079      340.922       15.277      863.733
09/06/2013  05:12:00     -157.464      -10.282      -17.500       43.370       49.733       33.149     1880.954     2473.380     1098.831        1.533        0.273      157.799       15.429        0.010      340.927       15.286      863.727
09/06/2013  05:13:00     -151.904       58.723      -31.214       55.357       51.793       29.444     3064.391     2682.546      866.922        1.705        0.331      162.860       34.291        0.044      340.952       15.326      863.732
09/06/2013  05:14:00      -90.281      -20.949       -2.200       32.594       33.055       25.883     1062.350     1092.663      669.906        0.571        0.141       92.679       18.430        0.040      340.918       15.270      863.720
09/06/2013  05:15:00      -96.321      -10.306       -0.064       40.492       43.316       22.329     1639.623     1876.311      498.573        0.670        0.201       96.871       10.295        0.011      340.958       15.339      863.706
09/06/2013  05:16:00     -169.917       76.548      -31.555       70.471       68.543       38.650     4966.220     4698.171     1493.805        2.344        0.558      186.364       40.835        0.048      340.971       15.358      863.701
09/06/2013  05:17:00      -49.510       20.875       -7.592       45.425       29.096       21.544     2063.451      846.590      464.157        0.316        0.169       53.731       12.632        0.055      340.968       15.354      863.701
09/06/2013  05:18:00     -128.151       80.088      -32.613       50.101       50.718       32.576     2510.071     2572.306     1061.173        1.502        0.307      151.118       29.972        0.039      340.980       15.375      863.709
09/06/2013  05:19:00      -81.942      153.731      -30.542       44.564       63.868       33.770     1985.973     4079.151     1140.421        1.924        0.360      174.205       25.559        0.022      341.032       15.461      863.718
09/06/2013  05:20:00     -109.077       83.605      -16.896       51.660       53.181       30.484     2668.764     2828.181      929.301        1.280        0.321      137.432       22.037        0.026      341.024       15.449      863.711
09/06/2013  05:21:00     -122.141       46.385       -8.528       30.042       41.951       22.726      902.527     1759.896      516.487        1.016        0.159      130.653       19.775        0.023      340.886       15.217      863.707
09/06/2013  05:22:00     -136.988       21.307      -22.944       49.572       47.560       24.437     2457.372     2261.940      597.145        1.253        0.266      138.635       26.307        0.036      340.929       15.289      863.711
09/06/2013  05:23:00      -94.720       56.863       -0.498       56.896       74.307       41.091     3237.138     5521.599     1688.458        1.132        0.522      110.477       30.496        0.076      340.964       15.349      863.702
09/06/2013  05:24:00     -134.303       65.905      -30.102       37.361       63.499       33.415     1395.878     4032.096     1116.545        1.491        0.327      149.602       23.658        0.025      341.016       15.435      863.712
09/06/2013  05:25:00     -140.881      139.715      -12.351       84.703       78.753       48.080     7174.622     6202.113     2311.711        2.760        0.784      198.413       46.785        0.056      341.067       15.519      863.740
09/06/2013  05:26:00     -207.182      128.782      -29.365       69.972       66.802       51.214     4896.148     4462.524     2622.872        3.617        0.599      243.945       39.901        0.027      341.190       15.729      863.731
09/06/2013  05:27:00      -88.692       67.921      -17.907       48.212       53.943       27.641     2324.368     2909.894      764.040        0.940        0.300      111.712       26.693        0.057      341.075       15.536      863.713
09/06/2013  05:28:00     -100.400        4.239       -8.305       42.040       48.832       22.953     1767.329     2384.557      526.823        0.742        0.234      100.489       16.789        0.028      341.072       15.530      863.686
09/06/2013  05:29:00     -103.690      116.174      -13.025       57.863       80.822       35.051     3348.146     6532.273     1228.584        1.776        0.555      155.717       29.749        0.036      341.060       15.508      863.668
09/06/2013  05:30:00     -161.625       65.566      -32.511       45.114       66.202       32.770     2035.243     4382.680     1073.855        1.948        0.375      174.418       29.282        0.028      341.125       15.620      863.668
09/06/2013  05:31:00     -159.833       53.171      -24.763       60.800       55.511       31.096     3696.621     3081.447      966.940        1.836        0.387      168.445       23.850        0.020      341.121       15.614      863.687
09/06/2013  05:32:00     -184.201      -15.813      -16.327       64.606       58.624       31.476     4173.891     3436.746      990.751        2.152        0.430      184.879       25.058        0.018      341.025       15.449      863.707
09/06/2013  05:33:00     -205.521      -29.667      -19.318       59.285       80.274       29.621     3514.694     6443.943      877.426        2.716        0.542      207.651       21.513        0.011      340.927       15.283      863.736
09/06/2013  05:34:00     -201.563      -26.332      -29.764       80.175       80.515       34.120     6428.099     6482.592     1164.178        2.814        0.704      203.276       22.038        0.012      340.885       15.210      863.741
09/06/2013  05:35:00     -164.718      -41.153       -8.034       64.352       93.414       36.843     4141.144     8726.131     1357.413        2.155        0.711      169.781       27.671        0.027      340.806       15.079      863.730
09/06/2013  05:36:00     -175.051      -26.826       -8.295       47.998       44.673       34.052     2303.823     1995.661     1159.538        1.844        0.273      177.094       27.526        0.024      340.727       14.946      863.722
09/06/2013  05:37:00     -188.843      -61.386       -9.868       43.049       43.668       23.894     1853.175     1906.931      570.921        2.193        0.217      198.570       20.695        0.011      340.699       14.897      863.718
09/06/2013  05:38:00     -180.283      -60.449       -7.266       52.535       34.951       25.799     2759.909     1221.561      665.597        2.043        0.232      190.148       30.263        0.025      340.637       14.796      863.706
09/06/2013  05:39:00     -182.653      -70.035       -3.167       93.862       49.046       36.321     8810.009     2405.525     1319.207        2.540        0.627      195.620       44.206        0.051      340.610       14.746      863.689
09/06/2013  05:40:00     -118.993      -62.457        1.186       61.802       76.340       27.151     3819.466     5827.733      737.203        1.422        0.519      134.388       27.195        0.041      340.615       14.756      863.683
09/06/2013  05:41:00      -98.316      -30.135        5.922       61.192       78.716       35.561     3744.449     6196.253     1264.568        1.091        0.560      102.831       34.459        0.112      340.626       14.777      863.693
09/06/2013  05:42:00      -13.438      -26.108        8.357       37.796       33.415       26.675     1428.563     1116.546      711.548        0.209        0.163       29.363       20.443        0.485      340.577       14.693      863.716
09/06/2013  05:43:00      -47.070      -57.641        8.629       48.359       41.384       27.025     2338.589     1712.597      730.373        0.520        0.239       74.418       25.278        0.115      340.598       14.731      863.719
09/06/2013  05:44:00      -24.241      -67.888       14.239       41.044       33.828       25.533     1684.628     1144.357      651.950        0.444        0.174       72.086       19.157        0.071      340.625       14.775      863.722
09/06/2013  05:45:00      -21.774      -78.463        6.024       42.232       53.612       34.647     1783.560     2874.202     1200.385        0.626        0.293       81.428       25.517        0.098      340.701       14.903      863.732
09/06/2013  05:46:00      -13.248     -111.147        1.927       34.942       56.239       36.764     1220.913     3162.791     1351.570        0.913        0.287      111.934       23.713        0.045      340.674       14.857      863.717
09/06/2013  05:47:00       68.919      -88.660      -25.550       57.069       63.787       55.435     3256.892     4068.792     3072.995        1.183        0.520      112.296       50.821        0.205      340.274       14.179      863.697
09/06/2013  05:48:00       94.282      -99.445      -36.426       59.946       76.026       43.316     3593.577     5779.905     1876.314        1.568        0.562      137.035       43.020        0.099      340.202       14.059      863.700
09/06/2013  05:49:00       52.322      -78.077       -9.771       60.398       61.900       60.779     3647.867     3831.561     3694.043        1.005        0.559       93.987       42.764        0.207      340.092       13.874      863.718
09/06/2013  05:50:00        6.496      -60.381       15.176       41.276       66.904       31.255     1703.670     4476.100      976.851        0.554        0.358       60.730       33.692        0.308      340.316       14.253      863.727
09/06/2013  05:51:00       10.177      -27.366       13.540       38.472       39.328       27.993     1480.095     1546.660      783.588        0.242        0.191       29.197       24.017        0.677      340.215       14.082      863.727
09/06/2013  05:52:00      -27.525      -34.077        0.807       67.588       25.905       22.973     4568.096      671.071      527.781        0.384        0.288       43.805       16.174        0.136      340.357       14.322      863.712
09/06/2013  05:53:00      -96.132      -70.432        0.094       47.853       49.014       24.384     2289.937     2402.403      594.588        0.974        0.264      119.172       19.711        0.027      340.191       14.041      863.705
09/06/2013  05:54:00      -39.609      -41.188       23.791       67.629       47.758       32.002     4573.615     2280.823     1024.138        0.585        0.394       57.143       38.246        0.448      340.175       14.015      863.720
09/06/2013  05:55:00     -169.960     -117.889       -9.081       59.150       50.464       34.981     3498.665     2546.586     1223.656        2.507        0.363      206.843       23.222        0.013      340.107       13.897      863.756
09/06/2013  05:56:00     -176.535     -121.336       -2.331       72.579       64.392       38.892     5267.681     4146.355     1512.562        2.841        0.546      214.213       35.269        0.027      339.956       13.642      863.772
09/06/2013  05:57:00     -161.115      -81.560       -4.244       58.250       62.275       37.687     3393.084     3878.115     1420.316        2.066        0.435      180.583       30.457        0.028      339.989       13.699      863.784
09/06/2013  05:58:00     -159.516      -33.890      -16.947       45.751       46.478       20.521     2093.118     2160.241      421.109        1.578        0.234      163.076       14.602        0.008      340.104       13.893      863.800
09/06/2013  05:59:00      -79.936      -26.524       -7.517       25.818       21.973       14.360      666.594      482.823      206.222        0.425        0.068       84.222       13.963        0.027      340.187       14.035      863.817
09/06/2013  06:00:00       -3.209      -52.156       -2.485       30.837       27.484       14.666      950.896      755.391      215.082        0.233        0.096       52.255        9.610        0.034      340.139       13.953      863.823
09/06/2013  06:01:00      -53.311     -109.452       -2.146       46.225       40.953       18.462     2136.771     1677.143      340.851        0.949        0.208      121.745       16.649        0.019      340.136       13.948      863.826
09/06/2013  06:02:00      -11.265      -73.918       12.903       36.818       38.492       31.091     1355.590     1481.629      966.677        0.478        0.190       74.772       31.311        0.175      340.079       13.852      863.824
09/06/2013  06:03:00      -20.276      -39.137       17.892       39.761       38.818       28.386     1580.924     1506.838      805.788        0.308        0.195       44.078       28.584        0.421      340.054       13.808      863.834
09/06/2013  06:04:00      -95.350      -93.346       -2.935       46.779       64.436       26.771     2188.264     4152.016      716.706        1.243        0.353      133.436       27.061        0.041      340.018       13.749      863.849
09/06/2013  06:05:00      -55.279      -90.872        2.892       50.356       46.322       29.258     2535.771     2145.728      856.003        0.843        0.277      106.365       36.287        0.116      339.983       13.691      863.877
09/06/2013  06:06:00        4.874      -62.982        7.464       23.975       48.339       23.184      574.802     2336.677      537.489        0.375        0.172       63.171       18.166        0.083      340.018       13.749      863.898
09/06/2013  06:07:00      -33.667      -51.710        0.069       38.178       46.895       29.795     1457.559     2199.167      887.762        0.418        0.227       61.704       23.978        0.151      339.893       13.539      863.921
09/06/2013  06:08:00      -36.796      -39.790        7.774       49.112       31.677       32.476     2411.990     1003.414     1054.722        0.373        0.224       54.196       26.123        0.232      339.913       13.572      863.934
09/06/2013  06:09:00      -14.674      -31.122       10.861       38.245       41.212       23.088     1462.657     1698.423      533.064        0.250        0.185       34.408       23.853        0.481      339.855       13.476      863.943
09/06/2013  06:10:00      -57.804      -83.522       -1.439       17.289       18.019       13.172      298.923      324.695      173.508        0.556        0.040      101.573        8.210        0.007      339.974       13.675      863.941
09/06/2013  06:11:00      -61.296      -70.063       -9.784       15.543       15.063        9.317      241.574      226.908       86.803        0.466        0.028       93.092        6.528        0.005      340.076       13.848      863.934
09/06/2013  06:12:00      -19.504      -49.856        8.881       28.810       25.072       22.222      830.026      628.612      493.803        0.245        0.098       53.535       19.147        0.128      340.096       13.882      863.930
09/06/2013  06:13:00       -8.589       -6.467       13.452       12.152       10.112       12.435      147.681      102.261      154.625        0.035        0.020       10.752        6.688        0.387      339.984       13.692      863.932
09/06/2013  06:14:00       12.138       -7.593        3.452       12.841        8.930        9.063      164.884       79.753       82.146        0.027        0.016       14.317        5.069        0.125      339.974       13.674      863.941
09/06/2013  06:15:00       -7.456      -33.933       -8.649       10.775       13.234       10.521      116.092      175.144      110.691        0.084        0.020       34.742        4.882        0.020      340.355       14.319      863.955
09/06/2013  06:16:00       -7.203      -21.227      -10.935       13.145       18.896       12.436      172.779      357.075      154.661        0.065        0.034       22.416       11.691        0.272      340.199       14.054      863.967
09/06/2013  06:17:00      -11.831       -2.893       -0.197        9.960        4.417        6.568       99.197       19.510       43.142        0.016        0.008       12.179        3.940        0.105      340.105       13.894      863.959
09/06/2013  06:18:00      -36.208       -7.371       -3.532       10.385       10.913        6.719      107.851      119.104       45.144        0.082        0.014       36.951        3.194        0.007      340.143       13.959      863.935
09/06/2013  06:19:00       -3.391      -14.787        2.129       18.249       11.269        8.631      333.019      126.993       74.493        0.038        0.027       15.171       10.195        0.452      340.278       14.187      863.912
09/06/2013  06:20:00       24.332      -26.504       -0.079       25.850       16.691       12.918      668.241      278.589      166.883        0.120        0.056       35.979       10.846        0.091      340.178       14.018      863.896
09/06/2013  06:21:00       -3.448      -38.359        2.879       50.200       20.009       17.125     2520.065      400.370      293.279        0.235        0.161       38.513       20.299        0.278      340.149       13.971      863.903
09/06/2013  06:22:00      -65.139      -53.284        5.611       51.349       31.101       23.239     2636.692      967.261      540.064        0.563        0.207       84.156       19.421        0.053      339.967       13.664      863.919
09/06/2013  06:23:00      -95.133      -87.591        2.637       43.045       40.073       27.176     1852.895     1605.814      738.552        1.046        0.210      129.316       26.255        0.041      339.872       13.502      863.934
09/06/2013  06:24:00      -68.589      -60.390        1.806       50.213       38.091       24.357     2521.369     1450.947      593.240        0.646        0.228       91.386       25.266        0.076      339.952       13.639      863.934
09/06/2013  06:25:00      -85.036      -15.446       -0.814       41.832       38.701       19.890     1749.953     1497.767      395.607        0.556        0.182       86.427       17.494        0.041      339.997       13.713      863.931
09/06/2013  06:26:00     -114.230      -25.226       -7.345       34.170       29.057       22.667     1167.606      844.295      513.814        0.813        0.126      116.982       21.699        0.034      339.949       13.634      863.931
09/06/2013  06:27:00     -133.605      -40.543       -8.418       25.145       22.893       17.618      632.277      524.080      310.385        1.052        0.073      139.621       12.223        0.008      339.873       13.505      863.919
09/06/2013  06:28:00      -30.697      -30.322       13.026       50.780       29.320       20.592     2578.609      859.683      424.035        0.295        0.193       43.148       25.380        0.346      339.817       13.411      863.903
09/06/2013  06:29:00      -51.458      -25.825        5.309       44.874       29.551       18.215     2013.707      873.245      331.773        0.328        0.161       57.575       20.355        0.125      339.952       13.637      863.906
09/06/2013  06:30:00      -25.998       -5.601        3.523       19.560       21.965        8.704      382.586      482.449       75.752        0.083        0.047       26.595        6.239        0.055      339.839       13.448      863.921
09/06/2013  06:31:00      -35.727       -5.354       -4.213       16.758       11.410        7.350      280.846      130.190       54.019        0.089        0.023       36.126        7.122        0.039      339.882       13.521      863.942
09/06/2013  06:32:00      -21.851      -17.308       -1.019       18.112       12.991        9.479      328.036      168.771       89.852        0.068        0.029       27.875        8.451        0.092      339.891       13.535      863.959
09/06/2013  06:33:00      -23.911      -25.844       -7.440       25.739       14.918       10.487      662.491      222.557      109.969        0.114        0.050       35.209       12.352        0.123      339.959       13.651      863.972
09/06/2013  06:34:00      -32.104      -23.418       -1.721       28.118       18.502       14.210      790.617      342.339      201.925        0.146        0.067       39.738        9.059        0.052      339.934       13.609      863.980
09/06/2013  06:35:00      -27.448       -7.491       -0.529       16.181       10.067        8.497      261.812      101.345       72.207        0.062        0.022       28.452        8.877        0.097      339.934       13.607      863.984
09/06/2013  06:36:00       -7.627      -11.318      -10.561       23.750       15.541        8.595      564.074      241.528       73.882        0.059        0.044       13.648        6.944        0.259      339.772       13.335      863.989
09/06/2013  06:37:00       -7.917      -11.383        8.524       21.206       13.096       12.822      449.696      171.511      164.414        0.053        0.039       13.866        6.739        0.236      339.629       13.093      864.004
09/06/2013  06:38:00      -33.625      -56.781        1.115       36.068       34.915       15.329     1300.866     1219.041      234.969        0.355        0.138       65.990       16.077        0.059      339.712       13.232      864.034
09/06/2013  06:39:00      -85.515      -39.892       -4.987       54.492       38.888       28.338     2969.409     1512.293      803.029        0.711        0.264       94.362       17.519        0.034      339.611       13.062      864.058
09/06/2013  06:40:00     -126.521      -98.422        2.180       53.188       51.494       28.405     2828.979     2651.609      806.867        1.599        0.314      160.295       27.736        0.030      339.473       12.828      864.081
09/06/2013  06:41:00     -117.577      -89.420        3.020       62.965       48.827       31.618     3964.596     2384.053      999.725        1.459        0.367      147.717       32.195        0.048      339.488       12.854      864.111
09/06/2013  06:42:00     -121.529      -81.341       -0.445       43.373       36.928       28.589     1881.200     1363.695      817.355        1.272        0.203      146.238       25.187        0.030      339.479       12.839      864.125
09/06/2013  06:43:00     -104.034     -102.527       -6.111       31.978       35.297       24.458     1022.588     1245.893      598.205        1.212        0.143      146.064       22.538        0.024      339.454       12.798      864.150
09/06/2013  06:44:00      -98.474      -80.538       -5.415       30.651       28.015       18.258      939.506      784.818      333.347        0.913        0.103      127.214       17.723        0.019      339.471       12.828      864.159
09/06/2013  06:45:00      -90.507      -53.805       -9.838       34.159       33.017       18.057     1166.868     1090.131      326.061        0.688        0.129      105.292       17.152        0.027      339.521       12.909      864.168
09/06/2013  06:46:00     -114.358      -82.749       -5.671       30.334       40.984       21.969      920.131     1679.712      482.651        1.152        0.154      141.156       12.960        0.008      339.432       12.761      864.173
09/06/2013  06:47:00      -93.071      -79.440       -0.363       40.714       33.677       22.213     1657.602     1134.124      493.417        0.913        0.164      122.364       22.209        0.033      339.471       12.828      864.186
09/06/2013  06:48:00      -83.071      -55.103        2.923       40.025       28.920       23.128     1602.006      836.354      534.923        0.646        0.149       99.685       20.934        0.044      339.401       12.709      864.211
09/06/2013  06:49:00      -50.638      -32.509        8.970       52.884       33.167       22.894     2796.724     1100.063      524.142        0.406        0.221       60.175       25.836        0.184      339.394       12.698      864.228
09/06/2013  06:50:00      -73.620      -40.809        3.355       36.722       34.971       18.953     1348.495     1222.942      359.222        0.501        0.147       84.174       17.937        0.045      339.394       12.697      864.250
09/06/2013  06:51:00     -104.001      -54.251       -1.684       24.096       27.739       17.433      580.637      769.432      303.896        0.771        0.083      117.301       10.853        0.009      339.367       12.651      864.264
09/06/2013  06:52:00      -83.479      -44.434       -8.552       17.487       14.783        8.176      305.793      218.527       66.841        0.480        0.030       94.568        7.184        0.006      339.518       12.903      864.279
09/06/2013  06:53:00      -61.538      -22.168       -3.370       16.818       11.383        8.868      282.830      129.564       78.633        0.239        0.025       65.410        9.692        0.022      339.554       12.965      864.290
09/06/2013  06:54:00      -73.273      -34.438       -4.702       24.562        9.527        8.246      603.275       90.766       67.999        0.367        0.038       80.963        7.084        0.008      339.589       13.026      864.310
09/06/2013  06:55:00      -58.343      -30.348      -10.140       26.164       16.118       12.820      684.569      259.778      164.341        0.277        0.055       65.764       10.498        0.025      339.654       13.135      864.323
09/06/2013  06:56:00      -39.437      -26.701       -1.424       26.595       14.438       12.820      707.298      208.449      164.364        0.167        0.054       47.626       10.841        0.052      339.615       13.070      864.331
09/06/2013  06:57:00        3.135      -11.117        3.362       15.620       10.540       12.911      243.990      111.084      166.705        0.033        0.026       11.551       10.796        0.874      339.703       13.218      864.351
09/06/2013  06:58:00      -13.414      -30.309        4.986       27.772       15.546       17.715      771.289      241.685      313.811        0.122        0.066       33.145       19.666        0.352      339.655       13.137      864.382
09/06/2013  06:59:00      -16.065      -43.601        6.569       27.787       28.863       17.943      772.143      833.080      321.967        0.206        0.096       46.466       19.501        0.176      339.674       13.169      864.414
09/06/2013  07:00:00      -42.158      -29.773        4.279       31.761       20.804       19.964     1008.768      432.787      398.556        0.226        0.092       51.611       19.856        0.148      339.643       13.116      864.441
09/06/2013  07:01:00      -38.932      -49.054       -0.625       30.776       10.343       12.875      947.178      106.980      165.764        0.257        0.061       62.625       16.487        0.069      339.729       13.263      864.457
09/06/2013  07:02:00      -26.559      -26.254       -1.259       19.484       19.986       12.617      379.616      399.431      159.187        0.117        0.047       37.345       14.985        0.161      339.743       13.288      864.466
09/06/2013  07:03:00      -59.698      -21.587       -7.951       13.200       13.741        9.883      174.237      188.815       97.679        0.228        0.023       63.481        7.635        0.014      339.779       13.349      864.472
09/06/2013  07:04:00      -27.012      -38.567       -2.294       10.697       21.248        9.449      114.426      451.459       89.289        0.144        0.033       47.086        3.608        0.006      339.996       13.711      864.469
09/06/2013  07:05:00      -21.701       -8.584      -16.787       40.604       17.836       15.471     1648.683      318.139      239.344        0.152        0.110       23.337       11.206        0.231      340.154       13.979      864.462
09/06/2013  07:06:00      -73.002       -9.025      -10.541       22.456        9.502        7.402      504.284       90.297       54.782        0.309        0.032       73.557        3.579        0.002      339.805       13.389      864.474
09/06/2013  07:07:00        6.054      -25.065       -2.251       28.253       14.979       12.549      798.210      224.384      157.488        0.092        0.059       25.786        7.604        0.087      340.000       13.721      864.479
09/06/2013  07:08:00       23.299        1.982        9.008       32.056       36.760       19.385     1027.568     1351.318      375.769        0.169        0.138       23.383       16.772        0.514      339.972       13.672      864.479
09/06/2013  07:09:00      -19.110      -42.161        0.125       19.348       18.915       20.951      374.340      357.776      438.931        0.166        0.059       46.290        7.982        0.030      339.789       13.362      864.489
09/06/2013  07:10:00       15.871      -45.399        2.978       21.107       17.845       14.381      445.487      318.443      206.816        0.165        0.049       48.093        8.178        0.029      340.036       13.780      864.497
09/06/2013  07:11:00       -9.047      -19.067       19.609        9.119       32.118       10.649       83.147     1031.548      113.393        0.103        0.061       21.104       12.132        0.330      340.572       14.685      864.480
09/06/2013  07:12:00       73.899       46.625       17.695       26.753       19.485       21.580      715.710      379.683      465.708        0.475        0.078       87.378       13.861        0.025      340.141       13.959      864.488
09/06/2013  07:13:00       33.012       43.297       18.027       31.399       20.234       20.512      985.911      409.433      420.759        0.255        0.091       54.447       16.939        0.097      340.202       14.059      864.508
09/06/2013  07:14:00       26.134        5.694        5.589       16.500       24.805       13.605      272.248      615.288      185.102        0.091        0.054       26.747        4.914        0.034      340.045       13.794      864.532
09/06/2013  07:15:00       -7.916      -22.838        1.632       17.459       21.707       10.405      304.827      471.192      108.271        0.074        0.044       24.171       10.651        0.194      340.025       13.762      864.556
09/06/2013  07:16:00      -13.787      -44.486       -1.225       15.774       15.864       11.467      248.835      251.666      131.501        0.140        0.032       46.574        5.069        0.012      339.880       13.517      864.571
09/06/2013  07:17:00        4.014      -20.847       -5.833       16.700       10.242        7.690      278.899      104.892       59.139        0.046        0.022       21.230        7.239        0.116      340.031       13.772      864.591
09/06/2013  07:18:00       18.193      -26.574       -5.658       15.866       22.649       16.190      251.717      512.969      262.116        0.105        0.051       32.205       10.411        0.105      340.006       13.728      864.592
09/06/2013  07:19:00        9.760      -70.389       -5.824       20.952       26.088       18.656      438.969      680.585      348.054        0.328        0.073       71.062       14.021        0.039      339.929       13.599      864.593
09/06/2013  07:20:00       25.626      -71.241      -10.055       18.014       23.698       17.802      324.510      561.598      316.909        0.352        0.060       75.710        6.852        0.008      340.318       14.256      864.602
09/06/2013  07:21:00       10.054      -10.435        4.727       13.279       17.972       15.914      176.338      323.007      253.252        0.049        0.038       14.490        9.831        0.460      340.536       14.623      864.621
09/06/2013  07:22:00      -10.671      -12.622       -3.754       16.712       12.222       13.427      279.296      149.386      180.276        0.045        0.030       16.529        9.920        0.360      340.286       14.201      864.644
09/06/2013  07:23:00       36.961        1.729       17.076       31.870       27.561       27.153     1015.675      759.615      737.304        0.209        0.126       37.002       18.958        0.263      340.354       14.317      864.663
09/06/2013  07:24:00       -5.568       11.873       55.726       17.877       39.881       21.810      319.580     1590.473      475.663        0.283        0.119       13.114       22.323        2.898      340.495       14.555      864.651
09/06/2013  07:25:00        5.502      -61.498       15.402       32.677       47.701       28.655     1067.791     2275.409      821.082        0.411        0.208       61.744       17.991        0.085      340.342       14.297      864.657
09/06/2013  07:26:00       -6.130      -33.235       -1.378       36.089       32.788       23.056     1302.425     1075.028      531.574        0.203        0.145       33.795       17.937        0.282      340.249       14.139      864.667
09/06/2013  07:27:00      -64.298      -50.782       -2.658       60.424       46.484       25.106     3651.061     2160.785      630.307        0.658        0.322       81.933       23.545        0.083      340.067       13.832      864.672
09/06/2013  07:28:00      -45.379      -39.393       12.318       50.847       46.734       27.484     2585.406     2184.089      755.387        0.464        0.276       60.092       24.783        0.170      339.981       13.686      864.672
09/06/2013  07:29:00      -15.748     -117.906        3.667       72.620       52.842       39.048     5273.682     2792.312     1524.724        1.188        0.480      118.953       32.905        0.077      339.916       13.577      864.664
09/06/2013  07:30:00      -65.098      -59.834       -9.278       47.805       48.907       25.107     2285.300     2391.908      630.342        0.660        0.265       88.419       17.574        0.040      340.013       13.741      864.665
09/06/2013  07:31:00      -18.434      -71.153      -11.447       34.352       38.902       22.422     1180.065     1513.371      502.766        0.436        0.160       73.502       10.973        0.022      340.019       13.751      864.661
09/06/2013  07:32:00       10.716      -93.574      -17.276       33.463       26.751       25.770     1119.788      715.605      664.096        0.583        0.125       94.186       15.878        0.028      340.114       13.911      864.646
09/06/2013  07:33:00        1.233      -56.947       -8.274       28.769       43.899       21.334      827.678     1927.153      455.119        0.326        0.160       56.960       12.067        0.045      340.183       14.029      864.650
09/06/2013  07:34:00      -56.654      -25.317        4.588       43.886       37.853       21.412     1926.005     1432.841      458.469        0.384        0.191       62.053       14.044        0.051      340.121       13.924      864.672
09/06/2013  07:35:00      -69.241      -86.363       -0.112       54.344       55.955       25.235     2953.241     3130.916      636.809        0.949        0.336      110.692       27.440        0.061      339.937       13.611      864.680
09/06/2013  07:36:00      -32.641     -127.037        2.341       41.700       46.902       24.003     1738.925     2199.782      576.167        1.086        0.226      131.163       18.775        0.020      339.968       13.665      864.674
09/06/2013  07:37:00      -63.875      -36.670       10.448       68.993       31.597       33.300     4760.048      998.354     1108.922        0.620        0.343       73.653       34.215        0.216      339.995       13.711      864.681
09/06/2013  07:38:00      -91.600      -71.461        2.298       52.150       39.354       29.832     2719.606     1548.773      889.939        0.933        0.258      116.178       25.536        0.048      339.878       13.514      864.684
09/06/2013  07:39:00      -87.819      -63.549       -2.864       51.897       34.079       25.710     2693.266     1161.396      660.983        0.814        0.226      108.400       16.810        0.024      339.859       13.482      864.676
09/06/2013  07:40:00      -78.313      -40.912        3.996       55.733       42.400       26.510     3106.213     1797.800      702.805        0.671        0.280       88.356       32.011        0.131      339.992       13.707      864.669
09/06/2013  07:41:00      -65.657      -77.910       -4.642       58.924       41.105       26.064     3472.038     1689.660      679.307        0.812        0.292      101.886       22.786        0.050      340.005       13.727      864.672
09/06/2013  07:42:00      -18.578       -9.274       17.821       26.836       30.564       18.251      720.184      934.150      333.091        0.137        0.099       20.764       16.371        0.622      340.280       14.191      864.676
09/06/2013  07:43:00      -63.264      -25.740       -3.954       35.359       27.482       21.230     1250.283      755.256      450.717        0.357        0.123       68.300       21.787        0.102      340.151       13.975      864.670
09/06/2013  07:44:00      -63.041      -21.547      -13.832       40.338       30.340       19.279     1627.138      920.512      371.695        0.377        0.146       66.622       13.411        0.041      340.122       13.925      864.678
09/06/2013  07:45:00      -55.321      -28.666       -1.059       48.108       37.260       20.774     2314.403     1388.303      431.579        0.401        0.207       62.307       16.813        0.073      340.232       14.110      864.693
09/06/2013  07:46:00      -41.486      -56.287        7.199       51.926       33.854       31.963     2696.322     1146.100     1021.644        0.490        0.243       69.923       19.264        0.076      340.201       14.058      864.695
09/06/2013  07:47:00      -93.767      -80.084        6.593       43.860       38.868       28.093     1923.663     1510.699      789.195        0.974        0.211      123.311       26.952        0.048      340.153       13.976      864.693
09/06/2013  07:48:00     -105.324      -83.313        1.019       32.435       41.422       22.668     1052.048     1715.768      513.852        1.066        0.164      134.292       21.953        0.027      340.171       14.008      864.708
09/06/2013  07:49:00      -80.866      -45.174        2.781       40.176       32.967       21.201     1614.075     1086.791      449.501        0.587        0.158       92.629       20.342        0.048      340.283       14.197      864.712
09/06/2013  07:50:00      -42.084      -88.486        9.259       44.676       40.725       26.459     1995.951     1658.524      700.060        0.702        0.218       97.983       22.563        0.053      340.237       14.118      864.713
09/06/2013  07:51:00      -82.131      -74.404       -1.227       36.397       40.213       28.718     1324.732     1617.111      824.746        0.802        0.188      110.822       12.889        0.014      340.247       14.135      864.701
09/06/2013  07:52:00      -53.203      -19.049        0.895       45.928       33.700       27.991     2109.416     1135.670      783.504        0.361        0.201       56.510       19.371        0.118      340.521       14.599      864.705
09/06/2013  07:53:00      -15.610      -10.516        4.577       26.921       40.824       20.161      724.755     1666.602      406.469        0.159        0.140       18.822       18.545        0.971      340.598       14.730      864.724
09/06/2013  07:54:00      -17.973      -14.302       14.099       29.697       36.446       20.712      881.906     1328.331      429.002        0.168        0.132       22.969       20.613        0.805      340.921       15.275      864.727
09/06/2013  07:55:00      -50.142      -11.918       -1.792       28.572       28.598       17.804      816.332      817.819      316.984        0.230        0.098       51.538        9.377        0.033      340.514       14.588      864.745
09/06/2013  07:56:00      -62.510      -15.884        8.694       43.957       39.752       28.406     1932.192     1580.202      806.886        0.428        0.216       64.496       31.438        0.238      340.773       15.025      864.768
09/06/2013  07:57:00      -81.994      -59.487        9.094       46.999       46.523       29.432     2208.921     2164.435      866.241        0.779        0.262      101.301       31.513        0.097      340.604       14.738      864.793
09/06/2013  07:58:00      -92.241      -60.278        2.898       54.507       37.585       28.967     2970.960     1412.604      839.091        0.869        0.261      110.191       28.341        0.066      340.561       14.668      864.810
09/06/2013  07:59:00      -77.333      -46.536       -2.838       25.866       22.303       17.448      669.063      497.444      304.436        0.481        0.074       90.255       14.892        0.027      340.556       14.659      864.827
09/06/2013  08:00:00      -67.119      -39.150        1.173       46.026       35.485       19.902     2118.430     1259.155      396.103        0.491        0.189       77.703       16.425        0.045      340.615       14.758      864.843
09/06/2013  08:01:00      -62.998     -108.351       -0.756       25.844       24.573       20.459      667.923      603.831      418.555        0.870        0.085      125.334       14.548        0.013      340.505       14.571      864.851
09/06/2013  08:02:00      -40.049      -37.328        2.551       38.488       35.215       17.462     1481.333     1240.074      304.935        0.301        0.151       54.747       19.315        0.124      340.668       14.849      864.853
09/06/2013  08:03:00      -24.273       -4.698      -14.517       24.289       20.407       10.794      589.956      416.431      116.518        0.097        0.056       24.724        9.350        0.143      340.722       14.939      864.860
09/06/2013  08:04:00      -16.075        5.487       22.870       18.634       24.783       20.116      347.235      614.215      404.671        0.109        0.068       16.985       14.538        0.733      341.091       15.562      864.870
09/06/2013  08:05:00      -14.683       12.724       43.543       18.025       34.216       18.483      324.910     1170.743      341.628        0.206        0.092       19.429       20.393        1.102      341.311       15.935      864.882
09/06/2013  08:06:00      -27.524       10.685       28.136       23.225       16.696       18.510      539.390      278.772      342.621        0.141        0.058       29.525       17.093        0.335      341.211       15.767      864.891
09/06/2013  08:07:00      -41.590       -0.238        2.096       10.883        9.498        7.575      118.432       90.217       57.385        0.100        0.013       41.591        4.638        0.012      340.834       15.127      864.893
09/06/2013  08:08:00       -9.640      -14.994       -4.536       33.208       24.672       17.320     1102.768      608.694      299.988        0.117        0.101       17.826       19.297        1.172      340.801       15.073      864.905
09/06/2013  08:09:00       10.693      -44.796       -1.792       23.911       31.674       23.777      571.737     1003.260      565.346        0.213        0.107       46.055       18.804        0.167      340.682       14.871      864.921
09/06/2013  08:10:00       44.429      -54.026        8.238       27.520       33.693       29.029      757.332     1135.204      842.663        0.385        0.137       69.949       24.101        0.119      340.768       15.018      864.928
09/06/2013  08:11:00      -12.484      -26.007       14.884       27.275       27.273       20.885      743.931      743.790      436.180        0.149        0.096       28.848       20.846        0.522      341.315       15.941      864.933
09/06/2013  08:12:00      -50.641      -31.523        9.617       41.117       37.480       19.374     1690.596     1404.739      375.337        0.356        0.174       59.651       21.621        0.131      341.256       15.843      864.941
09/06/2013  08:13:00      -65.759      -18.712       -8.098       49.184       45.651       23.939     2419.094     2083.975      573.096        0.491        0.254       68.369       16.929        0.061      341.113       15.599      864.948
09/06/2013  08:14:00      -91.598      -71.687       -4.570       21.342       28.707       17.694      455.461      824.119      313.071        0.757        0.080      116.315       10.685        0.008      341.029       15.458      864.938
09/06/2013  08:15:00      -49.543      -41.277       -4.278       22.763       25.150       16.709      518.151      632.511      279.202        0.280        0.071       64.485       16.566        0.066      341.098       15.574      864.936
09/06/2013  08:16:00      -35.087        5.020       -6.600       22.872       11.337       12.640      523.141      128.526      159.777        0.106        0.041       35.445        4.964        0.020      341.190       15.731      864.944
09/06/2013  08:17:00      -26.135       18.823       16.764       20.131       16.240       14.673      405.245      263.746      215.306        0.110        0.044       32.208       11.249        0.122      341.409       16.101      864.949
09/06/2013  08:18:00        7.991      -14.958       13.683       22.338       27.558       17.412      499.001      759.429      303.184        0.102        0.078       16.959       12.816        0.571      341.382       16.055      864.960
09/06/2013  08:19:00      -12.232       -7.608       -0.377       13.415       21.827       16.653      179.970      476.398      277.321        0.057        0.047       14.405       13.615        0.893      341.291       15.902      864.973
09/06/2013  08:20:00      -28.104      -23.248       -3.243       33.352       25.831       17.339     1112.335      667.257      300.649        0.171        0.104       36.473       13.737        0.142      341.105       15.587      864.981
09/06/2013  08:21:00      -52.170       12.312       -5.763       11.433       21.324       12.597      130.722      454.719      158.677        0.183        0.037       53.604        5.976        0.012      341.216       15.777      865.004
09/06/2013  08:22:00      -13.437       -4.645        6.981       11.983       15.647        9.645      143.583      244.838       93.021        0.037        0.024       14.218        7.985        0.315      341.608       16.440      865.016
09/06/2013  08:23:00       -4.052      -39.783       -0.052       17.061       37.517       15.913      291.090     1407.530      253.211        0.178        0.098       39.989        8.963        0.050      341.522       16.292      865.010
09/06/2013  08:24:00       18.287       15.141       18.842       20.273       21.045       18.074      411.004      442.894      326.683        0.105        0.059       23.741        9.768        0.169      341.957       17.031      865.022
09/06/2013  08:25:00        3.786      128.627       -0.524       56.196       54.779       38.480     3157.998     3000.763     1480.709        1.210        0.382      128.682       38.342        0.089      341.577       16.386      865.012
09/06/2013  08:26:00      -17.721      161.075       -1.747       28.674       51.665       32.948      822.173     2669.308     1085.573        1.542        0.229      162.047       31.068        0.037      341.868       16.881      865.002
09/06/2013  08:27:00     -107.686      157.885      -15.297       74.590       74.783       46.266     5563.717     5592.510     2140.497        2.502        0.665      191.113       40.540        0.045      341.839       16.829      864.989
09/06/2013  08:28:00      -80.554      139.233       -6.608       63.186       62.655       42.322     3992.476     3925.629     1791.123        1.781        0.485      160.857       46.691        0.084      341.932       16.988      864.974
09/06/2013  08:29:00      -11.937       80.709        8.450       39.086       76.870       39.370     1527.707     5909.018     1550.023        0.786        0.449       81.587       34.823        0.182      342.094       17.263      864.966
09/06/2013  08:30:00      -63.569      108.512        5.421       59.754       62.045       41.328     3570.589     3849.542     1708.026        1.248        0.456      125.761       35.348        0.079      341.963       17.040      864.939
09/06/2013  08:31:00      -15.565      173.903      -12.600       60.510       93.755       44.515     3661.401     8789.943     1981.616        2.254        0.722      174.598       42.093        0.058      342.100       17.272      864.931
09/06/2013  08:32:00      -16.117      113.362        6.114       37.326       53.734       40.409     1393.202     2887.359     1632.919        0.953        0.296      114.502       35.211        0.095      342.075       17.231      864.913
09/06/2013  08:33:00      -58.639      135.537       -7.447       54.331       61.332       32.460     2951.905     3761.590     1053.647        1.481        0.388      147.678       31.605        0.046      341.910       16.951      864.911
09/06/2013  08:34:00     -112.947      151.807      -26.064       40.448       38.270       30.448     1636.045     1464.624      927.052        2.025        0.201      189.216       22.672        0.014      341.795       16.753      864.924
09/06/2013  08:35:00      -24.434      112.113      -16.550       61.442       49.215       37.875     3775.083     2422.094     1434.501        1.053        0.382      114.745       31.383        0.075      341.933       16.989      864.944
09/06/2013  08:36:00      -38.466       79.550        0.845       52.415       54.300       35.991     2747.371     2948.450     1295.381        0.740        0.350       88.361       33.875        0.147      342.309       17.630      864.952
09/06/2013  08:37:00     -119.516       34.167      -19.082       53.827       60.330       35.260     2897.364     3639.769     1243.274        1.180        0.389      124.303       29.907        0.058      341.801       16.766      864.957
09/06/2013  08:38:00      -35.871       83.457       -3.340       42.937       51.164       35.227     1843.548     2617.731     1240.946        0.698        0.285       90.840       30.505        0.113      342.174       17.400      864.952
09/06/2013  08:39:00       39.020      114.925        1.884       45.495      109.802       52.965     2069.828    12056.579     2805.306        1.583        0.847      121.368       60.659        0.250      342.187       17.419      864.944
09/06/2013  08:40:00       25.706      145.255      -13.118       52.953       73.853       43.488     2804.011     5454.260     1891.240        1.604        0.507      147.512       40.370        0.075      342.111       17.290      864.932
09/06/2013  08:41:00       -3.086      124.660      -13.081       59.059       66.076       38.677     3487.979     4366.006     1495.939        1.253        0.467      124.698       32.452        0.068      342.299       17.611      864.933
09/06/2013  08:42:00      -24.198      229.001      -19.173       45.941       63.740       32.587     2110.573     4062.745     1061.914        3.031        0.362      230.276       34.129        0.022      342.081       17.237      864.936
09/06/2013  08:43:00       -7.757       51.476       28.135       38.603       59.882       33.943     1490.187     3585.865     1152.123        0.486        0.311       52.057       35.575        0.467      342.632       18.179      864.928
09/06/2013  08:44:00      -50.188      122.457       11.930       75.526      106.334       55.436     5704.109    11307.015     3073.107        1.887        1.004      132.342       67.481        0.260      342.448       17.863      864.934
09/06/2013  08:45:00      -86.936      180.511      -16.257       51.186       66.421       43.890     2620.016     4411.797     1926.293        2.468        0.448      200.355       45.338        0.051      342.137       17.333      864.939
09/06/2013  08:46:00      -51.168      156.273       -9.576       56.131       61.607       34.497     3150.639     3795.406     1190.074        1.763        0.407      164.437       28.630        0.030      342.137       17.334      864.933
09/06/2013  08:47:00      -54.338      166.301      -15.071       48.326       76.820       42.503     2335.440     5901.249     1806.481        2.044        0.502      174.954       41.900        0.057      342.240       17.509      864.926
09/06/2013  08:48:00      -22.094      111.478        9.829       47.056       95.261       45.321     2214.255     9074.585     2053.953        1.317        0.667      113.646       51.548        0.206      342.333       17.668      864.918
09/06/2013  08:49:00     -127.258      114.599      -22.932       50.116       67.592       35.076     2511.566     4568.632     1230.315        1.908        0.416      171.253       33.847        0.039      341.972       17.054      864.931
09/06/2013  08:50:00      -37.100      131.144        1.623       42.453       70.788       43.219     1802.277     5010.971     1867.867        1.363        0.434      136.291       34.879        0.065      342.419       17.815      864.912
09/06/2013  08:51:00       25.716       39.553       15.793       50.551       41.529       28.341     2555.410     1724.686      803.203        0.378        0.254       47.178       19.439        0.170      342.614       18.146      864.914
09/06/2013  08:52:00       19.658       91.647       -2.853       53.437       50.546       35.963     2855.471     2554.856     1293.363        0.775        0.335       93.732       34.640        0.137      342.436       17.844      864.909
09/06/2013  08:53:00       33.904       70.844        1.897       38.659       39.882       30.631     1494.486     1590.577      938.231        0.510        0.201       78.539       27.358        0.121      342.527       18.000      864.919
09/06/2013  08:54:00       86.421       82.549       18.740       66.897       47.110       48.213     4475.210     2219.374     2324.487        1.182        0.451      119.511       34.483        0.083      342.462       17.887      864.914
09/06/2013  08:55:00       94.093       72.957       17.548       55.774       43.676       39.821     3110.721     1907.604     1585.703        1.054        0.330      119.064       32.144        0.073      342.354       17.704      864.897
09/06/2013  08:56:00       75.393       49.010        9.331       60.624       39.009       37.462     3675.278     1521.703     1403.366        0.739        0.330       89.923       35.335        0.154      342.671       18.245      864.892
09/06/2013  08:57:00       44.295      113.834        5.779       56.631       77.857       44.678     3207.066     6061.730     1996.163        1.311        0.563      122.148       47.973        0.154      342.658       18.221      864.896
09/06/2013  08:58:00      -12.316       51.476       21.369       55.639       54.408       29.588     3095.711     2960.278      875.451        0.509        0.347       52.929       27.619        0.272      342.867       18.577      864.906
09/06/2013  08:59:00       20.860      109.770       -5.263       37.514       53.533       30.949     1407.303     2865.836      957.849        0.887        0.262      111.734       28.966        0.067      342.955       18.727      864.907
09/06/2013  09:00:00       16.587       96.115        4.799       31.445       63.102       44.173      988.802     3981.848     1951.222        0.823        0.346       97.536       46.052        0.223      342.679       18.257      864.911
09/06/2013  09:01:00       19.268       22.175       29.400       33.832       37.595       23.543     1144.579     1413.376      554.258        0.242        0.156       29.377       12.609        0.184      342.750       18.378      864.899
09/06/2013  09:02:00      -24.423      128.934       -4.680       46.206      109.528       35.660     2135.001    11996.480     1271.663        1.632        0.770      131.227       38.629        0.087      342.629       18.169      864.900
09/06/2013  09:03:00     -108.980      212.196      -26.744       46.727       54.761       44.545     2183.413     2998.721     1984.213        3.239        0.358      238.545       31.535        0.017      342.249       17.522      864.900
09/06/2013  09:04:00      -91.538      297.429      -30.751       78.318       70.688       31.055     6133.745     4996.864      964.383        5.494        0.605      311.196       30.712        0.010      342.214       17.463      864.897
09/06/2013  09:05:00       76.189      140.560      -15.599       38.820       67.670       33.784     1506.966     4579.257     1141.366        1.651        0.361      159.881       36.320        0.052      342.356       17.708      864.902
09/06/2013  09:06:00      -10.395       83.061       10.732       41.898       39.449       30.091     1755.402     1556.261      905.453        0.567        0.211       83.709       26.620        0.101      342.687       18.270      864.891
09/06/2013  09:07:00      -50.064      121.038       -9.052       42.845       52.490       38.536     1835.705     2755.203     1485.050        1.166        0.304      130.984       32.170        0.060      342.666       18.234      864.891
09/06/2013  09:08:00        6.209       73.037       20.678       37.034      116.471       45.302     1371.496    13565.452     2052.300        1.139        0.849       73.301       58.872        0.645      343.024       18.844      864.895
09/06/2013  09:09:00       -9.971      132.922       -3.489       39.325       77.823       38.437     1546.437     6056.369     1477.379        1.343        0.454      133.296       44.236        0.110      342.790       18.446      864.904
09/06/2013  09:10:00      -37.290       76.534        6.597       43.023       50.142       33.321     1850.945     2514.215     1110.307        0.638        0.274       85.135       35.004        0.169      343.007       18.816      864.902
09/06/2013  09:11:00      -97.247       91.779      -13.479       73.240       62.099       45.011     5364.055     3856.247     2025.968        1.465        0.562      133.718       51.798        0.150      342.622       18.160      864.890
09/06/2013  09:12:00      -69.689      134.236      -12.931       37.294       59.370       31.047     1390.815     3524.790      963.899        1.446        0.294      151.248       28.478        0.035      342.439       17.851      864.886
09/06/2013  09:13:00      -39.392      120.671       -7.911       36.708       88.687       35.777     1347.503     7865.427     1279.989        1.333        0.525      126.938       40.158        0.100      342.635       18.182      864.872
09/06/2013  09:14:00     -115.277      -13.683       -5.348       60.753       44.033       21.983     3690.950     1938.904      483.258        0.981        0.306      116.087       18.555        0.026      342.515       17.978      864.859
09/06/2013  09:15:00     -116.783      -21.174      -13.502       43.652       31.568       19.768     1905.500      996.566      390.766        0.878        0.165      118.687        7.072        0.004      342.386       17.758      864.854
09/06/2013  09:16:00      -85.549       40.158       -0.008       67.994       30.458       31.378     4623.168      927.709      984.588        0.773        0.327       94.505       39.887        0.178      342.918       18.665      864.859
09/06/2013  09:17:00      -19.503       20.267       19.230       27.460       52.331       24.994      754.043     2738.528      624.694        0.264        0.206       28.127       16.059        0.326      343.105       18.982      864.862
09/06/2013  09:18:00        4.565       -5.305       19.916       14.195       12.916       13.060      201.502      166.817      170.561        0.049        0.027        6.998        9.365        1.791      343.483       19.628      864.864
09/06/2013  09:19:00       51.204       27.077       14.271       48.614       29.639       28.869     2363.343      878.474      833.403        0.382        0.204       57.923       25.205        0.189      343.320       19.349      864.866
09/06/2013  09:20:00       26.078       44.314        0.366       30.439       40.416       27.647      926.553     1633.452      764.348        0.298        0.166       51.418       10.047        0.038      343.326       19.359      864.854
09/06/2013  09:21:00       -8.368       60.514       12.504       43.249       39.023       34.963     1870.516     1522.790     1222.412        0.425        0.231       61.089       29.345        0.231      343.349       19.399      864.860
09/06/2013  09:22:00      -21.909      106.755      -12.841       31.282       55.697       30.924      978.585     3102.146      956.310        0.854        0.252      108.980       29.310        0.072      343.059       18.905      864.851
09/06/2013  09:23:00      -39.180       43.339       12.580       47.718       52.339       29.420     2276.974     2739.390      865.559        0.473        0.294       58.424       20.275        0.120      343.304       19.322      864.840
09/06/2013  09:24:00       38.364      158.934      -17.030       53.098       93.649       41.168     2819.445     8770.162     1694.815        2.015        0.664      163.499       37.254        0.052      343.079       18.936      864.832
09/06/2013  09:25:00       -8.515       20.523       14.940       25.381       60.310       27.856      644.188     3637.320      775.934        0.289        0.253       22.219       35.527        2.557      343.368       19.430      864.834
09/06/2013  09:26:00       38.667      -83.267       25.104       41.547       67.660       47.434     1726.193     4577.846     2250.012        0.880        0.428       91.807       23.067        0.063      342.929       18.682      864.824
09/06/2013  09:27:00      118.328       63.682       34.225       60.971       31.057       39.821     3717.403      964.506     1585.677        1.275        0.313      134.376       23.682        0.031      342.906       18.643      864.821
09/06/2013  09:28:00      111.834       51.554       19.740       64.903       44.752       38.216     4212.350     2002.765     1460.468        1.161        0.384      123.145       28.251        0.053      343.222       19.181      864.822
09/06/2013  09:29:00       94.657       89.127       19.756       62.734       51.172       48.840     3935.602     2618.573     2385.322        1.311        0.447      130.014       37.852        0.085      343.084       18.947      864.825
09/06/2013  09:30:00      134.837       88.933       11.267       51.651       46.088       44.655     2667.821     2124.138     1994.078        1.650        0.339      161.524       17.931        0.012      343.125       19.016      864.822
09/06/2013  09:31:00       86.352       85.210       50.768       67.529       49.686       32.739     4560.194     2468.682     1071.812        1.270        0.405      121.316       23.398        0.037      342.975       18.761      864.827
09/06/2013  09:32:00       62.022       75.517       76.397       60.479       49.138       50.267     3657.743     2414.540     2526.746        1.199        0.430       97.722       32.859        0.113      342.782       18.431      864.835
09/06/2013  09:33:00       44.875       58.119       42.516       65.316       41.358       43.706     4266.229     1710.475     1910.237        0.754        0.394       73.428       22.682        0.095      343.174       19.099      864.831
09/06/2013  09:34:00       68.726      -59.564        5.989       49.404       53.209       34.191     2440.733     2831.211     1169.037        0.737        0.322       90.945       38.966        0.184      342.967       18.748      864.846
09/06/2013  09:35:00       64.317       57.422       59.934       74.444       71.838       44.370     5541.902     5160.722     1968.739        1.185        0.634       86.220       29.171        0.114      342.848       18.544      864.860
09/06/2013  09:36:00       94.082       50.629       24.472       49.669       82.526       35.076     2466.981     6810.556     1230.354        1.126        0.525      106.839       30.010        0.079      342.655       18.216      864.854
09/06/2013  09:37:00       81.353       48.496       67.683       83.420       80.582       48.313     6958.885     6493.475     2334.172        1.467        0.789       94.710       35.769        0.143      342.815       18.487      864.856
09/06/2013  09:38:00      137.063       73.205       40.497       68.226       41.461       59.609     4654.834     1719.018     3553.179        1.785        0.496      155.388       45.162        0.084      342.697       18.287      864.875
09/06/2013  09:39:00       60.409       46.529       10.532       27.169       19.176       25.006      738.138      367.714      625.285        0.383        0.087       76.251       12.541        0.027      342.653       18.214      864.874
09/06/2013  09:40:00       29.066       28.047       32.121       26.255       52.438       31.559      689.300     2749.748      995.975        0.355        0.222       40.391       21.933        0.295      343.026       18.848      864.859
09/06/2013  09:41:00       28.383       53.028       72.106       61.850       72.212       46.940     3825.379     5214.576     2203.384        1.003        0.562       60.146       47.269        0.618      342.976       18.763      864.834
09/06/2013  09:42:00       39.580       54.641       81.782       45.156       45.400       38.660     2039.086     2061.175     1494.583        0.842        0.280       67.470       23.638        0.123      342.784       18.435      864.812
09/06/2013  09:43:00       45.781       66.841       53.168       36.569       58.101       32.640     1337.319     3375.687     1065.341        0.758        0.289       81.017       27.605        0.116      342.900       18.633      864.800
09/06/2013  09:44:00       19.452       17.881       11.997       18.307       39.740       35.116      335.144     1579.304     1233.143        0.199        0.157       26.422       18.925        0.513      342.818       18.494      864.791
09/06/2013  09:45:00       35.396       -0.820       13.830       39.430       42.339       26.047     1554.700     1792.620      678.424        0.273        0.201       35.405       27.477        0.602      342.823       18.503      864.785
09/06/2013  09:46:00       54.594      -34.973        5.209       45.558       63.239       30.398     2075.521     3999.196      924.058        0.561        0.350       64.836       20.936        0.104      342.798       18.460      864.778
09/06/2013  09:47:00       10.167        8.988       51.830       31.057       55.445       37.378      964.564     3074.202     1397.112        0.415        0.272       13.570       29.712        4.794      343.597       19.821      864.768
09/06/2013  09:48:00       36.637      -61.080       28.137       58.761       79.755       35.146     3452.826     6360.870     1235.252        0.845        0.552       71.225       40.779        0.328      342.888       18.614      864.766
09/06/2013  09:49:00      121.103       71.441       47.832       72.416       39.511       43.233     5244.090     1561.127     1869.069        1.536        0.434      140.605       26.825        0.036      342.925       18.674      864.749
09/06/2013  09:50:00      125.696       95.184       54.317       39.072       35.152       39.054     1526.652     1235.694     1525.202        1.605        0.214      157.669       22.803        0.021      342.755       18.386      864.749
09/06/2013  09:51:00       83.841       56.950       15.008       44.747       55.858       36.467     2002.300     3120.071     1329.875        0.847        0.323      101.354       21.366        0.044      342.974       18.760      864.731
09/06/2013  09:52:00       14.042        0.102       18.854       25.843       49.632       27.500      667.856     2463.328      756.259        0.222        0.194       14.042       19.347        1.898      343.275       19.272      864.734
09/06/2013  09:53:00       13.754      -20.066       34.561       32.226       44.471       32.437     1038.489     1977.641     1052.130        0.293        0.203       24.327       12.466        0.263      343.381       19.452      864.727
09/06/2013  09:54:00      109.676       81.563       63.272       59.841       46.852       40.480     3580.889     2195.092     1638.618        1.505        0.371      136.679       26.790        0.038      343.060       18.907      864.732
09/06/2013  09:55:00       67.803       76.804       50.642       44.266       29.523       29.763     1959.487      871.608      885.849        0.839        0.186      102.451       15.273        0.022      342.920       18.667      864.738
09/06/2013  09:56:00      -17.172      122.787      -17.785       42.018       40.793       33.496     1765.503     1664.101     1121.994        1.012        0.228      123.982       16.888        0.019      343.105       18.983      864.746
09/06/2013  09:57:00      -29.985       37.824       -3.534       38.366       39.995       24.788     1471.953     1599.594      614.464        0.301        0.184       48.267       17.300        0.128      343.243       19.217      864.741
09/06/2013  09:58:00      -66.980       30.621       -3.146       25.353       24.303       17.741      642.792      590.627      314.755        0.349        0.077       73.648       10.257        0.019      342.936       18.695      864.729
09/06/2013  09:59:00      -64.891       43.727      -16.921       25.134       27.884       18.142      631.714      777.500      329.118        0.407        0.087       78.249       12.718        0.026      342.991       18.789      864.716
09/06/2013  10:00:00       -6.860        2.572        4.744       32.377       30.770       19.338     1048.255      946.780      373.946        0.122        0.118        7.327        9.736        1.766      343.690       19.979      864.701
09/06/2013  10:01:00       20.167      -16.223       11.902       31.300       29.236       34.868      979.678      854.717     1215.805        0.193        0.153       25.882       26.086        1.016      343.498       19.654      864.680
09/06/2013  10:02:00       10.012      -69.980        3.491       33.580       43.736       31.428     1127.645     1912.870      987.742        0.452        0.201       70.692       23.269        0.108      343.449       19.569      864.665
09/06/2013  10:03:00       51.109      -58.235        4.910       39.858       62.029       30.005     1588.627     3847.637      900.289        0.618        0.317       77.482       32.792        0.179      343.314       19.338      864.655
09/06/2013  10:04:00        8.747       -3.042       39.234       27.962       48.628       28.963      781.849     2364.713      838.833        0.280        0.199        9.261       25.099        7.345      343.975       20.466      864.645
09/06/2013  10:05:00       52.053       12.675       51.386       65.183       64.481       43.044     4248.816     4157.858     1852.815        0.788        0.513       53.574       17.308        0.104      343.723       20.037      864.632
09/06/2013  10:06:00      114.596       57.825       34.925       88.566       50.745       45.201     7843.909     2575.087     2043.099        1.508        0.623      128.359       46.377        0.131      343.532       19.709      864.629
09/06/2013  10:07:00      113.989       54.232       45.248       84.119       59.641       52.734     7076.035     3556.994     2780.903        1.570        0.671      126.232       55.586        0.194      343.099       18.970      864.618
09/06/2013  10:08:00      118.846      102.055       64.278       47.093       25.716       40.922     2217.735      661.335     1674.596        1.661        0.228      156.651       22.136        0.020      342.920       18.667      864.609
09/06/2013  10:09:00       66.404       52.222       29.092       48.253       29.094       33.694     2328.337      846.439     1135.258        0.615        0.216       84.478       26.265        0.097      343.088       18.953      864.594
09/06/2013  10:10:00        6.689      -20.562       25.252       30.290       47.557       22.490      917.460     2261.630      505.812        0.239        0.184       21.623       20.501        0.899      343.445       19.562      864.593
09/06/2013  10:11:00       61.657       45.239       13.508       35.259       46.666       28.953     1243.199     2177.759      838.299        0.514        0.213       76.474       17.355        0.052      343.513       19.678      864.584
09/06/2013  10:12:00       74.769      109.408       -7.319       33.630       35.642       38.962     1130.953     1270.334     1518.074        1.077        0.196      132.516       29.838        0.051      343.305       19.323      864.588
09/06/2013  10:13:00       16.987       40.625       32.991       54.396       31.841       47.229     2958.880     1013.842     2230.573        0.461        0.310       44.033       32.443        0.543      343.825       20.209      864.573
09/06/2013  10:14:00      -31.680       21.863       14.152       27.899       35.063       22.434      778.350     1229.379      503.296        0.210        0.126       38.492       17.054        0.196      343.520       19.690      864.568
09/06/2013  10:15:00      -58.704      -39.856       -1.237       31.769       36.107       23.785     1009.248     1303.699      565.712        0.396        0.144       70.955       22.005        0.096      343.159       19.075      864.549
09/06/2013  10:16:00      -10.557      -60.843       20.528       32.436       67.627       30.299     1052.068     4573.357      918.021        0.539        0.327       61.752       33.329        0.291      343.687       19.974      864.533
09/06/2013  10:17:00       36.047      -13.463        6.647       50.868       32.729       23.059     2587.542     1071.199      531.729        0.286        0.210       38.479       23.514        0.373      343.763       20.104      864.523
09/06/2013  10:18:00       38.832      -42.890       21.052       38.180       68.719       37.491     1457.737     4722.313     1405.564        0.569        0.379       57.858       37.576        0.422      344.032       20.564      864.515
09/06/2013  10:19:00       27.536      -31.067       13.358       31.149       57.840       31.967      970.265     3345.445     1021.896        0.362        0.267       41.514       24.965        0.362      343.614       19.850      864.502
09/06/2013  10:20:00       31.841      -34.835       44.679       47.211       71.396       45.004     2228.836     5097.399     2025.390        0.679        0.468       47.195       45.553        0.932      343.819       20.200      864.487
09/06/2013  10:21:00       11.572       39.103       57.932       49.107       38.128       25.967     2411.508     1453.778      674.285        0.478        0.227       40.779       20.244        0.246      344.186       20.826      864.470
09/06/2013  10:22:00       73.595       91.390       90.815       72.223       69.375       44.861     5216.124     4812.898     2012.500        1.703        0.602      117.338       30.658        0.068      343.885       20.311      864.473
09/06/2013  10:23:00       75.453       79.761       66.064       66.208       83.109       53.184     4383.525     6907.033     2828.528        1.527        0.706      109.795       50.149        0.209      343.896       20.330      864.462
09/06/2013  10:24:00       40.612       13.068       21.834       56.190       64.517       52.353     3157.284     4162.471     2740.828        0.618        0.503       42.663       38.711        0.823      344.257       20.949      864.482
09/06/2013  10:25:00       56.291       37.205       27.687       51.070       35.137       27.946     2608.112     1234.596      781.003        0.497        0.231       67.475       25.886        0.147      344.376       21.151      864.486
09/06/2013  10:26:00       40.564       18.256        2.565       46.987       53.295       29.573     2207.772     2840.346      874.586        0.395        0.296       44.483       28.667        0.415      344.088       20.658      864.484
09/06/2013  10:27:00       36.131        8.326       23.869       37.583       39.249       28.558     1412.497     1540.492      815.557        0.286        0.188       37.078        7.574        0.042      344.240       20.918      864.485
09/06/2013  10:28:00       33.063       29.188       76.276       54.720       57.386       48.075     2994.231     3293.123     2311.190        0.818        0.430       44.103       36.399        0.681      344.314       21.045      864.466
09/06/2013  10:29:00       58.156      -34.016       45.557       70.722       67.228       45.979     5001.665     4519.594     2114.094        0.912        0.582       67.374       53.971        0.642      344.007       20.521      864.467
09/06/2013  10:30:00       13.749      -36.180       21.398       32.624       46.186       33.927     1064.300     2133.102     1151.052        0.315        0.217       38.704       13.276        0.118      343.876       20.297      864.453
09/06/2013  10:31:00        9.787      -76.994      -21.495       40.598       35.588       22.547     1648.213     1266.529      508.360        0.495        0.171       77.613       17.725        0.052      343.885       20.313      864.454
09/06/2013  10:32:00        6.621       -6.140       34.735       34.674       43.574       36.691     1202.282     1898.676     1346.213        0.287        0.222        9.030       22.677        6.307      344.431       21.245      864.451
09/06/2013  10:33:00       11.866      -43.625       48.968       51.888       96.724       43.799     2692.403     9355.453     1918.389        0.920        0.698       45.210       51.775        1.311      343.925       20.381      864.457
09/06/2013  10:34:00       33.246       -7.867       42.926       44.331       55.891       29.321     1965.246     3123.759      859.746        0.448        0.297       34.165       20.462        0.359      343.862       20.274      864.448
09/06/2013  10:35:00       34.909      -71.727       14.752       32.349       45.548       37.474     1046.461     2074.619     1404.333        0.555        0.226       79.771       25.588        0.103      343.708       20.011      864.436
09/06/2013  10:36:00       33.723      -70.439       35.021       44.469       54.567       39.698     1977.506     2977.550     1575.899        0.693        0.327       78.095       24.974        0.102      343.943       20.413      864.416
09/06/2013  10:37:00       78.361       62.734       41.843       67.041       71.611       47.676     4494.502     5128.167     2272.969        1.186        0.595      100.379       38.491        0.147      344.151       20.767      864.403
09/06/2013  10:38:00       77.103       77.275       47.587       54.475       56.912       43.698     2967.491     3239.011     1909.509        1.115        0.406      109.162       30.926        0.080      344.242       20.923      864.398
09/06/2013  10:39:00       65.240       36.294       29.252       74.117       80.431       41.668     5493.258     6469.155     1736.207        1.006        0.685       74.656       16.954        0.052      344.379       21.156      864.388
09/06/2013  10:40:00        5.148       -3.020       35.604       32.978       43.615       26.048     1087.520     1902.257      678.507        0.249        0.183        5.968       20.606       11.920      344.475       21.320      864.392
09/06/2013  10:41:00       71.426       69.920       82.555       83.310       68.077       45.644     6940.544     4634.411     2083.406        1.523        0.683       99.952       35.722        0.128      343.916       20.364      864.371
09/06/2013  10:42:00       61.096       12.328       35.023       82.438      113.400       47.074     6795.978    12859.581     2215.956        1.349        1.094       62.327       65.937        1.119      343.669       19.943      864.381
09/06/2013  10:43:00       59.731      -60.834        9.800       38.793       53.160       30.044     1504.888     2825.997      902.632        0.630        0.262       85.256       38.574        0.205      343.844       20.243      864.371
09/06/2013  10:44:00       18.406      -23.818       30.744       38.298       56.883       32.979     1466.770     3235.721     1087.620        0.382        0.290       30.101       32.547        1.169      344.084       20.652      864.363
09/06/2013  10:45:00       36.320       15.716        8.070       38.356       47.137       29.420     1471.212     2221.902      865.512        0.309        0.228       39.575       20.450        0.267      343.660       19.929      864.356
09/06/2013  10:46:00       71.708       89.429       32.270       60.649       51.049       39.550     3678.337     2606.025     1564.171        1.101        0.392      114.628       33.057        0.083      343.792       20.154      864.337
09/06/2013  10:47:00       -6.439      -38.966      -11.722       29.984       45.933       38.336      899.027     2109.795     1469.626        0.309        0.224       39.494       13.400        0.115      343.875       20.296      864.337
09/06/2013  10:48:00       49.196       19.540       23.324       50.665       32.338       28.970     2566.986     1045.718      839.263        0.390        0.223       52.934       25.488        0.232      344.620       21.568      864.336
09/06/2013  10:49:00      151.725       94.213       17.512       34.272       31.465       40.314     1174.551      990.070     1625.182        1.800        0.189      178.596       15.491        0.008      343.926       20.382      864.319
09/06/2013  10:50:00      177.104      107.095       20.352       73.131       57.803       51.834     5348.183     3341.214     2686.797        2.731        0.569      206.967       40.291        0.038      343.819       20.196      864.313
09/06/2013  10:51:00       61.846      115.057      -13.982       42.497       54.083       42.859     1805.998     2924.988     1836.867        1.191        0.328      130.626       40.873        0.098      343.831       20.221      864.291
09/06/2013  10:52:00       -7.416       96.710        7.804       34.383       63.226       37.212     1182.160     3997.540     1384.752        0.802        0.328       96.994       35.554        0.134      344.326       21.064      864.271
09/06/2013  10:53:00       20.573       19.962       -9.675       44.001       97.973       37.966     1936.093     9598.722     1441.391        0.694        0.649       28.666       33.924        1.400      344.141       20.749      864.258
09/06/2013  10:54:00       34.709      -16.558       14.488       34.902       62.314       32.811     1218.159     3882.985     1076.573        0.393        0.309       38.456       26.256        0.466      344.304       21.027      864.230
09/06/2013  10:55:00       52.067       43.138       16.858       39.825       31.672       33.399     1586.062     1003.147     1115.527        0.428        0.185       67.615       21.971        0.106      344.651       21.622      864.245
09/06/2013  10:56:00        5.042       -2.657       20.045       42.329       29.931       30.077     1791.763      895.863      904.644        0.201        0.180        5.699       19.267       11.428      344.936       22.109      864.249
09/06/2013  10:57:00       -1.486       36.557       44.292       24.277       44.945       44.039      589.372     2020.011     1939.464        0.392        0.227       36.587        7.871        0.046      344.738       21.771      864.252
09/06/2013  10:58:00       72.783     -145.907       -9.026       72.191       99.079       52.364     5211.522     9816.666     2742.023        2.222        0.889      163.053       55.130        0.114      344.266       20.962      864.260
09/06/2013  10:59:00       31.447      -28.874       23.569       63.697       47.508       38.955     4057.311     2257.011     1517.513        0.510        0.392       42.692       28.365        0.441      344.644       21.611      864.257
09/06/2013  11:00:00       -3.305      -71.415        4.691       55.685       74.197       27.472     3100.825     5505.162      754.715        0.724        0.468       71.491       18.691        0.068      344.246       20.928      864.257
09/06/2013  11:01:00       46.046      -49.742       12.950       45.922       44.764       29.590     2108.820     2003.830      875.560        0.487        0.249       67.783       27.446        0.164      344.187       20.829      864.237
09/06/2013  11:02:00       37.384        7.858       29.522       52.209       34.768       36.224     2725.766     1208.833     1312.173        0.379        0.262       38.201       34.351        0.809      344.618       21.565      864.223
09/06/2013  11:03:00        6.895       20.015       29.606       24.560       28.057       19.929      603.174      787.208      397.183        0.156        0.089       21.169       18.111        0.732      344.825       21.920      864.215
09/06/2013  11:04:00       57.010       30.397       25.328       72.638       39.794       28.420     5276.239     1583.535      807.706        0.624        0.383       64.608       30.646        0.225      345.056       22.315      864.202
09/06/2013  11:05:00      109.656       66.084       20.553       73.593       40.388       40.308     5415.865     1631.231     1624.749        1.274        0.434      128.030       24.809        0.038      344.553       21.454      864.205
09/06/2013  11:06:00       22.610       68.940        2.105       35.046       49.969       36.576     1228.250     2496.949     1337.820        0.516        0.253       72.553       20.325        0.078      344.492       21.350      864.206
09/06/2013  11:07:00      124.427       84.170       10.525       60.875       37.846       40.244     3705.708     1432.316     1619.577        1.472        0.338      150.222       19.045        0.016      344.266       20.962      864.207
09/06/2013  11:08:00       95.364       85.066       16.358       59.427       41.317       47.437     3531.531     1707.134     2250.265        1.204        0.374      127.791       32.736        0.066      344.443       21.264      864.205
09/06/2013  11:09:00       57.735       68.083       76.904       87.476       64.667       38.337     7651.972     4181.795     1469.707        1.359        0.665       89.267       35.358        0.157      344.957       22.145      864.201
09/06/2013  11:10:00       42.255       -5.409       21.800       36.475       41.479       33.601     1330.452     1720.490     1129.018        0.323        0.209       42.600       25.505        0.358      344.429       21.243      864.207
09/06/2013  11:11:00       46.437       88.447       77.780       63.827       47.162       54.724     4073.870     2224.211     2994.717        1.266        0.465       99.896       37.025        0.137      344.934       22.105      864.191
09/06/2013  11:12:00       99.902      116.168       77.252       66.596       41.476       64.713     4434.995     1720.294     4187.734        1.989        0.517      153.217       55.888        0.133      344.257       20.946      864.193
09/06/2013  11:13:00       55.830       10.200       39.614       64.622       68.216       50.588     4176.041     4653.452     2559.112        0.809        0.569       56.755       46.711        0.677      344.490       21.347      864.198
09/06/2013  11:14:00       39.889      -72.940       -9.608       22.680       25.477       21.508      514.380      649.065      462.595        0.431        0.081       83.135       15.582        0.035      344.482       21.332      864.175
09/06/2013  11:15:00        9.886        4.883       26.890       24.454       19.564       31.011      597.998      382.733      961.708        0.139        0.097       11.026       14.759        1.792      345.137       22.453      864.161
09/06/2013  11:16:00       -1.760       72.451        1.275       29.642       40.847       25.185      878.637     1668.461      634.302        0.422        0.159       72.472       23.604        0.106      344.707       21.718      864.137
09/06/2013  11:17:00        4.832       76.443      -14.864       41.731       38.721       22.744     1741.502     1499.278      517.281        0.492        0.188       76.595       14.149        0.034      344.238       20.914      864.109
09/06/2013  11:18:00      -14.023       47.207       17.301       29.897       50.850       29.168      893.858     2585.681      850.746        0.353        0.217       49.245       33.289        0.457      344.963       22.154      864.094
09/06/2013  11:19:00       -0.852       13.687       17.968       21.419       18.565       18.181      458.774      344.646      330.536        0.082        0.057       13.714        8.641        0.397      345.587       23.224      864.070
09/06/2013  11:20:00       35.229       38.073       73.163       56.349       37.366       40.517     3175.154     1396.204     1641.591        0.713        0.311       51.871       27.423        0.280      345.103       22.395      864.065
09/06/2013  11:21:00       80.675      -49.055       38.470       73.300      100.134       70.259     5372.876    10026.756     4936.288        1.536        1.017       94.419       73.572        0.607      344.617       21.562      864.033
09/06/2013  11:22:00       54.097       27.375       96.010       61.595       94.425       56.078     3793.916     8916.062     3144.763        1.437        0.793       60.629       55.877        0.849      345.049       22.301      864.019
09/06/2013  11:23:00       38.094       15.394       50.467       52.671       65.428       38.429     2774.203     4280.777     1476.820        0.638        0.427       41.086       28.549        0.483      345.215       22.586      864.016
09/06/2013  11:24:00      -19.459       63.612       34.577       41.642       31.481       30.361     1734.066      991.063      921.788        0.463        0.182       66.521       17.103        0.066      345.384       22.875      864.004
09/06/2013  11:25:00       44.504      100.130        2.912       46.122       46.728       33.893     2127.209     2183.488     1148.728        0.874        0.273      109.575       18.232        0.028      345.112       22.410      864.006
09/06/2013  11:26:00       27.663       42.761       10.823       53.425       52.130       36.154     2854.184     2717.543     1307.090        0.479        0.344       50.929       31.083        0.372      344.929       22.097      864.002
09/06/2013  11:27:00      105.002       89.416        3.850       46.854       44.920       42.627     2195.318     2017.804     1817.058        1.253        0.302      137.915       24.095        0.031      344.762       21.812      864.006
09/06/2013  11:28:00       92.237       68.444       15.757       46.592       42.623       32.060     2170.815     1816.689     1027.861        0.923        0.251      114.858       18.258        0.025      344.490       21.346      864.009
09/06/2013  11:29:00       35.244       25.693      -11.354       26.580       32.607       35.797      706.486     1063.217     1281.451        0.254        0.153       43.615       13.982        0.103      344.513       21.386      863.998
09/06/2013  11:30:00      -45.233        5.510       -5.674       32.880       46.800       21.522     1081.123     2190.196      463.212        0.292        0.187       45.568       19.947        0.192      344.550       21.449      863.973
09/06/2013  11:31:00      -12.097       51.333       -2.739       24.289       31.382       29.213      589.935      984.816      853.421        0.261        0.121       52.739       19.236        0.133      344.932       22.102      863.953
09/06/2013  11:32:00      -13.123       36.546       -0.434       22.612       40.663       24.890      511.290     1653.497      619.518        0.215        0.139       38.831       11.288        0.085      344.980       22.186      863.936
09/06/2013  11:33:00      -18.510      110.264      -16.643       45.825       45.851       25.920     2099.885     2102.321      671.831        0.882        0.244      111.807       18.563        0.028      344.740       21.774      863.919
09/06/2013  11:34:00      -62.150       56.004       -8.741       30.397       34.553       27.967      923.962     1193.938      782.161        0.499        0.145       83.660       25.943        0.096      345.099       22.388      863.894
09/06/2013  11:35:00       -9.118       24.971       16.519       30.094       46.930       29.131      905.657     2202.413      848.601        0.247        0.198       26.584       30.656        1.330      345.698       23.415      863.884
09/06/2013  11:36:00      -26.552       92.706       -3.114       36.846       50.806       40.924     1357.654     2581.212     1674.733        0.746        0.281       96.434       31.756        0.108      345.540       23.144      863.872
09/06/2013  11:37:00      -15.014       21.050       14.903       64.890       61.193       42.983     4210.771     3744.643     1847.519        0.534        0.490       25.856       32.173        1.548      345.597       23.242      863.853
09/06/2013  11:38:00      144.507      132.351       34.844      100.379       72.403       75.725    10076.008     5242.250     5734.202        3.033        1.053      195.957       57.189        0.085      345.000       22.215      863.859
09/06/2013  11:39:00      129.061      124.438       14.046      101.183       85.315       76.051    10237.989     7278.641     5783.753        2.781        1.165      179.281       61.577        0.118      345.055       22.309      863.845
09/06/2013  11:40:00      139.518       72.492       59.805      106.395       62.307       55.511    11319.994     3882.109     3081.433        2.329        0.914      157.227       37.306        0.056      345.170       22.508      863.843
09/06/2013  11:41:00      226.068       87.880       27.687       95.175       61.671       58.180     9058.286     3803.329     3384.922        3.792        0.812      242.549       46.198        0.036      344.820       21.906      863.836
09/06/2013  11:42:00      178.804      116.126       22.529       65.873       73.221       51.794     4339.293     5361.321     2682.649        2.917        0.619      213.205       39.161        0.034      344.785       21.847      863.827
09/06/2013  11:43:00      176.293      126.752       24.622       65.243       47.919       50.960     4256.643     2296.264     2596.961        2.845        0.457      217.130       19.774        0.008      344.864       21.982      863.815
09/06/2013  11:44:00      103.777       63.030        5.118       59.577       36.832       30.932     3549.450     1356.597      956.809        1.031        0.293      121.419       12.486        0.011      344.937       22.112      863.805
09/06/2013  11:45:00      124.056      104.312       30.030       66.858       48.306       49.287     4469.994     2333.445     2429.222        1.820        0.462      162.083       37.743        0.054      345.439       22.969      863.793
09/06/2013  11:46:00       22.094       94.536       -3.515       62.068       55.191       34.344     3852.435     3046.052     1179.516        0.876        0.404       97.083       24.958        0.066      345.360       22.835      863.784
09/06/2013  11:47:00        9.001       41.814       12.282       27.944       32.444       26.120      780.852     1052.627      682.255        0.225        0.126       42.772       18.389        0.185      345.635       23.308      863.777
09/06/2013  11:48:00       10.015       11.067       10.870       18.315       16.133       14.260      335.453      260.276      203.357        0.057        0.040       14.926       10.456        0.491      345.895       23.752      863.758
09/06/2013  11:49:00       10.756        9.363       35.339       27.911       20.374       15.665      779.047      415.109      245.406        0.145        0.072       14.260        9.759        0.468      345.927       23.807      863.760
09/06/2013  11:50:00       50.425       58.839       33.681       49.051       38.980       41.871     2405.962     1519.439     1753.180        0.641        0.284       77.491       32.197        0.173      345.407       22.916      863.743
09/06/2013  11:51:00       55.861       52.505       13.147       49.145       60.786       39.411     2415.205     3694.907     1553.199        0.686        0.383       76.663       27.527        0.129      345.277       22.692      863.717
09/06/2013  11:52:00       54.120       92.826        1.669       83.380       52.025       31.774     6952.297     2706.589     1009.602        1.111        0.533      107.451       26.704        0.062      345.515       23.101      863.691
09/06/2013  11:53:00      111.059       71.590        4.021       80.742       67.762       58.735     6519.259     4591.754     3449.766        1.602        0.728      132.134       32.957        0.062      345.802       23.592      863.662
09/06/2013  11:54:00      150.158      103.247       18.192       49.331       40.365       39.717     2433.534     1629.365     1577.426        1.959        0.282      182.229       14.742        0.007      345.129       22.438      863.664
09/06/2013  11:55:00      108.171       79.908       24.896       44.897       36.505       39.502     2015.744     1332.628     1560.410        1.181        0.245      134.485       17.917        0.018      344.948       22.130      863.654
09/06/2013  11:56:00       48.043       51.508       21.631       41.375       29.477       44.783     1711.850      868.910     2005.495        0.501        0.229       70.436       17.980        0.065      345.264       22.670      863.642
09/06/2013  11:57:00       74.898       80.024       37.678       69.746       36.512       59.458     4864.435     1333.147     3535.246        1.158        0.487      109.606       55.350        0.255      345.284       22.705      863.635
09/06/2013  11:58:00       65.499       89.800       10.553       60.057       39.981       33.691     3606.812     1598.454     1135.100        0.940        0.317      111.150       17.350        0.024      345.359       22.833      863.605
09/06/2013  11:59:00       65.008       63.660       15.722       55.830       34.680       38.514     3117.040     1202.677     1483.350        0.716        0.290       90.987       31.650        0.121      345.545       23.153      863.591
09/06/2013  12:00:00       32.711       24.756       16.503       26.802       24.696       29.871      718.370      609.901      892.269        0.209        0.111       41.022       14.663        0.128      345.471       23.023      863.563
09/06/2013  12:01:00       50.826       28.863       30.828       34.505       33.279       27.570     1190.577     1107.518      760.119        0.371        0.153       58.450       20.675        0.125      345.730       23.469      863.557
09/06/2013  12:02:00       38.305      -74.249        4.398       41.696       55.319       32.824     1738.524     3060.164     1077.409        0.644        0.294       83.547       24.893        0.089      345.641       23.317      863.548
09/06/2013  12:03:00       34.457        8.969       33.963       55.121       50.864       32.400     3038.300     2587.108     1049.784        0.455        0.334       35.605       24.670        0.480      345.962       23.867      863.532
09/06/2013  12:04:00       81.401       82.254       22.356       73.862       58.243       56.466     5455.574     3392.258     3188.359        1.296        0.602      115.723       37.239        0.104      345.575       23.203      863.531
09/06/2013  12:05:00      106.086      157.585       -2.371       77.075       61.419       46.498     5940.514     3772.342     2162.100        2.398        0.594      189.967       41.145        0.047      345.280       22.696      863.508
09/06/2013  12:06:00      113.751       76.591       24.657       85.793       60.838       47.388     7360.497     3701.268     2245.587        1.636        0.665      137.133       31.340        0.052      345.482       23.043      863.495
09/06/2013  12:07:00       51.394       72.363        7.600       59.907       58.997       39.455     3588.831     3480.588     1556.728        0.828        0.431       88.757       35.964        0.164      345.675       23.376      863.488
09/06/2013  12:08:00       15.276      114.803      -13.886       45.364       74.433       30.346     2057.909     5540.200      920.898        1.106        0.426      115.815       38.418        0.110      345.490       23.056      863.468
09/06/2013  12:09:00      -55.355       89.677      -19.325       32.611       50.406       33.423     1063.476     2540.753     1117.080        0.810        0.236      105.386       18.692        0.031      345.575       23.204      863.456
09/06/2013  12:10:00      -57.299       70.187       -9.798       38.558       43.837       29.959     1486.756     1921.703      897.560        0.630        0.215       90.605       27.503        0.092      345.595       23.239      863.432
09/06/2013  12:11:00      -54.431       17.177        2.926       27.055       26.020       30.089      731.963      677.015      905.334        0.279        0.116       57.077       17.911        0.098      345.606       23.258      863.416
09/06/2013  12:12:00       -5.126      -16.476       25.776       49.198       78.342       41.373     2420.429     6137.449     1711.722        0.561        0.513       17.255       46.955        7.406      346.314       24.473      863.391
09/06/2013  12:13:00      119.308     -162.127      -13.542       80.914       60.397       35.461     6547.045     3647.780     1257.507        2.608        0.573      201.295       44.850        0.050      345.350       22.815      863.374
09/06/2013  12:14:00       79.071     -112.152      -10.147       57.526       65.237       47.258     3309.237     4255.814     2233.278        1.436        0.490      137.223       44.593        0.106      345.450       22.988      863.356
09/06/2013  12:15:00       32.966       -4.361       38.457       29.853       32.009       36.718      891.177     1024.594     1348.178        0.292        0.163       33.254       27.474        0.683      346.184       24.251      863.333
09/06/2013  12:16:00       47.484       60.522       56.921       55.539       63.797       53.551     3084.621     4070.060     2867.670        0.959        0.501       76.927       42.073        0.299      346.047       24.014      863.309
09/06/2013  12:17:00       69.328       26.725       65.378      116.429       85.971       66.166    13555.703     7391.068     4377.994        1.755        1.266       74.301       53.668        0.522      346.161       24.209      863.282
09/06/2013  12:18:00       76.032      -51.833       18.107       73.244       67.246       49.740     5364.705     4521.966     2474.057        1.058        0.618       92.019       44.252        0.231      345.948       23.845      863.294
09/06/2013  12:19:00       45.643      -26.034       29.403       59.602       64.494       38.418     3552.340     4159.446     1475.912        0.640        0.459       52.546       44.117        0.705      345.974       23.890      863.289
09/06/2013  12:20:00       74.052       38.440       29.728       60.940       54.364       44.482     3713.716     2955.494     1978.679        0.824        0.432       83.435       32.872        0.155      346.203       24.282      863.274
09/06/2013  12:21:00       62.288       67.500       93.584       64.086       80.881       57.206     4107.056     6541.660     3272.522        1.555        0.696       91.848       51.346        0.313      346.188       24.255      863.260
09/06/2013  12:22:00       48.249       99.732      134.769       77.124       58.601       45.072     5948.164     3434.028     2031.528        2.092        0.571      110.790       42.795        0.149      345.949       23.845      863.231
09/06/2013  12:23:00       77.963       29.212       78.903       78.477       70.013       54.320     6158.588     4901.755     2950.646        1.358        0.701       83.256       53.265        0.409      345.990       23.915      863.223
09/06/2013  12:24:00      102.339       19.659       88.357       85.778       73.474       51.721     7357.797     5398.496     2675.093        1.705        0.772      104.210       42.633        0.167      345.881       23.729      863.211
09/06/2013  12:25:00       94.447       51.906       75.659       79.205       57.567       45.565     6273.474     3313.909     2076.146        1.450        0.583      107.770       45.128        0.175      345.900       23.762      863.199
09/06/2013  12:26:00       57.086       97.514       85.070       81.773       60.192       61.103     6686.862     3623.132     3733.544        1.702        0.702      112.994       44.708        0.157      346.149       24.188      863.184
09/06/2013  12:27:00       74.218       55.596       66.777       66.370       51.281       51.093     4404.947     2629.739     2610.486        1.135        0.482       92.732       28.516        0.095      346.009       23.949      863.197
09/06/2013  12:28:00       -1.217       -1.523       19.213       36.786       27.454       25.762     1353.211      753.725      663.660        0.157        0.139        1.950       26.732      187.965      346.008       23.947      863.179
09/06/2013  12:29:00       68.486       58.878       17.302       69.437       44.358       34.945     4821.436     1967.632     1221.120        0.823        0.401       90.316       32.955        0.133      346.106       24.113      863.166
09/06/2013  12:30:00      130.056      106.005       37.617       67.598       40.666       44.319     4569.433     1653.702     1964.208        1.888        0.409      167.784       28.957        0.030      345.964       23.871      863.162
09/06/2013  12:31:00      -10.267      108.421       -9.448       40.790       69.607       25.307     1663.858     4845.085      640.442        0.955        0.357      108.906       31.012        0.081      345.730       23.469      863.136
09/06/2013  12:32:00       24.614       49.334       15.498       39.331       61.889       28.693     1546.902     3830.244      823.262        0.474        0.310       55.134       30.866        0.313      346.389       24.602      863.109
09/06/2013  12:33:00       27.953       37.627       44.668       41.628       41.101       45.467     1732.902     1689.271     2067.222        0.484        0.274       46.873       27.247        0.338      346.338       24.514      863.109
09/06/2013  12:34:00       54.117      -14.647       26.449       56.591       44.553       28.529     3202.553     1984.931      813.878        0.492        0.300       56.064       20.894        0.139      346.393       24.607      863.092
09/06/2013  12:35:00       56.403       67.764       58.009       67.122       54.132       39.265     4505.388     2930.279     1541.717        1.006        0.449       88.166       36.959        0.176      346.497       24.788      863.067
09/06/2013  12:36:00      107.411       70.760       14.920       76.372       53.972       35.634     5832.634     2912.969     1269.803        1.339        0.501      128.624       31.377        0.060      346.129       24.153      863.046
09/06/2013  12:37:00      135.855       50.377        5.493       79.207       48.986       44.756     6273.827     2399.668     2003.126        1.585        0.534      144.894       24.427        0.028      345.864       23.699      863.046
09/06/2013  12:38:00      164.633       88.426       40.795       70.208       73.250       59.505     4929.137     5365.633     3540.889        2.521        0.692      186.878       35.230        0.036      345.949       23.843      863.026
09/06/2013  12:39:00      130.226       32.762       23.294       74.462       93.140       60.494     5544.602     8675.009     3659.525        1.822        0.894      134.284       50.782        0.143      345.995       23.923      863.009
09/06/2013  12:40:00      190.398      104.547       74.547      102.349       84.166       72.076    10475.353     7083.941     5195.011        3.774        1.138      217.213       52.126        0.058      346.085       24.075      862.986
09/06/2013  12:41:00      179.106      119.679       44.339      102.223       64.419       57.051    10449.611     4149.860     3254.801        3.311        0.893      215.411       30.178        0.020      346.246       24.353      862.973
09/06/2013  12:42:00      214.814      141.185       31.126       84.178       72.238       53.219     7085.932     5218.328     2832.305        4.109        0.757      257.057       40.245        0.025      346.218       24.303      862.969
09/06/2013  12:43:00      152.693       97.156       49.604      109.179       55.769       61.123    11920.066     3110.143     3735.960        2.699        0.938      180.982       48.132        0.071      346.620       24.997      862.940
09/06/2013  12:44:00      166.044       90.261       18.198       77.479       60.877       57.646     6003.065     3706.029     3323.075        2.454        0.652      188.992       35.541        0.035      346.300       24.444      862.936
09/06/2013  12:45:00       55.870       72.497       -0.580       48.058       52.900       32.641     2309.570     2798.392     1065.423        0.727        0.309       91.527       20.818        0.052      346.244       24.354      862.924
09/06/2013  12:46:00       27.494       27.350       26.397       41.088       35.164       20.412     1688.261     1236.489      416.633        0.277        0.167       38.780       14.186        0.134      346.603       24.970      862.894
09/06/2013  12:47:00       78.971        2.763        6.003       49.139       69.978       40.901     2414.631     4896.921     1672.865        0.763        0.449       79.019       37.924        0.230      346.432       24.675      862.875
09/06/2013  12:48:00       50.558       -5.294       16.945       37.718       58.119       39.248     1422.616     3377.807     1540.377        0.460        0.317       50.835       36.963        0.529      346.545       24.869      862.863
09/06/2013  12:49:00       18.384       42.004       48.257       39.508       27.719       32.873     1560.897      768.333     1080.606        0.392        0.170       45.852       20.396        0.198      346.861       25.413      862.855
09/06/2013  12:50:00       13.984       36.829       12.555       27.862       28.250       24.298      776.266      798.089      590.416        0.194        0.108       39.395       13.735        0.122      346.550       24.879      862.840
09/06/2013  12:51:00       -0.561       20.679       31.345       18.017       31.546       17.149      324.616      995.151      294.097        0.151        0.081       20.686        5.540        0.072      347.376       26.299      862.830
09/06/2013  12:52:00       -7.243       53.740       20.680       30.717       42.226       31.855      943.509     1783.013     1014.766        0.355        0.187       54.226       26.789        0.244      347.080       25.791      862.812
09/06/2013  12:53:00      156.808       81.394       39.384      122.531       69.060       59.032    15013.781     4769.314     3484.723        2.801        1.163      176.674       14.264        0.007      346.874       25.433      862.801
09/06/2013  12:54:00      117.402      102.329       68.239      111.808       94.291       75.589    12500.952     8890.823     5713.642        2.800        1.355      155.738       41.962        0.073      346.842       25.380      862.788
09/06/2013  12:55:00       -0.683       53.869       -1.768       55.852       43.027       29.445     3119.448     1851.295      867.003        0.437        0.292       53.873       18.429        0.117      346.672       25.088      862.783
09/06/2013  12:56:00       58.887       82.257        7.297       61.410       47.081       38.063     3771.205     2216.665     1448.810        0.886        0.372      101.163       29.827        0.087      346.781       25.274      862.754
09/06/2013  12:57:00       61.936       51.190       12.299       49.475       52.197       35.826     2447.796     2724.556     1283.467        0.653        0.323       80.352       25.210        0.098      346.683       25.107      862.745
09/06/2013  12:58:00       98.199       92.467       75.703       97.300       82.486       58.669     9467.255     6804.022     3442.051        2.181        0.986      134.882       49.113        0.133      346.603       24.968      862.723
09/06/2013  12:59:00      215.400      125.640       97.234      125.787      105.039       84.659    15822.444    11033.278     7167.221        5.282        1.701      249.365       72.590        0.085      346.362       24.551      862.695
09/06/2013  13:00:00       28.686      120.125       -0.627       86.118       90.804       53.173     7416.333     8245.339     2827.372        1.687        0.924      123.503       50.191        0.165      346.450       24.705      862.696
09/06/2013  13:01:00       63.443      151.771      -13.598       76.569       74.872       46.244     5862.765     5605.852     2138.465        2.042        0.680      164.497       39.974        0.059      346.464       24.727      862.686
09/06/2013  13:02:00      151.130      109.365        9.189       71.255       61.176       46.891     5077.306     3742.464     2198.772        2.295        0.551      186.550       37.465        0.040      346.577       24.923      862.664
09/06/2013  13:03:00      222.627      150.867       40.962       86.211       84.025       70.644     7432.368     7060.210     4990.632        4.674        0.974      268.931       41.983        0.024      346.693       25.120      862.651
09/06/2013  13:04:00      217.687      108.133       46.444       57.604       52.079       48.345     3318.223     2712.252     2337.205        3.480        0.418      243.064       31.073        0.016      346.519       24.820      862.655
09/06/2013  13:05:00       14.893       51.798       48.554       60.093       47.385       39.665     3611.146     2245.305     1573.330        0.634        0.371       53.896       29.641        0.302      346.932       25.536      862.625
09/06/2013  13:06:00      104.819      104.441       21.157       91.225       53.653       46.027     8321.969     2878.691     2118.497        1.783        0.666      147.970       30.358        0.042      346.774       25.263      862.626
09/06/2013  13:07:00      113.652       96.120       -5.215       92.752       83.318       42.498     8602.998     6941.904     1806.105        1.976        0.868      148.848       30.753        0.043      346.526       24.835      862.629
09/06/2013  13:08:00      -56.946       25.149       -4.597       56.483       85.190       31.804     3190.292     7257.314     1011.498        0.768        0.573       62.252       33.286        0.286      346.659       25.066      862.604
09/06/2013  13:09:00     -122.661      -43.116      -14.493      104.503       57.636       37.584    10920.916     3321.953     1412.552        1.638        0.783      130.018       39.811        0.094      346.725       25.177      862.549
09/06/2013  13:10:00       72.511      -12.372       34.184       70.180       58.108       47.450     4925.165     3376.564     2251.546        0.856        0.528       73.559       42.636        0.336      346.960       25.584      862.553
09/06/2013  13:11:00      -20.632       65.287       29.903       52.234       61.149       61.214     2728.437     3739.192     3747.121        0.790        0.511       68.469       34.004        0.247      347.123       25.864      862.531
09/06/2013  13:12:00       17.798       31.385        5.707       48.294       36.087       24.022     2332.344     1302.297      577.061        0.277        0.211       36.081       12.324        0.117      347.319       26.203      862.519
09/06/2013  13:13:00       53.668        6.311       12.501       58.192       61.724       29.131     3386.330     3809.810      848.604        0.556        0.402       54.038       24.876        0.212      347.521       26.550      862.511
09/06/2013  13:14:00       86.270       26.179       43.125       57.311       96.177       53.087     3284.592     9250.109     2818.219        1.267        0.768       90.155       48.489        0.289      347.162       25.932      862.491
09/06/2013  13:15:00       94.151      -82.304       22.281       80.496       85.988       64.365     6479.605     7393.978     4142.822        1.707        0.901      125.053       68.276        0.298      347.268       26.114      862.468
09/06/2013  13:16:00       52.991       26.635       56.420       79.671       91.145       62.751     6347.445     8307.476     3937.634        1.264        0.930       59.308       49.572        0.699      347.338       26.235      862.469
09/06/2013  13:17:00      138.703     -188.654      -23.093      103.454      133.442       71.075    10702.817    17806.850     5051.710        4.445        1.678      234.155       95.039        0.165      347.151       25.909      862.467
09/06/2013  13:18:00      129.139     -210.639      -54.865       71.733       67.899       47.261     5145.637     4610.221     2233.628        3.802        0.599      247.074       37.461        0.023      346.969       25.595      862.452
09/06/2013  13:19:00       71.544      -60.980       18.918       60.304       68.248       53.536     3636.625     4657.761     2866.151        1.018        0.558       94.006       40.517        0.186      347.018       25.685      862.458
09/06/2013  13:20:00       52.085     -136.341        1.331       48.380       35.247       30.464     2340.664     1242.331      928.030        1.291        0.226      145.951       25.646        0.031      346.956       25.575      862.449
09/06/2013  13:21:00       23.778      -76.298        5.102       28.149       41.375       30.985      792.383     1711.850      960.096        0.494        0.173       79.917       16.847        0.044      347.088       25.803      862.433
09/06/2013  13:22:00       16.488      -59.986        2.869       28.023       40.533       31.012      785.289     1642.957      961.727        0.363        0.169       62.211       25.136        0.163      347.479       26.478      862.419
09/06/2013  13:23:00        2.508      -10.499       32.058       17.297       42.959       26.929      299.201     1845.514      725.160        0.201        0.143       10.794       28.377        6.911      347.713       26.883      862.422
09/06/2013  13:24:00       74.072      -19.560       40.407       55.145       48.396       36.468     3040.997     2342.128     1329.951        0.711        0.336       76.611       29.574        0.149      347.204       26.004      862.425
09/06/2013  13:25:00       37.914       29.956       39.082       69.337       75.560       53.152     4807.678     5709.243     2825.146        0.860        0.667       48.320       45.612        0.891      347.428       26.389      862.396
09/06/2013  13:26:00      177.871       74.696       36.756      122.794       96.549       62.981    15078.444     9321.699     3966.657        3.346        1.418      192.918       54.613        0.080      347.039       25.716      862.407
09/06/2013  13:27:00      238.104      159.109       53.315      107.527       83.673       61.580    11562.129     7001.127     3792.073        5.360        1.118      286.372       31.352        0.012      347.157       25.918      862.398
09/06/2013  13:28:00      235.486       94.888       28.000       81.594       64.227       58.254     6657.659     4125.070     3393.529        3.971        0.709      253.885       28.676        0.013      347.116       25.848      862.403
09/06/2013  13:29:00      151.028       88.919       27.716       42.260       40.376       36.906     1785.878     1630.245     1362.032        1.813        0.239      175.260       21.643        0.015      346.929       25.529      862.398
09/06/2013  13:30:00       11.863       83.747       -6.982       86.627       52.956       35.198     7504.266     2804.375     1238.873        0.937        0.577       84.583       17.373        0.042      346.924       25.522      862.386
09/06/2013  13:31:00      -61.411       20.197      -29.882       54.521       50.683       22.629     2972.540     2568.783      512.051        0.556        0.303       64.647       17.233        0.071      346.856       25.404      862.362
09/06/2013  13:32:00      -67.925      -33.638        0.432       25.710       39.441       28.065      661.022     1555.576      787.671        0.437        0.150       75.797       15.399        0.041      346.960       25.584      862.332
09/06/2013  13:33:00        0.385       23.385       23.262       30.758       34.942       19.736      946.052     1220.962      389.519        0.182        0.128       23.388       12.129        0.269      347.722       26.897      862.314
09/06/2013  13:34:00       48.733       51.462       28.317       28.881       37.418       30.838      834.137     1400.106      950.967        0.450        0.159       70.874       24.707        0.122      347.506       26.525      862.306
09/06/2013  13:35:00      168.574     -186.337      -22.914      102.332      141.066       44.279    10471.892    19899.600     1960.603        4.799        1.617      251.274       69.437        0.076      347.037       25.715      862.283
09/06/2013  13:36:00      135.401     -126.683       16.240      103.113      143.024       74.222    10632.271    20455.736     5508.885        3.561        1.830      185.424      104.624        0.318      347.291       26.153      862.242
09/06/2013  13:37:00       51.058      -55.398        7.597       36.431       30.902       35.620     1327.225      954.911     1268.756        0.464        0.178       75.338       19.160        0.065      347.212       26.016      862.240
09/06/2013  13:38:00       -9.576      -26.174       -1.123       29.562       35.029       19.854      873.905     1227.041      394.167        0.164        0.125       27.870        6.740        0.058      347.651       26.775      862.223
09/06/2013  13:39:00      -29.665      -82.177        7.382       42.326       74.680       30.507     1791.494     5577.162      930.704        0.799        0.415       87.368       22.348        0.065      347.756       26.956      862.202
09/06/2013  13:40:00      -23.127      -10.144       41.780       44.636       44.827       24.916     1992.402     2009.471      620.784        0.350        0.231       25.254       11.360        0.202      347.717       26.888      862.183
09/06/2013  13:41:00       -5.072      -99.723      -12.243       43.979       55.938       36.566     1934.113     3129.053     1337.041        0.826        0.320       99.852       28.725        0.083      347.739       26.927      862.173
09/06/2013  13:42:00       24.571      -40.263       24.160       48.816       49.743       36.480     2382.961     2474.395     1330.758        0.450        0.309       47.168       24.549        0.271      347.947       27.285      862.158
09/06/2013  13:43:00      -13.974     -131.724       -3.866       61.630       59.955       32.793     3798.316     3594.610     1075.382        1.301        0.423      132.463       33.279        0.063      347.687       26.836      862.145
09/06/2013  13:44:00      -36.754      -10.161       26.629       41.867       34.519       33.876     1752.881     1191.573     1147.589        0.313        0.205       38.132       29.320        0.591      347.873       27.159      862.123
09/06/2013  13:45:00       26.030       50.223       64.883       35.768       37.376       26.015     1279.358     1397.000      676.781        0.538        0.168       56.568       22.803        0.162      347.748       26.942      862.123
09/06/2013  13:46:00       53.857       15.177       21.073       43.037       44.666       31.281     1852.192     1995.015      978.498        0.420        0.241       55.954       26.214        0.219      347.639       26.754      862.134
09/06/2013  13:47:00      123.950      127.570       93.892      115.093       80.198       72.576    13246.457     6431.705     5267.282        3.269        1.247      177.870       70.105        0.155      347.565       26.625      862.135
09/06/2013  13:48:00       33.808       54.856       44.515       59.191       46.930       37.760     3503.522     2202.407     1425.811        0.663        0.357       64.437       27.147        0.177      347.521       26.552      862.128
09/06/2013  13:49:00      126.857       74.631       38.916      103.176       76.260       58.067    10645.300     5815.531     3371.778        2.150        0.992      147.182       47.197        0.103      347.495       26.503      862.125
09/06/2013  13:50:00      107.245       94.015       57.450       52.796       39.391       51.308     2787.463     1551.685     2632.556        1.530        0.349      142.619       28.365        0.040      347.487       26.491      862.134
09/06/2013  13:51:00       47.383       59.680        8.603       42.820       37.069       35.880     1833.527     1374.098     1287.376        0.519        0.225       76.203       28.899        0.144      347.529       26.564      862.123
09/06/2013  13:52:00      141.413      102.287       29.159       83.706       70.325       55.152     7006.750     4945.617     3041.706        2.315        0.750      174.529       39.721        0.052      347.553       26.603      862.114
09/06/2013  13:53:00      172.294      154.329       25.066       76.526       61.131       46.502     5856.274     3737.050     2162.439        3.294        0.588      231.306       22.681        0.010      347.379       26.302      862.097
09/06/2013  13:54:00      134.793       73.773       29.479       87.642       68.206       43.159     7681.104     4652.011     1862.729        1.934        0.710      153.660       16.965        0.012      347.570       26.633      862.079
09/06/2013  13:55:00       24.871       71.987       82.162       50.100       46.096       38.137     2510.035     2124.827     1454.449        0.932        0.304       76.162       32.348        0.180      347.677       26.821      862.065
09/06/2013  13:56:00       46.620       -2.438       18.159       40.249       38.141       50.280     1619.997     1454.746     2528.063        0.405        0.280       46.684       27.142        0.338      347.366       26.283      862.071
09/06/2013  13:57:00        2.280       14.888       10.002       15.833       24.367       17.506      250.690      593.738      306.470        0.074        0.058       15.061        4.866        0.104      347.592       26.674      862.049
09/06/2013  13:58:00       -4.010       59.993       -1.153       21.411       37.025       20.945      458.447     1370.855      438.692        0.294        0.113       60.127       19.580        0.106      347.555       26.610      862.039
09/06/2013  13:59:00       -3.426        5.025      -13.448       19.199       33.128       19.829      368.613     1097.453      393.205        0.104        0.093        6.082       14.668        5.816      347.453       26.433      862.036
09/06/2013  14:00:00      -92.209      -38.015       -1.816       32.800       58.285       30.820     1075.827     3397.178      949.859        0.769        0.271       99.738       16.767        0.028      347.599       26.686      862.000
09/06/2013  14:01:00      -73.988       35.547       15.417       60.067       41.721       28.709     3607.991     1740.642      824.186        0.657        0.309       82.084       31.695        0.149      347.758       26.960      861.978
09/06/2013  14:02:00        9.847       25.029       63.188       54.238       51.150       39.154     2941.784     2616.351     1533.031        0.590        0.355       26.896       30.736        1.306      347.987       27.356      861.964
09/06/2013  14:03:00       96.734       82.789       35.805       60.291       29.046       34.229     3635.000      843.650     1171.613        1.157        0.283      127.325       25.793        0.041      347.475       26.472      861.948
09/06/2013  14:04:00       44.043        3.791        4.089       55.138       60.647       39.089     3040.239     3678.066     1527.985        0.511        0.412       44.206       42.592        0.928      347.496       26.508      861.942
09/06/2013  14:05:00       85.391       28.998      -16.638       48.344       42.269       39.296     2337.104     1786.679     1544.154        0.704        0.283       90.181       35.500        0.155      347.269       26.116      861.947
09/06/2013  14:06:00      -24.619      -53.398      -26.482       56.202       55.058       20.099     3158.614     3031.421      403.976        0.538        0.330       58.800       25.750        0.192      347.420       26.376      861.940
09/06/2013  14:07:00      -97.740      -13.650      -13.833       48.578       58.024       38.523     2359.866     3366.782     1484.049        0.857        0.361       98.689       27.483        0.078      347.641       26.759      861.925
09/06/2013  14:08:00      -80.846      -62.274       -5.893       56.345       50.642       33.658     3174.792     2564.606     1132.860        0.866        0.344      102.050       29.406        0.083      347.752       26.948      861.903
09/06/2013  14:09:00      -11.266       -6.566       28.234       72.307       70.526       53.583     5228.282     4973.877     2871.182        0.702        0.654       13.040       40.670        9.727      347.962       27.312      861.865
09/06/2013  14:10:00       -5.323       14.240       27.112       44.746       38.496       32.655     2002.161     1481.952     1066.318        0.276        0.228       15.202       28.243        3.452      348.076       27.508      861.851
09/06/2013  14:11:00        8.337        8.218       37.338       36.676       32.341       24.465     1345.132     1045.958      598.542        0.226        0.149       11.706       12.628        1.164      348.474       28.196      861.847
09/06/2013  14:12:00       19.113       56.282        4.183       45.541       37.671       31.373     2073.984     1419.101      984.287        0.401        0.224       59.439       23.198        0.152      348.253       27.813      861.817
09/06/2013  14:13:00      -36.668      208.721      -17.463       83.332      104.951       35.617     6944.140    11014.671     1268.554        3.222        0.961      211.917       44.513        0.044      347.886       27.178      861.817
09/06/2013  14:14:00      -28.685      104.943      -15.573       29.292       66.990       31.078      858.022     4487.616      965.872        0.919        0.316      108.793       33.164        0.093      347.840       27.101      861.805
09/06/2013  14:15:00      -23.544       78.065        2.594       40.525       63.412       29.920     1642.267     4021.111      895.203        0.661        0.328       81.538       30.561        0.140      348.075       27.506      861.766
09/06/2013  14:16:00      -80.532       34.490        2.519       49.819       42.104       35.152     2481.972     1772.757     1235.683        0.658        0.275       87.607       30.579        0.122      348.154       27.643      861.756
09/06/2013  14:17:00     -134.297       15.146      -10.585       56.962       60.802       25.394     3244.626     3696.910      644.865        1.298        0.379      135.148       18.266        0.018      348.045       27.454      861.725
09/06/2013  14:18:00     -110.458       21.888       -2.157       42.313       43.495       29.165     1790.422     1891.804      850.620        0.861        0.227      112.606       26.400        0.055      348.013       27.400      861.701
09/06/2013  14:19:00        7.972       46.924       15.056       38.925       51.964       32.983     1515.182     2700.301     1087.891        0.390        0.265       47.596       24.478        0.264      348.243       27.797      861.699
09/06/2013  14:20:00       27.738      109.602      -13.717       37.184       85.580       35.745     1382.667     7324.014     1277.685        1.148        0.499      113.058       49.133        0.189      347.979       27.341      861.688
09/06/2013  14:21:00       42.173       78.014        7.697       47.013       67.057       34.595     2210.235     4496.650     1196.802        0.791        0.395       88.684       35.693        0.162      348.090       27.533      861.666
09/06/2013  14:22:00      113.208       78.087       14.367       71.544       65.749       47.057     5118.541     4322.947     2214.403        1.539        0.583      137.527       21.137        0.024      348.098       27.545      861.644
09/06/2013  14:23:00      133.871       99.421       24.653      120.850       86.452       61.759    14604.606     7473.997     3814.142        2.715        1.295      166.751       41.508        0.062      348.169       27.667      861.626
09/06/2013  14:24:00       92.075      112.453       11.618       80.356       60.690       50.512     6457.135     3683.301     2551.416        1.697        0.635      145.339       39.235        0.073      347.864       27.140      861.633
09/06/2013  14:25:00      205.613      133.650       21.795      130.719       73.478       59.207    17087.445     5398.958     3505.417        4.330        1.300      245.232       31.125        0.016      348.019       27.410      861.615
09/06/2013  14:26:00       76.617       55.517       56.936       72.264       56.819       39.789     5222.150     3228.444     1583.166        1.111        0.502       94.617       35.053        0.137      348.098       27.545      861.616
09/06/2013  14:27:00       25.367       79.752       84.069       47.346       52.026       42.668     2241.661     2706.753     1820.582        1.042        0.338       83.690       33.663        0.162      347.812       27.053      861.606
09/06/2013  14:28:00      113.564       91.991       13.660       61.124       53.861       50.585     3736.108     2900.966     2558.883        1.537        0.460      146.148       28.068        0.037      348.018       27.408      861.610
09/06/2013  14:29:00       -3.345       60.409       20.253       35.479       38.151       29.612     1258.757     1455.520      876.888        0.383        0.180       60.502       21.898        0.131      348.212       27.744      861.609
09/06/2013  14:30:00        7.963      109.441      -10.321       28.842       82.864       33.095      831.844     6866.402     1095.254        1.047        0.440      109.730       41.845        0.145      347.857       27.130      861.606
09/06/2013  14:31:00        3.513       10.386       17.503       18.371       26.410       17.906      337.491      697.503      320.607        0.089        0.068       10.964       15.410        1.975      348.430       28.120      861.586
09/06/2013  14:32:00      -42.747      133.545      -19.696       35.629       51.413       30.749     1269.397     2643.283      945.521        1.245        0.243      140.220       33.207        0.056      347.815       27.058      861.567
09/06/2013  14:33:00      -26.746       99.019       -9.895       33.013       54.254       27.853     1089.862     2943.537      775.808        0.771        0.240      102.567       34.565        0.114      348.021       27.415      861.550
09/06/2013  14:34:00      -41.202      161.348      -22.647       34.672       54.240       22.177     1202.130     2941.965      491.818        1.644        0.232      166.525       23.526        0.020      347.728       26.907      861.545
09/06/2013  14:35:00      -74.256      103.994      -22.643       27.635       52.780       25.412      763.667     2785.779      645.759        1.052        0.210      127.784       20.232        0.025      347.800       27.030      861.522
09/06/2013  14:36:00     -102.065      -22.914      -18.863       19.546       30.718       15.659      382.051      943.574      245.192        0.643        0.079      104.606       12.515        0.014      347.701       26.861      861.490
09/06/2013  14:37:00      -82.569       34.761      -10.819       36.283       64.085       25.782     1316.441     4106.830      664.686        0.711        0.304       89.588       22.324        0.062      348.212       27.744      861.472
09/06/2013  14:38:00      -86.700      -20.132      -19.069       43.828       36.514       22.881     1920.881     1333.255      523.550        0.603        0.189       89.006        7.404        0.007      347.919       27.238      861.469
09/06/2013  14:39:00     -136.681       46.569      -26.362       61.209       33.927       29.708     3746.586     1151.043      882.554        1.366        0.289      144.396       18.994        0.017      347.957       27.301      861.427
09/06/2013  14:40:00      -42.106       99.007       -8.829       64.638       53.403       34.593     4178.011     2851.928     1196.663        0.994        0.411      107.589       32.802        0.093      348.083       27.520      861.424
09/06/2013  14:41:00      -89.150      135.683      -35.965       52.895       58.687       20.556     2797.859     3444.126      422.530        1.716        0.333      162.350       16.816        0.011      347.824       27.074      861.409
09/06/2013  14:42:00     -151.964       34.330      -11.665       26.846       35.308       19.729      720.700     1246.653      389.240        1.338        0.118      155.793       10.213        0.004      347.925       27.248      861.389
09/06/2013  14:43:00     -121.142      -44.880       -7.131       33.894       40.028       20.408     1148.825     1602.242      416.496        0.995        0.158      129.188       22.006        0.029      348.193       27.711      861.366
09/06/2013  14:44:00      -16.956      -38.820        3.749       31.765       33.432       26.163     1009.021     1117.688      684.525        0.231        0.141       42.362       22.744        0.288      348.187       27.700      861.360
09/06/2013  14:45:00      -70.978        4.696       -5.011       33.356       55.008       18.803     1112.608     3025.886      353.535        0.479        0.225       71.133       16.654        0.055      348.321       27.932      861.348
09/06/2013  14:46:00       20.328       42.111        2.905       61.593       46.138       31.919     3793.734     2128.674     1018.815        0.457        0.347       46.761       14.916        0.102      348.555       28.336      861.329
09/06/2013  14:47:00       35.917       -9.560       42.937       51.380       82.960       43.438     2639.877     6882.410     1886.824        0.731        0.570       37.167       42.217        1.290      348.081       27.517      861.322
09/06/2013  14:48:00       48.091       -2.853       21.667       53.548       40.594       36.073     2867.351     1647.905     1301.249        0.430        0.291       48.176       33.545        0.485      347.856       27.129      861.308
09/06/2013  14:49:00       -3.371       20.163        6.751       33.128       34.416       19.768     1097.454     1184.464      390.789        0.157        0.134       20.443       15.747        0.593      348.176       27.681      861.299
09/06/2013  14:50:00       54.262       51.151       16.062       51.152       55.515       39.294     2616.568     3081.933     1543.984        0.653        0.362       74.571       27.638        0.137      348.316       27.923      861.294
09/06/2013  14:51:00       90.165       83.492       14.360       66.201       48.695       43.158     4382.526     2371.194     1862.593        1.196        0.431      122.885       30.428        0.061      348.179       27.685      861.283
09/06/2013  14:52:00      104.416       97.904        4.334       49.009       42.820       34.161     2401.925     1833.542     1166.976        1.295        0.270      143.136       27.048        0.036      348.077       27.510      861.263
09/06/2013  14:53:00      101.239       89.015        0.958       91.469       69.869       51.772     8366.644     4881.661     2680.382        1.705        0.796      134.807       42.550        0.100      348.433       28.125      861.237
09/06/2013  14:54:00       51.192       31.123       20.526       84.972       56.746       58.305     7220.164     3220.122     3399.415        0.892        0.692       59.910       38.202        0.407      348.324       27.937      861.228
09/06/2013  14:55:00        9.103      -20.700       12.491       31.895       59.292       28.874     1017.315     3515.519      833.706        0.302        0.268       22.613       23.718        1.100      348.333       27.953      861.218
09/06/2013  14:56:00       38.928       19.373       21.953       63.005       45.409       41.818     3969.612     2061.932     1748.714        0.507        0.389       43.483       28.545        0.431      348.445       28.147      861.207
09/06/2013  14:57:00       18.716      -19.062       19.373       31.283       50.302       32.200      978.613     2530.264     1036.825        0.282        0.227       26.714       30.276        1.284      348.401       28.070      861.209
09/06/2013  14:58:00       15.419       18.563        8.007       33.620       30.542       22.975     1130.279      932.787      527.844        0.162        0.130       24.131       12.385        0.263      348.042       27.450      861.211
09/06/2013  14:59:00       22.647       61.100        0.395       29.758       72.743       31.393      885.523     5291.596      985.526        0.570        0.358       65.162       42.143        0.418      348.541       28.312      861.208
09/06/2013  15:00:00       54.009       67.089       17.675       69.617       68.028       41.455     4846.575     4627.781     1718.501        0.946        0.560       86.127       38.051        0.195      348.363       28.004      861.198
09/06/2013  15:01:00       -8.710      131.823        3.711       99.457       68.502       44.863     9891.766     4692.485     2012.657        1.703        0.830      132.110       57.880        0.192      348.189       27.702      861.193
09/06/2013  15:02:00      -50.784       79.179        3.276       44.149       53.486       41.934     1949.148     2860.731     1758.500        0.771        0.328       94.065       34.716        0.136      348.531       28.295      861.183
09/06/2013  15:03:00       26.694        2.743       23.196       28.306       26.818       25.211      801.208      719.181      635.601        0.171        0.108       26.834       11.823        0.194      348.593       28.402      861.179
09/06/2013  15:04:00       92.514       20.463       15.626       59.891       68.459       35.344     3586.965     4686.608     1249.200        0.937        0.476       94.751       34.609        0.133      348.146       27.628      861.165
09/06/2013  15:05:00       83.357       31.588       28.917       87.077       72.608       41.181     7582.451     5271.958     1695.859        1.166        0.728       89.142       32.282        0.131      348.111       27.568      861.146
09/06/2013  15:06:00      111.440       35.930       13.749       90.177       59.389       42.144     8131.810     3527.085     1776.100        1.366        0.672      117.089        7.809        0.004      348.261       27.828      861.136
09/06/2013  15:07:00        2.740        4.742        1.905       32.545       70.020       32.146     1059.158     4902.752     1033.391        0.351        0.350        5.477       19.326       12.452      348.413       28.091      861.119
09/06/2013  15:08:00       43.958        3.201       18.373       37.848       49.876       37.919     1432.488     2487.628     1437.867        0.382        0.268       44.074       17.501        0.158      348.189       27.705      861.099
09/06/2013  15:09:00       40.896      -42.107       16.248       38.647       66.074       34.409     1493.593     4365.730     1183.956        0.537        0.352       58.698       39.958        0.463      348.233       27.780      861.095
09/06/2013  15:10:00      -22.378        4.594       14.138       40.804       33.018       29.549     1664.959     1090.218      873.141        0.217        0.181       22.844       14.565        0.407      348.638       28.479      861.087
09/06/2013  15:11:00       -8.421      -59.662        8.351       50.345       49.365       37.603     2534.584     2436.875     1413.984        0.504        0.319       60.253       30.260        0.252      348.485       28.216      861.081
09/06/2013  15:12:00        8.859      -34.417       32.316       35.631       45.952       38.371     1269.588     2111.556     1472.301        0.358        0.243       35.539       18.963        0.285      348.413       28.092      861.056
09/06/2013  15:13:00       55.392      -58.411       33.461       62.791      119.231       58.054     3942.711    14215.959     3370.211        1.456        1.076       80.499       65.582        0.664      348.362       28.001      861.050
09/06/2013  15:14:00       40.848      -21.178       23.959       70.453       89.263       33.538     4963.622     7967.836     1124.775        0.837        0.703       46.012       49.157        1.141      348.351       27.983      861.048
09/06/2013  15:15:00       38.881     -110.675       34.058       56.849       78.261       51.679     3231.806     6124.862     2670.709        1.347        0.601      117.305       45.962        0.154      348.516       28.268      861.034
09/06/2013  15:16:00       32.409      -10.105       58.991       58.387      133.859       87.728     3409.020    17918.101     7696.199        1.682        1.451       33.948       95.345        7.888      348.392       28.053      861.022
09/06/2013  15:17:00       46.313      -93.896      -20.836       58.584       78.827       60.033     3432.060     6213.683     3603.940        1.232        0.662      104.697       49.332        0.222      348.319       27.927      861.037
09/06/2013  15:18:00       43.710      -20.624       42.786       51.908       60.868       48.736     2694.443     3704.915     2375.226        0.647        0.439       48.331       44.137        0.834      348.399       28.067      861.045
09/06/2013  15:19:00      107.379       62.122       33.652       61.648       42.044       39.955     3800.510     1767.678     1596.427        1.184        0.358      124.054       26.482        0.046      348.141       27.620      861.042
09/06/2013  15:20:00      112.948       82.994       27.981       26.804       17.281       24.199      718.479      298.627      585.591        1.102        0.080      140.162       10.622        0.006      347.954       27.298      861.038
09/06/2013  15:21:00       54.670       90.567      -12.816       39.234       54.641       28.220     1539.294     2985.687      796.366        0.834        0.266      105.788       24.946        0.056      348.269       27.843      861.023
09/06/2013  15:22:00       27.716       72.740       -7.127       35.438       46.064       28.663     1255.875     2121.919      821.593        0.515        0.210       77.842       17.682        0.052      348.314       27.920      861.017
09/06/2013  15:23:00        1.389       12.524       -2.762       33.365       22.874       34.741     1113.191      523.231     1206.944        0.150        0.142       12.601       26.826        4.532      348.497       28.236      860.996
09/06/2013  15:24:00       -1.647       50.722        6.965       43.081       47.264       29.367     1855.954     2233.916      862.415        0.379        0.248       50.749       24.644        0.236      348.259       27.826      860.979
09/06/2013  15:25:00      -49.990      159.262      -22.686       24.862       60.706       22.171      618.129     3685.187      491.557        1.659        0.240      166.923        8.897        0.003      348.109       27.564      860.970
09/06/2013  15:26:00      -21.158       82.829       -5.977       32.346       38.245       22.426     1046.264     1462.655      502.922        0.518        0.151       85.489       17.450        0.042      348.412       28.088      860.964
09/06/2013  15:27:00       -5.567       32.694       14.698       14.633       31.918       18.526      214.116     1018.784      343.198        0.145        0.079       33.164       14.941        0.203      348.814       28.785      860.966
09/06/2013  15:28:00       11.234       45.319        2.620       17.733       40.314       23.206      314.462     1625.207      538.536        0.233        0.124       46.690       22.822        0.239      348.524       28.284      860.961
09/06/2013  15:29:00       -6.784       27.853       20.168       22.693       36.384       21.628      514.986     1323.787      467.766        0.177        0.115       28.668       18.590        0.421      348.937       28.998      860.947
09/06/2013  15:30:00      -11.573       32.763        9.765       17.207       25.411       22.050      296.080      645.704      486.223        0.137        0.071       34.747       16.967        0.238      348.755       28.684      860.941
09/06/2013  15:31:00       12.249       12.779       15.954       26.182       15.634       15.088      685.497      244.433      227.646        0.086        0.058       17.702        9.652        0.297      348.814       28.785      860.930
09/06/2013  15:32:00       21.333       26.080       14.911       23.577       16.704       25.784      555.870      279.017      664.822        0.143        0.075       33.694       15.561        0.213      348.274       27.851      860.923
09/06/2013  15:33:00       64.036       15.013        9.478       52.705       40.703       32.264     2777.831     1656.735     1040.992        0.494        0.274       65.772       23.674        0.130      347.972       27.331      860.918
09/06/2013  15:34:00       68.131      154.502      -10.319       71.137      109.523       60.366     5060.410    11995.326     3644.003        2.466        1.035      168.857       65.055        0.148      348.630       28.464      860.905
09/06/2013  15:35:00       67.916      149.590        6.174      116.802       90.194       63.257    13642.654     8135.030     4001.500        2.640        1.289      164.285       49.848        0.092      348.609       28.427      860.888
09/06/2013  15:36:00       33.404       98.500       -6.387       48.594       59.180       36.699     2361.394     3502.287     1346.831        0.903        0.361      104.009       26.687        0.066      348.581       28.381      860.872
09/06/2013  15:37:00      188.290      126.296       20.903      133.857       55.688       64.030    17917.827     3101.111     4099.889        3.847        1.256      226.723       57.856        0.065      348.596       28.403      860.849
09/06/2013  15:38:00      131.139      131.748        4.961      119.992       89.977       62.489    14397.984     8095.892     3904.896        3.048        1.320      185.890       54.691        0.087      348.522       28.279      860.848
09/06/2013  15:39:00       18.712       81.435       17.538       92.537      108.140       61.593     8563.108    11694.244     3793.717        1.567        1.203       83.557       55.919        0.448      348.719       28.619      860.855
09/06/2013  15:40:00      -37.652      195.579      -20.848       66.855       74.238       41.537     4469.534     5511.221     1725.281        2.590        0.585      199.171       38.264        0.037      348.386       28.042      860.856
09/06/2013  15:41:00      -35.180      266.676      -35.772       51.472       81.145       35.168     2649.397     6584.525     1236.804        4.205        0.524      268.987       34.414        0.016      348.363       28.000      860.860
09/06/2013  15:42:00      -41.038      251.517      -35.688       48.731       60.922       29.967     2374.753     3711.546      898.045        3.660        0.349      254.843       21.737        0.007      348.394       28.053      860.856
09/06/2013  15:43:00       29.906      108.902        1.131       70.863       89.068       40.450     5021.604     7933.179     1636.170        1.367        0.730      112.933       43.130        0.146      348.670       28.533      860.870
09/06/2013  15:44:00       24.378      129.023      -18.246       98.534       83.846       53.787     9708.867     7030.126     2893.037        1.860        0.982      131.305       49.028        0.139      348.525       28.282      860.857
09/06/2013  15:45:00      -75.506      179.149        1.266      115.011      113.705       67.563    13227.505    12928.894     4564.725        3.425        1.536      194.410       54.465        0.078      348.719       28.617      860.881
09/06/2013  15:46:00       46.928      190.297      -15.305       72.047       84.433       51.192     5190.762     7128.860     2620.626        2.679        0.747      195.997       46.348        0.056      348.470       28.187      860.878
09/06/2013  15:47:00      -52.167      147.583      -10.142      113.969       71.324       50.186    12989.018     5087.144     2518.593        2.260        1.030      156.531       40.961        0.068      348.650       28.499      860.867
09/06/2013  15:48:00     -131.618       95.075      -23.062       55.818       62.058       41.837     3115.646     3851.141     1750.331        1.780        0.436      162.366       30.704        0.036      348.446       28.148      860.855
09/06/2013  15:49:00     -126.246       57.446       -5.109       76.099       42.566       37.694     5790.995     1811.879     1420.801        1.414        0.451      138.701       42.696        0.095      348.560       28.345      860.841
09/06/2013  15:50:00      -24.541      121.373       -7.671       53.511       74.634       44.587     2863.460     5570.180     1988.021        1.290        0.521      123.829       42.235        0.116      348.572       28.365      860.829
09/06/2013  15:51:00      -67.851      193.406      -10.387       71.248      135.317       50.151     5076.329    18310.591     2515.115        3.400        1.295      204.962       58.973        0.083      348.737       28.649      860.827
09/06/2013  15:52:00      -14.037      261.723      -32.847       62.850       95.995       31.104     3950.100     9215.079      967.453        4.195        0.707      262.099       35.413        0.018      348.251       27.807      860.849
09/06/2013  15:53:00       24.375       68.810       -3.521       42.517       62.196       25.491     1807.728     3868.324      649.803        0.583        0.316       72.999       22.915        0.099      348.299       27.894      860.840
09/06/2013  15:54:00       20.279       56.512        7.390       51.042       29.500       23.991     2605.333      870.231      575.555        0.385        0.203       60.041       22.856        0.145      348.349       27.982      860.826
09/06/2013  15:55:00       49.521       21.573       32.714       52.451       38.221       35.816     2751.147     1460.841     1282.756        0.474        0.275       54.016       30.429        0.317      348.240       27.791      860.808
09/06/2013  15:56:00       64.454      227.406      -16.320       65.503      123.467       71.054     4290.604    15244.095     5048.719        4.035        1.229      236.364       73.856        0.098      348.393       28.053      860.812
09/06/2013  15:57:00       77.035      133.615       -0.154       70.109       82.337       41.956     4915.214     6779.391     1760.295        1.862        0.673      154.231       51.407        0.111      348.316       27.922      860.797
09/06/2013  15:58:00       48.186      121.259        2.879       79.066       94.908       57.494     6251.370     9007.614     3305.525        1.780        0.928      130.482       52.786        0.164      348.602       28.416      860.779
09/06/2013  15:59:00      -32.115      344.398      -38.376      117.030      141.795       67.092    13695.984    20105.809     4501.270        7.970        1.915      345.892       67.033        0.038      348.579       28.374      860.783
09/06/2013  16:00:00       73.771      271.841      -35.413       84.244      162.526       75.617     7097.057    26414.558     5717.910        5.990        1.961      281.673       84.867        0.091      348.532       28.294      860.788
09/06/2013  16:01:00       68.246      179.031       -8.277       80.394      152.604       76.598     6463.149    23288.113     5867.275        3.619        1.781      191.597       80.550        0.177      348.511       28.258      860.798
09/06/2013  16:02:00       40.041      354.128      -47.749       76.684      125.909       64.935     5880.397    15853.039     4216.603        7.761        1.298      356.384       65.868        0.034      348.324       27.932      860.795
09/06/2013  16:03:00        4.277      326.707      -29.775       84.632      110.955       65.101     7162.543    12310.964     4238.158        6.567        1.186      326.735       61.853        0.036      348.287       27.869      860.783
09/06/2013  16:04:00      100.959      156.907       -2.869      156.249      122.831       48.988    24413.713    15087.557     2399.798        3.835        2.095      186.581       55.836        0.090      348.385       28.039      860.781
09/06/2013  16:05:00       93.302       43.158       12.355       64.008       43.786       36.487     4097.056     1917.244     1331.315        0.903        0.367      102.800       10.993        0.011      348.306       27.906      860.765
09/06/2013  16:06:00      120.801       54.928       19.484       64.843       50.069       37.567     4204.594     2506.857     1411.306        1.305        0.406      132.703       19.633        0.022      348.471       28.190      860.735
09/06/2013  16:07:00       38.450      -10.240       20.101       39.782       47.983       24.526     1582.643     2302.353      601.524        0.324        0.224       39.790        9.769        0.060      348.390       28.052      860.722
09/06/2013  16:08:00       85.154       71.203        9.922       52.616       36.135       27.471     2768.398     1305.748      754.638        0.862        0.241      111.000       11.904        0.012      348.558       28.341      860.715
09/06/2013  16:09:00       65.116      101.091       13.801       65.881       74.885       57.523     4340.367     5607.831     3308.880        1.395        0.663      120.248       47.835        0.158      348.683       28.558      860.696
09/06/2013  16:10:00       46.314      151.371       -0.311       67.007       64.459       55.317     4489.981     4154.968     3060.021        1.838        0.585      158.298       44.575        0.079      348.565       28.352      860.667
09/06/2013  16:11:00       99.928      112.766        1.274       73.615       79.962       64.319     5419.195     6393.849     4136.894        1.932        0.797      150.671       54.105        0.129      348.819       28.792      860.644
09/06/2013  16:12:00      184.613      149.309        8.496      122.140      105.188       86.751    14918.146    11064.603     7525.804        4.497        1.675      237.435       67.059        0.080      348.683       28.554      860.646
09/06/2013  16:13:00      127.164       76.030       24.744      102.238       88.497       44.460    10452.620     7831.748     1976.702        2.141        1.013      148.160       44.400        0.090      348.777       28.721      860.637
09/06/2013  16:14:00       77.553       55.117       29.198       86.272       59.185       46.685     7442.930     3502.896     2179.485        1.151        0.656       95.144       43.554        0.210      348.531       28.295      860.627
09/06/2013  16:15:00       52.438      153.104       -7.675       60.540      100.098       61.920     3665.089    10019.661     3834.101        2.188        0.876      161.835       57.777        0.127      348.600       28.412      860.617
09/06/2013  16:16:00       71.687       71.611       11.245       67.957       67.391       37.076     4618.192     4541.495     1374.605        1.046        0.527      101.327       29.774        0.086      348.715       28.613      860.598
09/06/2013  16:17:00      116.576       91.020       16.032       68.477       47.203       50.123     4689.107     2228.119     2512.356        1.578        0.471      147.901        9.881        0.004      348.616       28.441      860.595
09/06/2013  16:18:00       93.299      219.021      -12.208      109.208      150.377       75.284    11926.469    22613.374     5667.704        4.851        2.010      238.064       71.022        0.089      348.469       28.186      860.602
09/06/2013  16:19:00       99.559      167.846       -8.266       81.765      109.544       70.716     6685.508    11999.974     5000.750        3.091        1.184      195.152       70.457        0.130      348.469       28.186      860.599
09/06/2013  16:20:00      155.301      107.425       15.479       96.792       77.952       58.646     9368.782     6076.502     3439.412        2.739        0.944      188.834       38.788        0.042      348.545       28.316      860.584
09/06/2013  16:21:00      137.388      148.998       -1.726      105.481       72.930       57.303    11126.311     5318.713     3283.665        3.040        0.986      202.672       42.829        0.045      348.560       28.343      860.596
09/06/2013  16:22:00      134.492      141.790       11.634       95.057       75.127       56.112     9035.877     5644.084     3148.606        2.807        0.891      195.429       56.728        0.084      348.477       28.198      860.587
09/06/2013  16:23:00      227.922      140.795       20.100       82.142       62.313       58.771     6747.227     3882.896     3454.049        4.313        0.704      267.902       32.568        0.015      348.381       28.030      860.582
09/06/2013  16:24:00      132.802      151.681       12.907      110.108       84.776       68.920    12123.766     7186.959     4749.985        3.243        1.203      201.602       58.054        0.083      348.516       28.266      860.571
09/06/2013  16:25:00       92.725      134.325       13.448      104.707      127.212       77.871    10963.519    16182.887     6063.925        3.001        1.661      163.221       64.775        0.157      348.612       28.434      860.590
09/06/2013  16:26:00       21.734      299.112      -42.073       71.841      126.232       41.195     5161.135    15934.465     1696.998        5.725        1.140      299.901       50.758        0.029      348.478       28.201      860.597
09/06/2013  16:27:00        4.100      157.317      -12.429       74.098       94.270       53.350     5490.473     8886.785     2846.203        2.107        0.861      157.370       53.851        0.117      348.508       28.253      860.575
09/06/2013  16:28:00       -1.606      220.207      -32.041      105.141       88.274       46.704    11054.698     7792.230     2181.248        3.527        1.051      220.212       45.699        0.043      348.747       28.665      860.565
09/06/2013  16:29:00      192.405      147.190       16.362       86.832       75.443       65.023     7539.840     5691.598     4228.045        3.820        0.873      242.249       54.321        0.050      348.528       28.286      860.569
09/06/2013  16:30:00      165.897      110.775        1.195      101.001       84.672       57.039    10201.104     7169.273     3253.449        3.020        1.031      199.482       50.879        0.065      348.635       28.472      860.557
09/06/2013  16:31:00      215.499      135.198       21.135       85.359       69.660       58.097     7286.115     4852.467     3375.206        4.034        0.776      254.398       24.025        0.009      348.571       28.361      860.558
09/06/2013  16:32:00       33.781       95.907       12.762       71.722      101.776       46.646     5144.088    10358.352     2175.849        1.409        0.884      101.683       43.643        0.184      348.614       28.438      860.541
09/06/2013  16:33:00        3.753      208.853      -34.103       54.604       83.083       41.041     2981.612     6902.777     1684.377        2.818        0.578      208.887       49.735        0.057      348.558       28.337      860.568
09/06/2013  16:34:00       49.490      225.630      -24.872       61.443       96.807       49.884     3775.212     9371.596     2488.456        3.480        0.782      230.994       56.005        0.059      348.511       28.256      860.550
09/06/2013  16:35:00       74.070      223.644       -6.121       96.407      136.813       84.385     9294.344    18717.904     7120.748        4.533        1.757      235.591       79.370        0.114      348.501       28.239      860.548
09/06/2013  16:36:00       97.418      185.290        5.406      123.257      130.938       82.746    15192.361    17144.659     6846.891        4.151        1.959      209.338       76.761        0.134      348.498       28.236      860.531
09/06/2013  16:37:00      149.459      175.644        8.462      138.805      110.343       75.802    19266.871    12175.592     5745.923        4.522        1.859      230.627       61.387        0.071      348.482       28.208      860.519
09/06/2013  16:38:00      119.685      199.873        1.788       97.632      161.164       92.625     9532.072    25973.763     8579.445        4.917        2.204      232.967       89.915        0.149      348.550       28.325      860.527
09/06/2013  16:39:00      -50.588      303.648      -39.334       81.187       90.601       52.730     6591.392     8208.463     2780.421        5.694        0.879      307.833       51.933        0.028      348.493       28.227      860.558
09/06/2013  16:40:00       81.936      174.442        3.023      144.761      144.840       52.088    20955.745    20978.768     2713.144        4.089        2.232      192.726       67.648        0.123      348.500       28.237      860.570
09/06/2013  16:41:00      133.280       65.927       21.825       56.784       59.945       39.753     3224.460     3593.365     1580.277        1.549        0.420      148.694       13.825        0.009      348.265       27.834      860.551
09/06/2013  16:42:00       29.357       11.522       30.594       40.357       26.619       20.165     1628.649      708.547      406.639        0.234        0.137       31.537       16.923        0.288      348.067       27.493      860.513
09/06/2013  16:43:00       95.817       59.480       10.838       38.913       45.452       34.863     1514.216     2065.868     1215.445        0.881        0.240      112.778       19.018        0.028      348.268       27.840      860.500
09/06/2013  16:44:00       25.301       60.134       -5.488       33.273       35.651       29.035     1107.089     1271.012      843.039        0.375        0.161       65.240       17.944        0.076      348.483       28.212      860.500
09/06/2013  16:45:00       11.990       45.076      -30.116       29.372       42.299       30.183      862.689     1789.219      911.023        0.332        0.178       46.643       25.687        0.303      348.338       27.962      860.498
09/06/2013  16:46:00      -64.349       20.690        2.954       53.250       44.893       26.938     2835.587     2015.403      725.661        0.508        0.279       67.593       23.296        0.119      348.739       28.655      860.503
09/06/2013  16:47:00      -99.353       42.264      -21.768       30.704       46.354       25.329      942.752     2148.658      641.561        0.793        0.187      107.969       22.712        0.044      348.759       28.689      860.501
09/06/2013  16:48:00      -97.511      171.993      -24.327       80.665       66.101       44.625     6506.783     4369.337     1991.407        2.627        0.643      197.711       50.618        0.066      348.627       28.459      860.521
09/06/2013  16:49:00      -85.608      190.577      -26.006       43.823       61.134       32.411     1920.436     3737.417     1050.450        2.552        0.335      208.922       27.272        0.017      348.543       28.314      860.528
09/06/2013  16:50:00       29.045      192.598      -17.994       47.114       96.816       40.208     2219.711     9373.267     1616.703        2.573        0.660      194.776       48.812        0.063      348.558       28.340      860.520
09/06/2013  16:51:00      -52.702      188.536      -34.977       40.951       72.575       20.839     1676.944     5267.185      434.275        2.346        0.369      195.764       20.149        0.011      348.472       28.192      860.527
09/06/2013  16:52:00       14.458      150.548        4.446       99.957       99.590       64.394     9991.361     9918.113     4146.590        2.347        1.203      151.241       76.984        0.259      348.552       28.330      860.527
09/06/2013  16:53:00       39.849      140.974        8.889       73.595      115.102       67.515     5416.260    13248.416     4558.254        2.238        1.161      146.498       73.886        0.254      348.620       28.447      860.514
09/06/2013  16:54:00      111.638      129.672       -7.755       81.791       79.056       54.309     6689.723     6249.793     2949.480        2.261        0.794      171.108       42.182        0.061      348.638       28.479      860.519
09/06/2013  16:55:00       62.653       66.359       13.857       69.539       63.660       43.206     4835.638     4052.608     1866.801        0.964        0.538       91.263       30.002        0.108      348.612       28.434      860.518
09/06/2013  16:56:00      133.967      132.946       11.334       81.512       78.213       70.180     6644.191     6117.305     4925.211        2.671        0.884      188.737       48.939        0.067      348.450       28.152      860.502
09/06/2013  16:57:00      169.880      134.099       21.699      110.725       83.989       61.981    12260.028     7054.162     3841.624        3.523        1.158      216.429       39.479        0.033      348.547       28.320      860.483
09/06/2013  16:58:00       62.209      160.385       -4.656       94.049       91.126       61.555     8845.205     8303.887     3788.981        2.527        1.047      172.027       49.910        0.084      348.502       28.242      860.482
09/06/2013  16:59:00      -31.995      270.557      -35.149      112.430      131.956       54.420    12640.569    17412.343     2961.505        5.423        1.651      272.442       66.279        0.059      348.494       28.227      860.515
09/06/2013  17:00:00      -55.699      290.460      -32.728       69.912      101.183       35.636     4887.702    10238.001     1269.941        5.246        0.820      295.752       28.406        0.009      348.437       28.130      860.522
09/06/2013  17:01:00       52.495      298.413      -34.894       73.104      130.867       67.732     5344.193    17126.131     4587.604        6.004        1.353      302.995       64.339        0.045      348.444       28.142      860.512
09/06/2013  17:02:00       11.335      255.094      -33.969       61.464       97.633       44.308     3777.846     9532.199     1963.184        4.081        0.764      255.346       43.868        0.030      348.478       28.199      860.508
09/06/2013  17:03:00        9.821      163.047       -9.593       56.210       98.606       48.604     3159.536     9723.104     2362.337        2.101        0.762      163.342       56.644        0.120      348.512       28.261      860.499
09/06/2013  17:04:00      -29.984      189.832      -33.238       42.258       59.991       25.114     1785.745     3598.872      630.732        2.203        0.301      192.185       14.771        0.006      348.579       28.377      860.484
09/06/2013  17:05:00      -13.103      139.986      -17.128       55.068       66.928       28.803     3032.460     4479.407      829.602        1.420        0.417      140.598       22.498        0.026      348.548       28.323      860.487
09/06/2013  17:06:00      -57.005      149.368      -20.123       59.689       57.058       29.934     3562.736     3255.639      896.062        1.684        0.386      159.876       30.478        0.036      348.507       28.253      860.468
09/06/2013  17:07:00      -31.599      264.714      -43.312       60.823       82.059       43.293     3699.454     6733.727     1874.301        4.263        0.615      266.593       42.420        0.025      348.560       28.340      860.472
09/06/2013  17:08:00      -36.972      147.369      -14.104       57.333       74.497       29.455     3287.064     5549.771      867.598        1.649        0.485      151.936       32.108        0.045      348.485       28.213      860.462
09/06/2013  17:09:00        2.172      139.567      -14.493       60.990       82.748       41.068     3719.836     6847.215     1686.605        1.597        0.613      139.584       34.176        0.060      348.497       28.236      860.457
09/06/2013  17:10:00       17.626      203.868      -20.976       45.762       87.401       38.414     2094.128     7638.965     1475.604        2.676        0.560      204.628       42.530        0.043      348.584       28.384      860.447
09/06/2013  17:11:00       79.464      149.836      -14.923       55.234       94.404       61.846     3050.764     8912.188     3824.911        2.238        0.789      169.604       58.080        0.117      348.497       28.235      860.444
09/06/2013  17:12:00       20.469      196.431      -27.533       78.107       84.564       45.789     6100.766     7151.005     2096.676        2.755        0.767      197.495       37.411        0.036      348.438       28.131      860.443
09/06/2013  17:13:00       43.656      167.014        1.499       78.433       98.348       60.037     6151.660     9672.345     3604.429        2.461        0.971      172.625       47.492        0.076      348.552       28.329      860.453
09/06/2013  17:14:00        7.620      326.921      -44.516       76.410      115.602       46.543     5838.545    13363.765     2166.251        6.514        1.068      327.010       48.045        0.022      348.422       28.104      860.463
09/06/2013  17:15:00      -17.520      201.396      -39.877       76.351       64.942       27.294     5829.518     4217.444      744.973        2.662        0.540      202.157       27.913        0.019      348.443       28.140      860.456
09/06/2013  17:16:00       -2.882      130.793       -9.723       50.715       47.211       35.409     2571.997     2228.883     1253.831        1.163        0.303      130.824       29.224        0.050      348.533       28.298      860.437
09/06/2013  17:17:00      -55.076      184.109      -29.977       62.614       69.401       32.595     3920.505     4816.503     1062.409        2.381        0.490      192.171       23.962        0.016      348.613       28.436      860.443
09/06/2013  17:18:00      -77.943      114.403        6.669       87.443       80.565       45.232     7646.341     6490.689     2045.916        1.769        0.809      138.431       43.069        0.097      348.778       28.722      860.459
09/06/2013  17:19:00       16.111      109.415       -2.809       70.698       95.912       61.584     4998.274     9199.085     3792.599        1.511        0.899      110.595       53.797        0.237      348.699       28.585      860.474
09/06/2013  17:20:00       25.799       39.849        8.674       53.772       55.247       34.452     2891.461     3052.178     1186.949        0.473        0.357       47.472       29.003        0.373      348.761       28.692      860.459
09/06/2013  17:21:00      102.952       70.972       21.015       81.472       60.804       45.404     6637.638     3697.150     2061.529        1.423        0.620      125.044       34.584        0.076      348.579       28.377      860.451
09/06/2013  17:22:00      165.741      199.027       14.350      110.068       88.857       57.415    12115.003     7895.632     3296.451        4.529        1.165      259.001       59.858        0.053      348.453       28.157      860.461
09/06/2013  17:23:00       57.297      144.027       -8.360       84.539       89.725       56.590     7146.812     8050.559     3202.431        2.124        0.920      155.006       50.827        0.108      348.493       28.229      860.460
09/06/2013  17:24:00      -32.841      182.017      -21.035       93.466       93.856       44.902     8735.813     8809.001     2016.220        2.710        0.978      184.956       44.145        0.057      348.540       28.307      860.462
09/06/2013  17:25:00      -53.016      154.578        7.013       72.110      124.210       48.243     5199.791    15428.046     2327.343        2.485        1.148      163.416       34.661        0.045      348.515       28.265      860.462
09/06/2013  17:26:00      -34.416      111.094       -2.012       87.991       67.915       40.926     7742.395     4612.515     1674.959        1.378        0.701      116.303       49.222        0.179      348.535       28.301      860.465
09/06/2013  17:27:00      -12.322      146.258      -11.551       46.738       61.792       31.138     2184.430     3818.307      969.583        1.432        0.349      146.776       36.081        0.060      348.491       28.225      860.453
09/06/2013  17:28:00        8.763      189.744      -32.700       50.024       53.488       26.430     2502.373     2860.972      698.545        2.160        0.303      189.946       19.675        0.011      348.476       28.196      860.446
09/06/2013  17:29:00       18.978       71.266       -3.594       43.809       50.791       28.988     1919.196     2579.766      840.283        0.539        0.267       73.750       24.076        0.107      348.591       28.400      860.436
09/06/2013  17:30:00      -75.225      207.996      -34.219       74.546       66.513       31.593     5557.085     4423.952      998.145        3.053        0.549      221.181       29.117        0.017      348.500       28.238      860.438
09/06/2013  17:31:00      -65.437      303.221      -52.141       88.641      101.708       37.607     7857.280    10344.433     1414.307        5.928        0.981      310.202       39.238        0.016      348.487       28.216      860.438
09/06/2013  17:32:00      -32.749      335.031      -40.385       50.946      100.640       38.480     2595.525    10128.402     1480.746        6.457        0.710      336.628       43.748        0.017      348.481       28.205      860.430
09/06/2013  17:33:00       32.975      174.629      -21.759       44.604      110.297       44.260     1989.485    12165.538     1958.925        2.408        0.806      177.715       50.787        0.082      348.627       28.459      860.429
09/06/2013  17:34:00       29.136      122.817      -11.159       70.487       94.652       54.184     4968.454     8958.947     2935.943        1.646        0.843      126.225       55.516        0.193      348.685       28.562      860.419
09/06/2013  17:35:00      100.123      162.509      -14.687      100.748      102.566       70.617    10150.103    10519.757     4986.791        3.115        1.283      190.876       62.184        0.106      348.488       28.218      860.421
09/06/2013  17:36:00       16.836      234.688      -14.351       69.683      127.945       60.907     4855.760    16369.976     3709.655        4.025        1.247      235.291       67.450        0.082      348.454       28.159      860.415
09/06/2013  17:37:00       60.532      229.462      -12.831       80.370      130.190       82.050     6459.354    16949.476     6732.265        4.331        1.507      237.311       85.828        0.131      348.519       28.271      860.429
09/06/2013  17:38:00       -0.045      172.718       -9.499       90.541       82.968       57.374     8197.726     6883.763     3291.746        2.414        0.919      172.718       55.897        0.105      348.575       28.368      860.453
09/06/2013  17:39:00      -12.406      300.696      -45.422       80.253      125.691       42.135     6440.558    15798.216     1775.357        5.832        1.201      300.952       38.497        0.016      348.418       28.096      860.464
09/06/2013  17:40:00       91.754      167.563        7.139      106.638      101.020       62.724    11371.716    10204.940     3934.247        3.102        1.276      191.039       57.692        0.091      348.323       27.930      860.448
09/06/2013  17:41:00       49.617      178.831      -14.964       75.133      123.016       59.108     5644.962    15133.052     3493.698        2.946        1.214      185.587       62.562        0.114      348.403       28.072      860.442
09/06/2013  17:42:00       17.218      153.118      -10.541       64.281       76.919       46.538     4132.013     5916.546     2165.755        1.803        0.611      154.083       47.135        0.094      348.421       28.104      860.447
09/06/2013  17:43:00       10.745      219.282      -27.633       62.567      124.360       36.965     3914.595    15465.398     1366.420        3.485        1.037      219.545       55.479        0.064      348.382       28.032      860.436
09/06/2013  17:44:00       34.449      269.741      -38.166       53.588       89.478       38.073     2871.705     8006.312     1449.550        4.386        0.616      271.932       39.809        0.021      348.378       28.026      860.425
09/06/2013  17:45:00       41.807      153.419      -11.638       58.391       68.561       35.455     3409.547     4700.622     1257.069        1.739        0.468      159.014       29.523        0.034      348.456       28.163      860.413
09/06/2013  17:46:00       79.936      173.476        8.436       85.509       77.148       57.165     7311.754     5951.880     3267.795        2.654        0.827      191.007       60.011        0.099      348.437       28.131      860.397
09/06/2013  17:47:00       27.263      136.271      -12.168       52.118       51.287       33.869     2716.294     2630.329     1147.122        1.298        0.325      138.972       27.668        0.040      348.484       28.212      860.404
09/06/2013  17:48:00      -37.244      255.799      -35.988       56.433      103.872       34.890     3184.687    10789.458     1217.295        4.165        0.760      258.496       41.439        0.026      348.437       28.129      860.417
09/06/2013  17:49:00      -75.922      204.715      -32.067       57.315       62.909       32.406     3285.061     3957.562     1050.161        2.850        0.415      218.340       31.449        0.021      348.333       27.950      860.433
09/06/2013  17:50:00      -59.945      216.897      -29.439       35.544       40.148       24.681     1263.360     1611.857      609.141        2.749        0.174      225.028       17.857        0.006      348.280       27.858      860.437
09/06/2013  17:51:00     -123.267      105.698      -31.101       40.599       59.242       31.995     1648.250     3509.607     1023.661        1.676        0.309      162.379       32.095        0.039      348.513       28.263      860.445
09/06/2013  17:52:00      -19.254      118.124      -19.866       73.244       65.538       30.163     5364.714     4295.215      909.813        1.264        0.528      119.683       15.932        0.018      348.475       28.199      860.452
09/06/2013  17:53:00       -6.172      149.884      -27.664       40.356       49.376       26.664     1628.590     2437.978      710.992        1.402        0.239      150.011       26.115        0.030      348.470       28.191      860.467
09/06/2013  17:54:00       47.216       98.996       22.480       71.292       51.207       41.790     5082.555     2622.191     1746.438        1.099        0.473      109.680       41.956        0.146      348.403       28.074      860.464
09/06/2013  17:55:00       44.337      141.392       -8.892       52.188       66.657       50.456     2723.593     4443.194     2545.780        1.587        0.486      148.180       49.108        0.110      348.396       28.061      860.460
09/06/2013  17:56:00      -60.584      221.840      -30.357       69.344       67.723       33.682     4808.553     4586.366     1134.475        3.217        0.526      229.964       28.129        0.015      348.398       28.062      860.456
09/06/2013  17:57:00       -2.373      311.816      -48.158       45.659       44.301       29.675     2084.725     1962.562      880.588        5.224        0.246      311.826       26.897        0.007      348.433       28.122      860.460
09/06/2013  17:58:00       35.777      174.657      -12.282       71.395       96.947       54.028     5097.277     9398.647     2919.063        2.467        0.871      178.283       58.995        0.109      348.405       28.074      860.468
09/06/2013  17:59:00      -45.682      262.497      -26.660       70.726       79.775       52.148     5002.160     6363.982     2719.416        4.289        0.704      266.442       39.370        0.022      348.333       27.949      860.481
09/06/2013  18:00:00     -139.143      204.272      -36.264       64.875       69.910       46.075     4208.746     4887.436     2122.879        3.681        0.561      247.159       40.578        0.027      348.397       28.059      860.491
09/06/2013  18:01:00     -114.437      200.989      -36.040       51.243       84.890       34.105     2625.820     7206.246     1163.120        3.289        0.550      231.284       30.704        0.018      348.356       27.988      860.490
09/06/2013  18:02:00      -76.109      154.734      -25.796       66.078       54.377       34.095     4366.257     2956.867     1162.502        1.944        0.424      172.439       29.362        0.029      348.322       27.932      860.484
09/06/2013  18:03:00      -40.032      223.387      -23.590       72.370       75.755       41.924     5237.351     5738.808     1757.614        3.239        0.637      226.946       37.770        0.028      348.298       27.889      860.480
09/06/2013  18:04:00      -62.325      182.287      -29.677       67.205       49.512       28.059     4516.566     2451.402      787.302        2.287        0.388      192.647       24.798        0.017      348.289       27.875      860.475
09/06/2013  18:05:00      -59.374      187.348      -30.271       36.305       57.691       27.200     1318.087     3328.277      739.865        2.246        0.269      196.531       24.682        0.016      348.259       27.822      860.459
09/06/2013  18:06:00      -14.808      150.835      -24.071       44.323       33.293       24.292     1964.556     1108.410      590.099        1.361        0.183      151.560       19.960        0.017      348.287       27.873      860.464
09/06/2013  18:07:00       54.730      106.617        1.055       52.069       49.092       41.615     2711.202     2409.983     1731.780        1.061        0.343      119.844       38.868        0.105      348.324       27.937      860.455
09/06/2013  18:08:00       57.579      230.345      -32.678       67.750      122.408       62.025     4590.076    14983.841     3847.123        4.043        1.171      237.433       70.915        0.089      348.286       27.868      860.456
09/06/2013  18:09:00       47.914      154.746      -17.209       48.160       67.702       42.086     2319.355     4583.538     1771.261        1.760        0.434      161.994       37.697        0.054      348.193       27.708      860.455
09/06/2013  18:10:00      -35.197      187.507      -27.769       54.421       58.437       30.422     2961.642     3414.919      925.522        2.223        0.365      190.781       26.003        0.019      348.235       27.780      860.451
09/06/2013  18:11:00        2.800      152.269      -13.676       61.650       71.025       38.620     3800.710     5044.553     1491.529        1.686        0.517      152.294       41.869        0.076      348.201       27.723      860.459
09/06/2013  18:12:00       21.341      147.538      -12.844       67.280      103.468       49.253     4526.556    10705.690     2425.823        2.002        0.883      149.073       57.740        0.150      348.265       27.835      860.485
09/06/2013  18:13:00        0.420      317.596      -33.725       82.614      120.127       58.361     6825.130    14430.525     3405.978        6.333        1.233      317.596       61.719        0.038      348.143       27.621      860.483
09/06/2013  18:14:00       42.974      235.495      -20.255       72.961      136.259       72.563     5323.337    18566.553     5265.418        4.343        1.458      239.384       81.269        0.115      348.130       27.599      860.481
09/06/2013  18:15:00      -19.849      327.516      -41.146       82.536      133.403       51.459     6812.205    17796.244     2648.055        6.830        1.363      328.117       64.574        0.039      348.155       27.642      860.486
09/06/2013  18:16:00        5.953      219.272      -14.840       58.947       98.222       49.542     3474.707     9647.492     2454.453        3.195        0.779      219.353       55.760        0.065      348.179       27.683      860.490
09/06/2013  18:17:00      -32.716      251.098      -37.021       57.647       65.628       33.949     3323.173     4307.073     1152.553        3.714        0.439      253.221       22.890        0.008      348.173       27.672      860.503
09/06/2013  18:18:00      -47.722      261.558      -33.825       57.409       58.925       31.826     3295.751     3472.206     1012.884        3.981        0.389      265.876       30.822        0.013      348.138       27.610      860.501
09/06/2013  18:19:00      -22.859      154.329       -4.497       63.999       75.824       39.862     4095.830     5749.211     1588.974        1.789        0.572      156.013       43.583        0.078      348.159       27.649      860.506
09/06/2013  18:20:00      -48.544      235.045      -32.555       48.978      100.862       37.820     2398.878    10173.059     1430.368        3.633        0.700      240.006       41.007        0.029      348.163       27.656      860.507
09/06/2013  18:21:00       30.250      299.625      -30.239       81.226      104.047       64.386     6597.726    10825.790     4145.513        5.658        1.078      301.148       63.634        0.045      348.129       27.595      860.500
09/06/2013  18:22:00      -39.124      343.858      -36.538       66.121      101.335       48.894     4371.942    10268.820     2390.636        6.906        0.852      346.076       43.951        0.016      348.110       27.561      860.501
09/06/2013  18:23:00        7.294      306.813      -41.918       80.212       88.117       49.856     6433.907     7764.594     2485.658        5.631        0.834      306.900       49.705        0.026      348.086       27.521      860.503
09/06/2013  18:24:00       79.815      225.326       -7.698      118.970      127.041       72.011    14153.915    16139.510     5185.541        4.633        1.774      239.045       68.613        0.082      348.080       27.512      860.496
09/06/2013  18:25:00        1.935      287.395      -33.217       64.962       86.376       49.708     4220.071     7460.751     2470.911        4.892        0.708      287.402       46.210        0.026      348.052       27.463      860.495
09/06/2013  18:26:00       64.885      195.748        2.307       80.180      103.350       80.397     6428.894    10681.224     6463.654        3.305        1.179      206.222       77.032        0.140      348.032       27.429      860.482
09/06/2013  18:27:00       99.541      137.392       -4.933      103.552       99.993       72.955    10722.998     9998.559     5322.458        2.742        1.302      169.661       63.270        0.139      348.026       27.417      860.475
09/06/2013  18:28:00        7.417      207.971      -32.977       52.081       95.690       37.123     2712.388     9156.546     1378.123        2.882        0.662      208.103       30.380        0.021      348.015       27.399      860.477
09/06/2013  18:29:00       39.816      183.023      -19.107       56.740       91.776       47.243     3219.473     8422.802     2231.877        2.466        0.694      187.304       47.563        0.064      347.985       27.349      860.478
09/06/2013  18:30:00       77.192      243.164      -17.881       93.685      135.165       81.102     8776.862    18269.640     6577.478        4.951        1.681      255.122       75.119        0.087      347.935       27.263      860.477
09/06/2013  18:31:00       39.355      222.543       -4.530       77.586      126.862       78.005     6019.589    16093.901     6084.786        3.964        1.410      225.996       81.526        0.130      347.936       27.265      860.471
09/06/2013  18:32:00       44.045      125.331        2.037       77.193       72.420       52.107     5958.775     5244.623     2715.116        1.578        0.696      132.845       41.859        0.099      347.902       27.205      860.464
09/06/2013  18:33:00       64.417      161.890        8.440      101.741      126.257       87.581    10351.185    15940.910     7670.449        3.219        1.698      174.235       78.909        0.205      347.930       27.255      860.460
09/06/2013  18:34:00       35.614      158.091       -4.379       75.467       93.598       59.588     5695.282     8760.571     3550.707        2.214        0.900      162.053       55.702        0.118      347.911       27.221      860.455
09/06/2013  18:35:00       40.525      153.600       -2.840       61.378      110.735       53.470     3767.301    12262.156     2859.065        2.206        0.944      158.856       56.707        0.127      347.933       27.259      860.467
09/06/2013  18:36:00       40.602      131.622        1.559       63.640       84.195       55.930     4050.059     7088.832     3128.194        1.662        0.713      137.742       53.174        0.149      347.937       27.268      860.472
09/06/2013  18:37:00      -37.360      229.010      -28.349       62.641       84.556       37.990     3923.880     7149.786     1443.232        3.358        0.626      232.037       42.233        0.033      347.938       27.266      860.477
09/06/2013  18:38:00       40.608      220.987      -24.332       61.254       75.453       43.147     3752.008     5693.176     1861.623        3.119        0.565      224.687       46.914        0.044      347.927       27.249      860.483
09/06/2013  18:39:00        4.060      272.249      -29.886       56.131       70.747       52.004     3150.665     5005.100     2704.394        4.294        0.543      272.279       45.640        0.028      347.926       27.244      860.498
09/06/2013  18:40:00       18.089      172.110      -23.929       49.707       99.101       38.731     2470.805     9820.923     1500.106        2.215        0.690      173.058       49.122        0.081      347.892       27.188      860.498
09/06/2013  18:41:00      -20.606      137.138      -15.598       38.157       69.813       35.135     1455.983     4873.919     1234.442        1.352        0.378      138.677       39.246        0.080      347.881       27.169      860.493
09/06/2013  18:42:00       14.688      234.646      -41.496       52.575       78.702       37.006     2764.094     6193.975     1369.412        3.366        0.516      235.106       38.959        0.027      347.960       27.305      860.496
09/06/2013  18:43:00        9.380      152.648      -11.291       53.829       74.423       40.521     2897.565     5538.772     1641.946        1.680        0.504      152.936       45.263        0.088      347.889       27.183      860.496
09/06/2013  18:44:00        4.278      131.315      -13.788       49.590       83.125       35.268     2459.141     6909.794     1243.828        1.403        0.531      131.384       43.058        0.107      347.866       27.143      860.501
09/06/2013  18:45:00        5.779      289.196      -44.251       72.555       82.359       35.818     5264.300     6783.038     1282.935        4.948        0.667      289.254       35.979        0.015      347.911       27.217      860.495
09/06/2013  18:46:00      -24.882      203.578      -29.723       76.834      103.122       44.547     5903.398    10634.233     1984.414        3.073        0.926      205.093       46.697        0.052      347.899       27.200      860.494
09/06/2013  18:47:00      -31.537      211.230      -17.964       34.269       84.656       34.376     1174.398     7166.673     1181.707        2.773        0.476      213.572       29.158        0.019      347.872       27.153      860.498
09/06/2013  18:48:00        8.316      166.192      -25.260       31.004       60.340       23.720      961.228     3640.891      562.621        1.674        0.258      166.400       22.632        0.018      347.849       27.116      860.499
09/06/2013  18:49:00       62.092      172.480        3.681      100.210      108.543       63.479    10041.997    11781.551     4029.560        2.973        1.293      183.316       67.490        0.136      347.783       26.999      860.502
09/06/2013  18:50:00       -5.885      288.455      -40.418       72.334       91.733       45.955     5232.200     8415.001     2111.892        5.031        0.788      288.515       45.601        0.025      347.774       26.984      860.519
09/06/2013  18:51:00        6.549      237.136      -36.022       41.710      107.227       35.820     1739.752    11497.640     1283.044        3.604        0.726      237.227       37.569        0.025      347.742       26.931      860.539
09/06/2013  18:52:00      -11.959      263.393      -27.237       65.280       94.368       37.391     4261.529     8905.275     1398.054        4.241        0.728      263.664       43.564        0.027      347.730       26.907      860.538
09/06/2013  18:53:00       19.652      177.143      -19.044       48.770       54.056       31.292     2378.470     2922.004      979.184        1.920        0.314      178.230       28.904        0.026      347.702       26.861      860.541
09/06/2013  18:54:00        4.484      176.683       -8.287       64.226       90.544       44.979     4124.985     8198.245     2023.125        2.282        0.717      176.740       46.713        0.070      347.680       26.824      860.543
09/06/2013  18:55:00      -27.848      221.241      -14.986       73.525       87.108       48.010     5405.976     7587.771     2305.008        3.262        0.765      222.987       48.846        0.048      347.649       26.766      860.562
09/06/2013  18:56:00       -2.249      201.367      -28.683       45.982       49.095       24.831     2114.364     2410.300      616.581        2.326        0.257      201.380       19.980        0.010      347.668       26.802      860.568
09/06/2013  18:57:00      -18.285      176.298      -10.993       68.836      128.209       51.830     4738.382    16437.630     2686.391        2.769        1.193      177.244       67.850        0.147      347.624       26.725      860.575
09/06/2013  18:58:00      -56.722      264.611      -33.764       41.597       58.195       31.835     1730.325     3386.615     1013.444        4.025        0.307      270.622       25.061        0.009      347.683       26.826      860.580
09/06/2013  18:59:00      -48.393      210.860      -17.926       54.035       73.520       40.705     2919.824     5405.148     1656.912        2.855        0.499      216.342       36.814        0.029      347.638       26.750      860.596
09/06/2013  19:00:00       24.546      167.014       -6.189       87.876      103.667       46.813     7722.150    10746.910     2191.422        2.459        1.033      168.809       43.811        0.067      347.614       26.709      860.600
09/06/2013  19:01:00       52.974      195.036      -27.148       59.791       66.001       48.397     3575.019     4356.129     2342.274        2.593        0.514      202.102       40.702        0.041      347.624       26.725      860.599
09/06/2013  19:02:00        0.462      206.552      -15.531       84.480      107.374       47.681     7136.864    11529.267     2273.434        3.192        1.047      206.553       48.870        0.056      347.603       26.689      860.609
09/06/2013  19:03:00      -51.897      177.274      -27.070       51.202       73.109       29.809     2621.616     5344.930      888.585        2.185        0.443      184.715       36.761        0.040      347.581       26.652      860.625
09/06/2013  19:04:00      -47.331      190.047      -21.106       56.632       95.391       40.917     3207.145     9099.371     1674.189        2.639        0.699      195.852       44.271        0.051      347.561       26.617      860.630
09/06/2013  19:05:00       -0.448      222.199      -32.558       55.188       48.907       29.184     3045.669     2391.933      851.714        2.836        0.314      222.200       22.471        0.010      347.578       26.645      860.637
09/06/2013  19:06:00      -36.028      181.456      -25.474       50.179       69.276       27.800     2517.898     4799.178      772.845        2.148        0.404      184.998       25.417        0.019      347.552       26.603      860.650
09/06/2013  19:07:00      -23.578      166.400       -8.200       68.168       85.059       45.886     4646.944     7235.030     2105.513        2.115        0.699      168.062       51.851        0.095      347.520       26.548      860.662
09/06/2013  19:08:00      -16.521      209.868      -16.363       74.355       89.530       47.887     5528.709     8015.563     2293.170        3.021        0.792      210.517       53.221        0.064      347.540       26.581      860.663
09/06/2013  19:09:00       -6.511      185.790      -25.146       44.952       47.323       27.799     2020.695     2239.457      772.802        2.011        0.252      185.904       23.402        0.016      347.545       26.590      860.686
09/06/2013  19:10:00      -48.373      157.727      -16.908       29.894       35.230       23.605      893.661     1241.136      557.191        1.510        0.135      164.978       22.571        0.019      347.484       26.485      860.700
09/06/2013  19:11:00      -16.500       66.624        2.008       24.192       57.531       22.681      585.274     3309.869      514.414        0.456        0.220       68.637       29.207        0.181      347.296       26.161      860.704
09/06/2013  19:12:00       -4.715      129.662      -11.762       42.227       34.398       27.283     1783.158     1183.216      744.377        1.034        0.186      129.747       16.015        0.015      347.465       26.453      860.707
09/06/2013  19:13:00      -67.811      263.894      -27.040       66.741       99.439       42.715     4454.295     9888.037     1824.608        4.556        0.808      272.467       52.237        0.037      347.432       26.395      860.720
09/06/2013  19:14:00        0.351      249.868      -32.207       67.615       48.609       31.329     4571.748     2362.880      981.513        3.569        0.396      249.868       25.975        0.011      347.484       26.481      860.734
09/06/2013  19:15:00       11.254      179.879      -13.408       46.647       75.792       41.967     2175.985     5744.485     1761.241        2.117        0.484      180.231       43.237        0.058      347.385       26.313      860.729
09/06/2013  19:16:00       56.187       90.078        4.572       57.094       58.308       30.562     3259.689     3399.809      934.047        0.944        0.380      106.165       30.203        0.081      347.242       26.068      860.738
09/06/2013  19:17:00       72.878       67.841       22.483       52.984       36.654       34.199     2807.263     1343.503     1169.590        0.787        0.266       99.567       24.262        0.059      347.151       25.912      860.744
09/06/2013  19:18:00       43.792       82.397       22.100       54.405       50.574       45.075     2959.919     2557.698     2031.731        0.837        0.377       93.311       38.902        0.174      347.122       25.862      860.749
09/06/2013  19:19:00       61.432      178.238       -7.978       81.413      119.328       62.345     6628.057    14239.061     3886.890        3.018        1.238      188.528       64.881        0.118      347.146       25.901      860.755
09/06/2013  19:20:00       19.322      264.745      -35.745       71.785       70.747       51.406     5153.067     5005.079     2642.614        4.227        0.640      265.450       43.657        0.027      347.139       25.887      860.777
09/06/2013  19:21:00       33.855      190.591       -7.710       68.394      107.812       70.012     4677.673    11623.472     4901.745        2.936        1.060      193.574       68.682        0.126      347.073       25.774      860.798
09/06/2013  19:22:00       31.533      208.929       -5.022       88.814      133.690       66.958     7887.840    17872.942     4483.387        3.745        1.512      211.295       74.617        0.125      347.074       25.778      860.812
09/06/2013  19:23:00        9.280      304.915      -35.501       72.633      178.495       56.536     5275.608    31860.526     3196.368        6.732        2.017      305.056       85.330        0.078      347.100       25.822      860.827
09/06/2013  19:24:00       -3.229      259.723      -20.133       95.216      128.535       74.556     9066.055    16521.311     5558.611        4.950        1.557      259.743       78.870        0.092      347.088       25.800      860.833
09/06/2013  19:25:00      -28.673      343.865      -39.049       76.898      105.790       49.448     5913.231    11191.453     2445.128        7.007        0.977      345.058       54.663        0.025      347.126       25.865      860.857
09/06/2013  19:26:00      -13.541      223.578      -20.644       60.860      121.898       45.765     3703.939    14859.230     2094.436        3.562        1.033      223.987       55.624        0.062      347.038       25.715      860.878
09/06/2013  19:27:00       20.454      224.162      -24.829       71.304       86.629       59.644     5084.256     7504.617     3557.434        3.371        0.807      225.093       56.374        0.063      347.044       25.723      860.905
09/06/2013  19:28:00      -38.869      194.473      -10.669       91.321       89.116       55.309     8339.614     7941.725     3059.126        2.939        0.967      198.319       56.036        0.080      347.006       25.660      860.911
09/06/2013  19:29:00      -18.474      300.668      -20.820       86.369      148.504       61.555     7459.547    22053.451     3788.961        6.223        1.665      301.235       73.225        0.059      347.012       25.671      860.925
09/06/2013  19:30:00        7.741      218.951      -10.695       62.227       92.599       55.844     3872.251     8574.513     3118.549        3.184        0.778      219.088       48.667        0.049      346.961       25.583      860.932
09/06/2013  19:31:00        7.329      245.564      -20.129       71.495      150.677       63.693     5111.535    22703.440     4056.834        4.631        1.594      245.673       85.840        0.122      346.999       25.649      860.959
09/06/2013  19:32:00       12.581      186.525       -4.846       84.303      114.147       55.079     7107.019    13029.491     3033.720        2.907        1.159      186.949       65.883        0.124      346.950       25.563      860.970
09/06/2013  19:33:00      -20.603      257.862      -22.277       79.986      104.208       50.591     6397.714    10859.354     2559.410        4.361        0.991      258.683       49.030        0.036      346.952       25.566      861.006
09/06/2013  19:34:00      -25.551      276.369      -19.997      101.844      106.409       61.221    10372.265    11322.864     3748.005        5.143        1.272      277.547       58.757        0.045      346.920       25.511      861.015
09/06/2013  19:35:00      -51.204      311.515      -26.865       98.246       78.932       53.134     9652.202     6230.205     2823.197        5.954        0.935      315.695       47.903        0.023      346.971       25.599      861.039
09/06/2013  19:36:00      -85.791      288.135      -35.556       65.616       65.943       38.171     4305.487     4348.529     1457.012        5.088        0.506      300.636       25.506        0.007      346.976       25.605      861.052
09/06/2013  19:37:00      -66.017      215.951      -35.479       54.518       84.867       37.478     2972.195     7202.424     1404.635        3.191        0.579      225.817       48.130        0.045      346.963       25.585      861.060
09/06/2013  19:38:00     -110.123      146.060      -20.229       56.684       96.471       35.233     3213.104     9306.579     1241.383        2.381        0.688      182.922       34.859        0.036      346.983       25.622      861.076
09/06/2013  19:39:00     -106.554      193.455      -28.379       47.647       53.433       37.011     2270.216     2855.119     1369.777        2.804        0.325      220.859       29.653        0.018      346.905       25.485      861.083
09/06/2013  19:40:00     -139.559      193.162      -23.155      110.246       85.634       58.364    12154.246     7333.235     3406.404        4.010        1.145      238.303       54.747        0.053      346.901       25.479      861.095
09/06/2013  19:41:00      -69.289      180.505       -3.996       88.700       86.898       53.431     7867.718     7551.346     2854.872        2.783        0.914      193.347       53.846        0.078      346.842       25.378      861.098
09/06/2013  19:42:00      -97.465      216.551      -32.770       78.703       80.604       43.522     6194.173     6497.043     1894.160        3.602        0.729      237.473       38.011        0.026      346.877       25.436      861.115
09/06/2013  19:43:00     -121.141      242.615      -32.442       74.503       80.701       44.725     5550.743     6512.636     2000.350        4.432        0.703      271.177       39.510        0.021      346.846       25.383      861.114
09/06/2013  19:44:00     -108.569      231.967      -29.294       62.880       79.600       36.646     3953.857     6336.100     1342.899        3.904        0.582      256.117       29.420        0.013      346.808       25.318      861.116
09/06/2013  19:45:00     -121.649      155.098      -21.960       87.705       71.844       37.716     7692.125     5161.546     1422.487        2.680        0.714      197.114       31.253        0.025      346.785       25.279      861.132
09/06/2013  19:46:00      -90.957      269.617      -26.986       79.696      104.361       49.346     6351.442    10891.237     2434.980        5.068        0.984      284.546       47.557        0.028      346.732       25.187      861.148
09/06/2013  19:47:00     -159.046      249.619      -34.217       91.562      113.561       61.261     8383.563    12896.106     3752.895        5.690        1.252      295.982       67.021        0.051      346.719       25.164      861.150
09/06/2013  19:48:00      -99.812      181.687      -16.780       77.486       92.157       51.746     6004.089     8492.904     2677.638        3.021        0.859      207.298       58.215        0.079      346.634       25.020      861.172
09/06/2013  19:49:00      -80.080      282.644      -30.148       53.078       97.018       43.386     2817.280     9412.414     1882.343        5.066        0.706      293.769       44.708        0.023      346.762       25.239      861.180
09/06/2013  19:50:00     -108.406      138.179      -11.416       69.772       71.498       46.885     4868.088     5112.006     2198.196        2.157        0.609      175.629       39.202        0.050      346.650       25.046      861.193
09/06/2013  19:51:00     -128.394      176.881      -37.261       68.001       74.656       43.162     4624.175     5573.557     1862.936        3.061        0.603      218.568       42.743        0.038      346.640       25.030      861.205
09/06/2013  19:52:00      -63.351      250.343      -24.599       45.776       98.171       45.155     2095.426     9637.643     2038.970        4.053        0.689      258.235       53.077        0.042      346.615       24.986      861.207
09/06/2013  19:53:00      -85.508      144.085      -15.713       48.265      102.087       38.331     2329.484    10421.781     1469.295        2.127        0.711      167.548       44.139        0.069      346.584       24.934      861.212
09/06/2013  19:54:00      -53.676      161.583      -17.636       76.412       89.135       40.681     5838.725     7945.043     1654.945        2.237        0.772      170.265       46.529        0.075      346.564       24.902      861.218
09/06/2013  19:55:00      -67.204      197.265      -23.449       62.016      109.214       40.064     3845.981    11927.634     1605.131        3.068        0.869      208.399       44.978        0.047      346.592       24.947      861.224
09/06/2013  19:56:00      -81.224      234.860      -23.553       61.151      108.360       42.436     3739.440    11741.887     1800.824        3.979        0.864      248.509       48.626        0.038      346.544       24.866      861.241
09/06/2013  19:57:00      -80.331      173.251      -12.566       69.881      163.297       47.832     4883.369    26665.843     2287.936        3.523        1.692      190.969       67.363        0.124      346.548       24.873      861.243
09/06/2013  19:58:00      -94.094      262.467      -34.331       68.921       93.135       40.627     4750.036     8674.127     1650.585        4.699        0.754      278.824       43.887        0.025      346.589       24.942      861.247
09/06/2013  19:59:00      -64.077      258.109      -23.882       67.474       61.271       47.021     4552.805     3754.162     2211.021        4.091        0.526      265.944       39.156        0.022      346.564       24.899      861.261
09/06/2013  20:00:00      -82.698      217.980      -32.473       89.636       94.686       43.258     8034.689     8965.400     1871.239        3.714        0.944      233.140       44.952        0.037      346.526       24.834      861.265
09/06/2013  20:01:00      -62.403      317.198      -39.719       62.588       92.498       43.681     3917.297     8555.954     1908.010        6.023        0.719      323.278       42.800        0.018      346.545       24.865      861.286
09/06/2013  20:02:00      -48.454      218.640       -9.829       68.127      108.146       50.088     4641.247    11695.565     2508.837        3.454        0.942      223.945       60.658        0.073      346.462       24.723      861.300
09/06/2013  20:03:00      -63.938      244.152      -26.931       61.057       74.595       48.483     3727.970     5564.361     2350.573        3.803        0.582      252.385       42.316        0.028      346.464       24.726      861.317
09/06/2013  20:04:00      -63.336      203.871      -25.127       77.062       55.013       41.765     5938.503     3026.379     1744.332        2.846        0.535      213.482       34.030        0.025      346.424       24.658      861.333
09/06/2013  20:05:00      -66.294      270.741      -23.629       56.211      101.153       49.048     3159.630    10232.009     2405.721        4.702        0.790      278.740       52.926        0.036      346.450       24.701      861.352
09/06/2013  20:06:00      -70.831      213.253      -27.628       72.159      106.090       42.260     5206.923    11255.175     1785.899        3.475        0.912      224.708       36.581        0.027      346.364       24.557      861.382
09/06/2013  20:07:00      -58.538      243.096      -21.875       72.519      124.504       49.834     5258.948    15501.358     2483.404        4.312        1.162      250.045       59.592        0.057      346.440       24.688      861.412
09/06/2013  20:08:00      -41.158      287.443      -34.213       55.909       96.632       41.067     3125.798     9337.649     1686.472        4.982        0.707      290.374       40.133        0.019      346.431       24.671      861.441
09/06/2013  20:09:00      -68.880      176.340      -17.893       60.611       96.817       50.655     3673.641     9373.603     2565.965        2.588        0.781      189.315       57.357        0.092      346.378       24.579      861.478
09/06/2013  20:10:00      -62.526      268.148      -24.867       78.088      134.084       49.401     6097.783    17978.626     2440.453        5.147        1.326      275.342       66.498        0.058      346.389       24.598      861.502
09/06/2013  20:11:00      -24.960      289.176      -34.624       52.280      142.625       42.171     2733.191    20341.877     1778.352        5.514        1.243      290.251       54.567        0.035      346.331       24.499      861.519
09/06/2013  20:12:00      -75.548      315.523      -32.401       67.756       70.988       38.525     4590.900     5039.252     1484.173        5.871        0.556      324.442       33.932        0.011      346.338       24.508      861.532
09/06/2013  20:13:00      -50.481      255.943      -27.570       59.678       69.025       35.938     3561.511     4764.478     1291.507        3.921        0.481      260.874       35.101        0.018      346.277       24.404      861.552
09/06/2013  20:14:00      -37.164      260.572      -31.663       43.097       47.716       29.413     1857.389     2276.849      865.112        3.764        0.250      263.209       20.688        0.006      346.312       24.464      861.580
09/06/2013  20:15:00      -22.545      222.117      -18.293       53.015       70.411       34.425     2810.573     4957.694     1185.082        2.956        0.448      223.259       33.061        0.022      346.215       24.299      861.584
09/06/2013  20:16:00      -29.002      187.716      -20.338       36.295       47.025       27.992     1317.329     2211.344      783.568        2.040        0.216      189.943       29.150        0.024      346.220       24.310      861.607
09/06/2013  20:17:00      -25.479      194.469      -22.477       31.463       45.929       23.243      989.915     2109.516      540.245        2.131        0.182      196.131       22.710        0.013      346.253       24.367      861.616
09/06/2013  20:18:00      -26.328      189.779      -23.007       37.492       40.502       26.099     1405.623     1640.375      681.153        2.048        0.186      191.597       20.791        0.012      346.209       24.290      861.617
09/06/2013  20:19:00      -69.935      199.539      -27.047       54.014       58.435       30.761     2917.533     3414.647      946.214        2.636        0.364      211.440       25.491        0.015      346.258       24.374      861.632
09/06/2013  20:20:00      -67.242      171.441      -22.345       66.200       41.363       27.007     4382.496     1710.904      729.359        2.062        0.341      184.156       19.531        0.011      346.262       24.383      861.627
09/06/2013  20:21:00      -26.968      172.901      -15.799       38.824       58.658       34.658     1507.283     3440.709     1201.201        1.851        0.307      174.992       32.929        0.035      346.225       24.318      861.643
09/06/2013  20:22:00      -30.294      163.083      -17.617       30.190       49.757       26.321      911.466     2475.720      692.784        1.595        0.204      165.873       26.894        0.026      346.240       24.343      861.646
09/06/2013  20:23:00      -12.959      127.335       -8.577       30.273       47.470       29.599      916.448     2253.434      876.097        1.025        0.202      127.993       25.886        0.041      346.152       24.193      861.657
09/06/2013  20:24:00      -25.787      168.417      -19.578       27.363       57.578       23.333      748.752     3315.255      544.425        1.701        0.230      170.380       24.666        0.021      346.153       24.196      861.659
09/06/2013  20:25:00      -47.758      132.262      -11.417       34.074       55.340       28.175     1161.024     3062.551      793.833        1.246        0.251      140.620       27.297        0.038      346.100       24.105      861.670
09/06/2013  20:26:00      -75.509      197.088      -26.616       67.733       71.811       41.124     4587.787     5156.790     1691.188        2.834        0.572      211.058       37.830        0.032      346.197       24.269      861.694
09/06/2013  20:27:00      -48.556      176.614      -12.847       50.183       70.000       37.239     2518.332     4899.945     1386.764        2.126        0.440      183.167       37.769        0.043      346.138       24.168      861.693
09/06/2013  20:28:00      -67.866       68.758       -7.987       44.729       64.189       30.972     2000.668     4120.192      959.248        0.824        0.354       96.610       28.251        0.086      346.177       24.236      861.712
09/06/2013  20:29:00     -115.320      169.249      -17.981       70.173       76.769       41.445     4924.182     5893.518     1717.654        2.740        0.627      204.802       37.550        0.034      346.180       24.237      861.728
09/06/2013  20:30:00      -91.470      221.620      -36.149       74.652       79.727       41.737     5572.924     6356.433     1742.002        3.623        0.684      239.754       34.242        0.020      346.197       24.267      861.740
09/06/2013  20:31:00     -123.385      204.415      -30.943       58.364       66.911       41.464     3406.312     4477.024     1719.292        3.378        0.480      238.766       33.551        0.020      346.185       24.247      861.746
09/06/2013  20:32:00     -102.152      131.595      -23.453       51.394       53.515       31.236     2641.374     2863.808      975.678        1.739        0.324      166.590       28.735        0.030      346.152       24.193      861.763
09/06/2013  20:33:00      -96.272      110.541      -24.988       44.951       51.153       27.179     2020.584     2616.656      738.708        1.374        0.269      146.587       23.358        0.025      346.084       24.076      861.772
09/06/2013  20:34:00     -136.333      126.080      -35.664       40.075       62.436       32.157     1606.006     3898.262     1034.064        2.115        0.327      185.696       27.021        0.021      346.130       24.154      861.788
09/06/2013  20:35:00      -76.567      103.755      -16.086       37.655       63.008       27.291     1417.933     3970.024      744.809        1.151        0.307      128.948       23.311        0.033      346.079       24.067      861.803
09/06/2013  20:36:00      -92.215       58.544      -14.445       38.571       37.672       30.467     1487.747     1419.179      928.268        0.799        0.192      109.229       19.495        0.032      346.077       24.063      861.815
09/06/2013  20:37:00     -144.268      100.665      -29.009       38.859       50.745       29.308     1510.014     2575.070      858.962        1.837        0.247      175.916       24.922        0.020      346.108       24.117      861.842
09/06/2013  20:38:00     -174.255      144.334      -42.162       66.729       76.972       31.460     4452.812     5924.680      989.744        3.217        0.568      226.268       36.477        0.026      346.087       24.080      861.847
09/06/2013  20:39:00     -135.227      121.387      -24.276       57.199       69.783       33.814     3271.735     4869.665     1143.396        2.145        0.464      181.717       26.841        0.022      346.058       24.031      861.862
09/06/2013  20:40:00     -103.223       62.181      -16.966       62.695       62.115       40.798     3930.646     3858.285     1664.507        1.213        0.473      120.504       32.940        0.075      346.025       23.976      861.877
09/06/2013  20:41:00     -122.758       96.061      -16.073       51.917       56.439       37.892     2695.324     3185.392     1435.766        1.593        0.366      155.876       34.292        0.048      345.983       23.903      861.874
09/06/2013  20:42:00     -155.536      166.101      -39.581       50.250       52.189       28.575     2525.043     2723.654      816.535        2.971        0.303      227.554       29.480        0.017      346.002       23.933      861.884
09/06/2013  20:43:00     -129.414      157.996      -18.292       65.860       64.747       47.742     4337.485     4192.149     2279.306        2.642        0.540      204.232       35.143        0.030      345.959       23.861      861.889
09/06/2013  20:44:00     -136.299      112.467      -15.630       65.613       53.444       37.865     4305.111     2856.265     1433.786        2.003        0.430      176.709       38.995        0.049      345.981       23.898      861.902
09/06/2013  20:45:00     -168.487      146.334      -32.776       61.238       82.699       38.578     3750.130     6839.129     1488.239        3.147        0.604      223.163       32.063        0.021      346.029       23.979      861.908
09/06/2013  20:46:00      -87.004      150.198      -20.134       39.532       47.093       28.866     1562.812     2217.792      833.232        1.757        0.231      173.578       22.897        0.017      345.937       23.825      861.925
09/06/2013  20:47:00     -112.447      148.516      -25.774       43.548       72.108       33.818     1896.407     5199.498     1143.663        2.180        0.412      186.283       29.617        0.025      345.939       23.827      861.939
09/06/2013  20:48:00     -135.720      118.536      -41.010       46.967       47.271       29.767     2205.937     2234.520      886.073        1.974        0.266      180.196       27.431        0.023      345.968       23.877      861.944
09/06/2013  20:49:00     -133.501      127.563      -23.895       76.419       60.566       40.965     5839.926     3668.284     1678.131        2.292        0.559      184.648       35.210        0.036      345.956       23.854      861.955
09/06/2013  20:50:00     -114.093      107.558      -20.284       57.351       54.354       28.639     3289.153     2954.389      820.206        1.603        0.353      156.799       25.637        0.027      345.949       23.844      861.968
09/06/2013  20:51:00      -66.277       69.984       -7.483       34.685       28.397       22.914     1203.048      806.391      525.040        0.594        0.127       96.387       16.887        0.031      345.918       23.792      861.994
09/06/2013  20:52:00     -115.938       92.649      -29.589       46.271       44.255       29.079     2141.038     1958.473      845.569        1.392        0.247      148.410       25.127        0.029      345.979       23.895      862.010
09/06/2013  20:53:00      -75.209       64.652       -2.503       46.655       38.515       35.265     2176.690     1483.396     1243.655        0.737        0.245       99.178       27.610        0.078      345.865       23.701      862.034
09/06/2013  20:54:00      -78.865       93.434      -12.342       53.937       58.829       36.823     2909.184     3460.906     1355.946        1.141        0.386      122.268       36.528        0.089      345.857       23.687      862.045
09/06/2013  20:55:00      -60.086       73.468        0.624       32.651       48.469       24.894     1066.089     2349.247      619.727        0.652        0.202       94.910       18.971        0.040      345.806       23.600      862.051
09/06/2013  20:56:00     -103.827       64.483      -18.819       39.805       32.810       20.407     1584.473     1076.482      416.456        0.918        0.154      122.221       14.246        0.014      345.827       23.637      862.063
09/06/2013  20:57:00     -129.249       56.187      -18.044       50.318       46.931       30.608     2531.884     2202.518      936.835        1.293        0.284      140.934       25.009        0.031      345.868       23.706      862.064
09/06/2013  20:58:00     -125.810       84.730      -15.584       66.976       55.173       35.828     4485.735     3044.039     1283.615        1.603        0.441      151.682       19.353        0.016      345.826       23.632      862.073
09/06/2013  20:59:00     -141.201       90.156      -20.511       44.579       40.740       33.556     1987.269     1659.761     1126.019        1.663        0.239      167.529       27.689        0.027      345.889       23.741      862.087
09/06/2013  21:00:00     -112.862      100.264      -25.963       75.692       57.686       34.722     5729.232     3327.721     1205.583        1.686        0.513      150.966       26.597        0.031      345.864       23.699      862.090
09/06/2013  21:01:00      -60.337       38.749        3.309       41.651       56.635       31.279     1734.828     3207.470      978.368        0.554        0.296       71.708       26.380        0.135      345.771       23.541      862.092
09/06/2013  21:02:00      -81.534       46.497      -12.595       42.392       45.103       21.615     1797.075     2034.238      467.228        0.663        0.215       93.861       12.796        0.019      345.806       23.600      862.110
09/06/2013  21:03:00      -56.084       63.809       -4.133       31.206       33.162       19.145      973.809     1099.716      366.523        0.484        0.122       84.953       12.693        0.022      345.759       23.519      862.099
09/06/2013  21:04:00     -143.535       66.582      -29.283       51.016       50.399       23.064     2602.641     2540.022      531.964        1.578        0.284      158.225       20.458        0.017      345.810       23.605      862.086
09/06/2013  21:05:00      -68.936       99.524      -13.546       35.877       53.910       31.079     1287.147     2906.258      965.902        1.000        0.258      121.068       20.958        0.030      345.754       23.511      862.085
09/06/2013  21:06:00     -127.374       75.859       -3.355       69.626       54.742       32.194     4847.728     2996.702     1036.445        1.543        0.444      148.252       20.348        0.019      345.766       23.531      862.085
09/06/2013  21:07:00     -100.772      101.778      -22.948       60.341       52.650       34.035     3641.079     2772.062     1158.361        1.430        0.379      143.226       36.179        0.064      345.700       23.417      862.074
09/06/2013  21:08:00     -154.165      137.090      -36.337       57.338       65.302       44.663     3287.677     4264.383     1994.795        2.671        0.477      206.302       45.921        0.050      345.742       23.488      862.078
09/06/2013  21:09:00     -150.174      135.104      -30.975       51.140       68.569       36.279     2615.262     4701.688     1316.146        2.520        0.432      202.003       31.194        0.024      345.757       23.514      862.073
09/06/2013  21:10:00     -150.244      164.099      -41.315       41.801       86.558       38.867     1747.321     7492.346     1510.636        3.098        0.538      222.490       32.304        0.021      345.799       23.586      862.066
09/06/2013  21:11:00     -142.926      120.238      -27.988       45.547       61.505       33.013     2074.564     3782.841     1089.830        2.131        0.347      186.775       32.802        0.031      345.746       23.493      862.076
09/06/2013  21:12:00     -123.055       33.209       -9.151       25.857       41.258       24.979      668.582     1702.223      623.967        0.966        0.150      127.457       19.406        0.023      345.773       23.542      862.070
09/06/2013  21:13:00      -88.050       -6.979       -7.381       26.153       29.623       15.631      683.995      877.499      244.321        0.483        0.090       88.326        9.128        0.011      345.685       23.390      862.072
09/06/2013  21:14:00      -85.843       -5.906       -1.771       33.274       48.188       17.682     1107.164     2322.096      312.645        0.557        0.187       86.046        4.758        0.003      345.598       23.242      862.079
09/06/2013  21:15:00      -80.637       17.509      -11.200       23.591       25.490       14.813      556.559      649.728      219.415        0.418        0.071       82.516       12.380        0.023      345.548       23.155      862.075
09/06/2013  21:16:00     -112.958      -24.097       -3.504       28.719       38.092       23.806      824.809     1451.037      566.742        0.810        0.142      115.499       14.338        0.015      345.526       23.120      862.057
09/06/2013  21:17:00     -124.176      -38.667       -5.553       46.567       50.246       26.828     2168.448     2524.662      719.765        1.118        0.271      130.057       28.976        0.050      345.383       22.875      862.053
09/06/2013  21:18:00     -138.091       18.588      -18.262       38.682       42.052       25.569     1496.327     1768.386      653.775        1.183        0.196      139.337       16.507        0.014      345.369       22.851      862.042
09/06/2013  21:19:00     -125.504       -9.957      -11.195       59.887       38.003       25.180     3586.506     1444.207      634.035        1.082        0.283      125.898       28.616        0.052      345.284       22.705      862.026
09/06/2013  21:20:00     -114.213        6.187      -14.058       29.440       33.093       21.234      866.688     1095.149      450.902        0.785        0.121      114.381       18.998        0.028      345.300       22.730      862.037
09/06/2013  21:21:00      -94.718       13.305       -4.719       24.954       26.358       17.204      622.717      694.732      295.963        0.539        0.081       95.648       15.358        0.026      345.331       22.786      862.033
09/06/2013  21:22:00      -90.323      -12.674      -16.167       26.954       19.150       15.318      726.507      366.737      234.647        0.495        0.066       91.207        6.509        0.005      345.402       22.906      862.035
09/06/2013  21:23:00      -94.773      -25.660       -5.187       31.161       33.289       19.913      971.022     1108.147      396.514        0.607        0.124       98.185       16.304        0.028      345.294       22.722      862.042
09/06/2013  21:24:00      -87.938        4.936        1.319       37.803       43.697       27.594     1429.043     1909.432      761.403        0.593        0.205       88.077       18.707        0.045      345.355       22.826      862.044
09/06/2013  21:25:00      -65.806       12.733       -4.361       26.123       29.200       15.983      682.394      852.612      255.462        0.315        0.090       67.027       10.075        0.023      345.269       22.679      862.049
09/06/2013  21:26:00      -93.408      -18.200       -4.476       26.619       28.733       16.095      708.559      825.585      259.037        0.543        0.090       95.164       11.995        0.016      345.234       22.619      862.064
09/06/2013  21:27:00      -75.698       23.586      -13.369       26.681       23.590       21.461      711.882      556.492      460.569        0.410        0.086       79.287       14.138        0.032      345.228       22.607      862.073
09/06/2013  21:28:00      -86.211      -17.075      -10.996       25.599       21.905       18.890      655.302      479.837      356.832        0.467        0.075       87.886        5.924        0.005      345.213       22.583      862.076
09/06/2013  21:29:00      -94.958      -39.019       -4.613       24.181       22.732       15.167      584.737      516.752      230.043        0.595        0.067      102.662       14.373        0.020      345.188       22.542      862.094
09/06/2013  21:30:00      -99.165      -21.812      -14.082       23.375       31.190       18.089      546.413      972.843      327.197        0.618        0.092      101.536       14.665        0.021      345.215       22.584      862.113
09/06/2013  21:31:00     -100.777      -38.126       -2.846       35.064       29.563       25.300     1229.483      873.967      640.068        0.718        0.137      107.748       20.250        0.035      345.159       22.491      862.127
09/06/2013  21:32:00     -145.862        0.367      -14.622       30.598       23.695       15.951      936.268      561.434      254.442        1.162        0.088      145.862       10.599        0.005      345.099       22.388      862.137
09/06/2013  21:33:00      -95.017      -34.655       -4.495       34.149       28.345       21.617     1166.179      803.429      467.281        0.634        0.122      101.140       20.473        0.041      345.047       22.298      862.148
09/06/2013  21:34:00      -69.830       -9.603       -0.489       32.613       26.367       17.573     1063.633      695.205      308.798        0.352        0.103       70.487       17.275        0.060      344.984       22.192      862.151
09/06/2013  21:35:00     -145.071      -23.143      -16.330       24.674       26.223       16.739      608.817      687.661      280.182        1.171        0.079      146.905        7.805        0.003      345.030       22.271      862.157
09/06/2013  21:36:00     -105.342       -0.565       -6.948       29.728       36.264       22.023      883.742     1315.100      485.008        0.691        0.134      105.344       20.749        0.039      345.001       22.220      862.152
09/06/2013  21:37:00      -79.571       -0.894       -9.912       20.316       24.502       13.799      412.743      600.334      190.415        0.382        0.060       79.576        9.886        0.015      345.086       22.366      862.170
09/06/2013  21:38:00      -75.815       15.297       -5.085       33.782       32.755       22.055     1141.246     1072.871      486.410        0.435        0.135       77.343       20.997        0.074      345.130       22.441      862.187
09/06/2013  21:39:00     -104.819       51.256      -22.119       23.050       27.706       20.290      531.315      767.640      411.672        0.791        0.086      116.680       10.690        0.008      345.227       22.606      862.185
09/06/2013  21:40:00     -120.237       78.618      -22.304       27.496       47.013       21.696      756.053     2210.201      470.736        1.229        0.172      143.658       18.554        0.017      345.296       22.725      862.187
09/06/2013  21:41:00      -94.131       34.316       -9.353       38.047       47.601       29.242     1447.555     2265.872      855.106        0.735        0.228      100.192       14.118        0.020      345.266       22.674      862.196
09/06/2013  21:42:00      -72.434       33.977       -9.570       29.152       30.577       19.376      849.858      934.972      375.433        0.433        0.108       80.007       16.729        0.044      345.242       22.632      862.204
09/06/2013  21:43:00     -124.084       63.500      -34.377       38.698       34.778       24.181     1497.552     1209.484      584.724        1.195        0.165      139.388       18.610        0.018      345.428       22.950      862.198
09/06/2013  21:44:00      -55.938        4.084       -8.352       29.639       23.858       13.212      878.500      569.206      174.551        0.242        0.081       56.087        8.019        0.020      345.251       22.648      862.190
09/06/2013  21:45:00      -90.962       41.921      -10.962       58.596       35.639       24.903     3433.503     1270.132      620.175        0.774        0.266      100.157       28.723        0.082      345.247       22.640      862.194
09/06/2013  21:46:00      -54.338       50.217       -9.364       23.285       45.876       20.340      542.176     2104.586      413.727        0.431        0.153       73.989       18.944        0.066      345.188       22.540      862.193
09/06/2013  21:47:00      -58.163       45.030       -9.999       29.087       42.923       18.700      846.079     1842.408      349.681        0.427        0.152       73.557        6.508        0.008      345.237       22.623      862.192
09/06/2013  21:48:00      -77.327       -9.488       -7.225       23.641       43.470       20.344      558.905     1889.600      413.898        0.449        0.143       77.907       20.559        0.070      345.191       22.544      862.191
09/06/2013  21:49:00      -90.125       16.746      -16.175       26.649       37.561       16.447      710.148     1410.838      270.508        0.553        0.120       91.668        7.645        0.007      345.264       22.668      862.204
09/06/2013  21:50:00      -78.054      -19.015      -10.960       25.171       29.508       14.627      633.585      870.704      213.936        0.415        0.086       80.337       11.865        0.022      345.105       22.399      862.202
09/06/2013  21:51:00     -106.503       -6.002       -9.701       23.648       28.734       18.273      559.235      825.626      333.919        0.660        0.086      106.672       13.399        0.016      345.043       22.293      862.198
09/06/2013  21:52:00      -59.026      -24.997       -3.868       29.525       21.634       17.691      871.710      468.028      312.988        0.289        0.083       64.101       18.176        0.080      345.042       22.291      862.205
09/06/2013  21:53:00      -72.626       12.372       -7.734       24.074       21.461       16.478      579.565      460.557      271.522        0.340        0.066       73.672       12.324        0.028      345.024       22.260      862.205
09/06/2013  21:54:00     -105.415      -26.855       -9.549       32.206       26.066       17.262     1037.248      679.412      297.960        0.697        0.101      108.782       16.180        0.022      345.095       22.380      862.195
09/06/2013  21:55:00      -41.384      -11.413       -0.128       57.190       32.083       16.594     3270.706     1029.332      275.376        0.321        0.229       42.929       25.971        0.366      344.920       22.082      862.192
09/06/2013  21:56:00      -51.579       -5.873        2.021       38.637       36.814       22.604     1492.788     1355.258      510.954        0.303        0.168       51.913       21.461        0.171      344.699       21.702      862.197
09/06/2013  21:57:00      -37.520      -10.848        4.671       32.455       22.783       17.080     1053.305      519.050      291.737        0.171        0.093       39.057       17.210        0.194      344.723       21.744      862.196
09/06/2013  21:58:00      -62.741       -8.879        4.052       19.435       32.407       12.631      377.713     1050.230      159.534        0.281        0.079       63.366       10.048        0.025      344.947       22.127      862.193
09/06/2013  21:59:00      -92.851      -24.118       -7.188       13.739       23.223       11.268      188.769      539.305      126.963        0.505        0.043       95.933        9.221        0.009      345.015       22.245      862.198
09/06/2013  22:00:00      -77.320       -5.351       -5.917       15.329       24.312       13.215      234.980      591.081      174.626        0.352        0.050       77.505        7.414        0.009      344.966       22.159      862.215
09/06/2013  22:01:00      -38.358      -15.089        4.970       25.933       20.841       16.065      672.535      434.336      258.072        0.154        0.068       41.220       10.155        0.061      344.855       21.971      862.222
09/06/2013  22:02:00      -66.859      -21.386        5.655       37.622       52.639       17.650     1415.384     2770.854      311.538        0.473        0.225       70.196       20.414        0.085      344.781       21.844      862.231
09/06/2013  22:03:00      -99.493      -28.790       -4.806       28.785       27.498       16.756      828.561      756.123      280.771        0.631        0.093      103.575       12.952        0.016      344.910       22.064      862.243
09/06/2013  22:04:00      -73.057      -34.968       -8.049       32.078       23.135       16.667     1028.974      535.227      277.774        0.423        0.092       80.994        8.480        0.011      344.924       22.088      862.249
09/06/2013  22:05:00      -72.887      -32.825       -3.847       44.034       28.909       21.579     1938.992      835.705      465.665        0.482        0.162       79.938       24.700        0.095      344.837       21.940      862.245
09/06/2013  22:06:00      -68.181      -46.493       -2.857       42.441       28.873       21.040     1801.273      833.632      442.665        0.495        0.154       82.524       19.916        0.058      344.885       22.022      862.244
09/06/2013  22:07:00      -65.707      -55.043       -0.831       47.304       40.778       25.378     2237.622     1662.839      644.036        0.595        0.227       85.716       26.147        0.093      344.823       21.915      862.256
09/06/2013  22:08:00      -62.533      -49.996       14.884       57.765       51.660       32.330     3336.750     2668.739     1045.219        0.684        0.353       80.062       35.708        0.199      344.735       21.764      862.253
09/06/2013  22:09:00      -80.557      -64.821        3.486       50.584       47.352       31.108     2558.723     2242.189      967.689        0.823        0.288      103.398       26.011        0.063      344.765       21.816      862.251
09/06/2013  22:10:00      -96.418      -81.982       -2.077       60.619       45.475       31.992     3674.644     2067.934     1023.463        1.139        0.338      126.560       30.164        0.057      344.763       21.813      862.264
09/06/2013  22:11:00     -108.840      -92.773       -3.634       36.640       36.895       26.411     1342.484     1361.242      697.556        1.193        0.170      143.014       12.644        0.008      344.714       21.728      862.271
09/06/2013  22:12:00     -125.255      -87.040       -5.026       35.084       33.266       26.946     1230.857     1106.600      726.092        1.318        0.153      152.528       15.714        0.011      344.739       21.771      862.278
09/06/2013  22:13:00     -102.426      -64.399       -5.414       43.919       44.051       24.793     1928.865     1940.454      614.707        0.957        0.224      120.989       19.992        0.027      344.758       21.803      862.292
09/06/2013  22:14:00     -100.325      -61.327       -4.015       56.301       35.310       27.826     3169.843     1246.799      774.262        0.952        0.260      117.584       28.266        0.058      344.706       21.715      862.289
09/06/2013  22:15:00     -117.969      -64.644        4.408       54.270       38.401       23.636     2945.183     1474.652      558.674        1.155        0.249      134.520       26.358        0.038      344.675       21.661      862.289
09/06/2013  22:16:00      -95.645      -73.159       -1.985       66.290       52.994       28.380     4394.306     2808.400      805.406        1.125        0.400      120.417       27.526        0.052      344.772       21.830      862.292
09/06/2013  22:17:00      -98.795      -53.337       -3.066       53.568       34.945       24.088     2869.580     1221.157      580.247        0.864        0.234      112.273       22.517        0.040      344.819       21.908      862.288
09/06/2013  22:18:00      -70.084      -56.215        4.977       66.338       43.902       26.994     4400.681     1927.372      728.652        0.758        0.353       89.844       27.744        0.095      344.787       21.853      862.285
09/06/2013  22:19:00     -118.787      -74.700       -2.630       48.328       37.756       29.441     2335.640     1425.504      866.767        1.216        0.231      140.322       26.628        0.036      344.888       22.028      862.289
09/06/2013  22:20:00     -127.119      -29.368       -1.421       44.512       36.532       27.780     1981.343     1334.586      771.713        1.055        0.204      130.467       27.056        0.043      344.967       22.161      862.282
09/06/2013  22:21:00      -78.854      -17.351        1.785       45.245       49.058       23.836     2047.121     2406.734      568.151        0.577        0.251       80.741       19.557        0.059      344.848       21.959      862.282
09/06/2013  22:22:00     -142.794      -60.977       -6.837       27.679       30.225       22.110      766.135      913.532      488.860        1.316        0.108      155.268       15.869        0.010      344.859       21.979      862.290
09/06/2013  22:23:00     -110.038      -49.203        0.371       32.976       28.639       20.844     1087.432      820.200      434.464        0.844        0.117      120.537       20.588        0.029      344.835       21.937      862.279
09/06/2013  22:24:00     -135.336      -32.121       -5.044       41.923       42.318       22.995     1757.516     1790.827      528.751        1.172        0.204      139.096       22.728        0.027      344.952       22.136      862.285
09/06/2013  22:25:00     -113.682      -56.485        2.536       48.547       32.028       18.384     2356.785     1025.770      337.955        0.992        0.186      126.942       20.736        0.027      344.795       21.868      862.285
09/06/2013  22:26:00     -175.580      -51.509       -5.365       30.087       27.893       18.663      905.208      778.010      348.323        1.777        0.102      182.980        9.404        0.003      344.958       22.147      862.281
09/06/2013  22:27:00     -110.245      -46.453        5.040       43.960       34.177       20.306     1932.450     1168.036      412.343        0.892        0.176      119.632       13.206        0.012      344.821       21.912      862.272
09/06/2013  22:28:00      -97.209      -31.234        5.122       38.988       33.612       20.336     1520.078     1129.742      413.538        0.676        0.153      102.104       19.804        0.038      344.825       21.918      862.280
09/06/2013  22:29:00     -116.159      -38.356        2.469       41.564       31.635       17.600     1727.586     1000.750      309.743        0.900        0.152      122.328       18.857        0.024      344.823       21.915      862.280
09/06/2013  22:30:00      -49.809      -11.458        4.505       37.415       32.595       21.104     1399.884     1062.450      445.383        0.277        0.145       51.110       21.651        0.179      344.653       21.624      862.284
09/06/2013  22:31:00      -70.574      -14.977        3.024       29.505       24.632       12.759      870.534      606.754      162.780        0.343        0.082       72.145        9.800        0.018      344.639       21.600      862.293
09/06/2013  22:32:00      -12.286       -3.230       16.499       37.476       26.260       20.225     1404.487      689.605      409.057        0.147        0.125       12.704       19.437        2.341      344.209       20.866      862.296
09/06/2013  22:33:00      -31.755        2.318        6.012       33.547       19.906       12.452     1125.374      396.256      155.054        0.136        0.084       31.839       11.820        0.138      344.292       21.008      862.304
09/06/2013  22:34:00      -41.509        7.174       11.115       20.161       16.709       12.118      406.453      279.181      146.840        0.137        0.042       42.124        9.736        0.053      344.448       21.273      862.317
09/06/2013  22:35:00      -40.394        1.672       10.133       25.565       14.194       11.876      653.570      201.465      141.039        0.137        0.050       40.428       11.815        0.085      344.503       21.367      862.318
09/06/2013  22:36:00      -13.633       10.310        8.910       19.912       16.913       12.148      396.499      286.056      147.580        0.060        0.042       17.093        9.552        0.312      343.841       20.237      862.325
09/06/2013  22:37:00        5.672       19.428        0.334       21.467       13.483        8.230      460.846      181.789       67.727        0.056        0.036       20.239        5.844        0.083      344.022       20.547      862.343
09/06/2013  22:38:00       26.016        1.718       15.176       32.106       26.445       28.240     1030.807      699.328      797.517        0.172        0.126       26.073       22.676        0.756      343.730       20.049      862.345
09/06/2013  22:39:00       26.993       19.675       20.345       31.950       18.270       26.991     1020.831      333.794      728.496        0.181        0.104       33.402        8.185        0.060      343.804       20.174      862.345
09/06/2013  22:40:00       38.262       15.615        4.437       22.602       24.601       16.985      510.863      605.220      288.483        0.157        0.070       41.326       14.736        0.127      343.839       20.234      862.345
09/06/2013  22:41:00       58.092       22.309       10.116       38.071       32.699       27.813     1449.406     1069.252      773.569        0.363        0.165       62.228       18.753        0.091      343.610       19.844      862.349
09/06/2013  22:42:00       28.438       -2.534       18.616       23.771       18.142       17.172      565.068      329.125      294.884        0.118        0.059       28.550       10.191        0.127      343.797       20.163      862.338
09/06/2013  22:43:00       39.469       -3.405       11.819       28.175       20.942       18.585      793.857      438.561      345.404        0.164        0.079       39.616       14.104        0.127      343.848       20.249      862.348
09/06/2013  22:44:00       46.336      -22.125       12.827       33.214       26.720       29.516     1103.137      713.967      871.190        0.274        0.134       51.347       23.317        0.206      344.039       20.575      862.350
09/06/2013  22:45:00       33.622      -28.765      -10.959       28.845       27.962       22.086      832.019      781.898      487.791        0.209        0.105       44.248       17.637        0.159      343.842       20.238      862.346
09/06/2013  22:46:00       63.949      -28.832        9.478       31.770       26.625       29.592     1009.311      708.911      875.687        0.380        0.130       70.148       14.372        0.042      343.835       20.226      862.348
09/06/2013  22:47:00       80.135      -33.885        1.511       19.588       20.217       25.332      383.678      408.744      641.710        0.450        0.072       87.005       10.074        0.013      343.907       20.350      862.339
09/06/2013  22:48:00       32.597      -40.911       -2.445       31.941       21.403       22.803     1020.200      458.067      519.985        0.237        0.100       52.309       18.585        0.126      343.441       19.555      862.333
09/06/2013  22:49:00       48.062      -48.032      -11.292       32.433       38.431       29.317     1051.896     1476.904      859.511        0.407        0.169       67.949       22.531        0.110      343.512       19.674      862.328
09/06/2013  22:50:00       63.019      -26.337        5.565       36.836       38.189       31.998     1356.876     1458.404     1023.863        0.427        0.192       68.301       29.727        0.189      343.520       19.689      862.325
09/06/2013  22:51:00       57.172       -5.767        8.200       30.804       27.241       27.022      948.865      742.056      730.199        0.289        0.121       57.462       17.885        0.097      343.524       19.697      862.317
09/06/2013  22:52:00       64.098       -7.283        3.259       20.443       21.569       21.966      417.930      465.216      482.505        0.277        0.068       64.510       10.739        0.028      344.053       20.600      862.303
09/06/2013  22:53:00        7.652        8.351       17.020       27.531       29.814       23.055      757.980      888.893      531.547        0.130        0.109       11.327       22.227        3.851      343.843       20.240      862.305
09/06/2013  22:54:00       -5.507       21.473       28.367       15.899       19.419       18.035      252.787      377.081      325.270        0.113        0.048       22.168       12.043        0.295      343.650       19.909      862.301
09/06/2013  22:55:00      -13.559       -3.369        8.689       11.950       19.957       16.193      142.799      398.272      262.225        0.054        0.040       13.971       15.759        1.272      343.921       20.373      862.309
09/06/2013  22:56:00      -12.638       10.708        7.428        9.877       15.980       13.486       97.553      255.371      181.877        0.043        0.027       16.564        9.426        0.324      343.860       20.269      862.314
09/06/2013  22:57:00       12.564       -4.388       12.621       17.458       21.079       13.332      304.773      444.319      177.755        0.063        0.046       13.309        7.360        0.306      343.757       20.093      862.318
09/06/2013  22:58:00       26.595        0.644       24.766       31.765       21.692       20.962     1009.026      470.562      439.395        0.162        0.096       26.603       13.450        0.256      343.505       19.664      862.329
09/06/2013  22:59:00        7.405        9.619       20.120       22.234       17.174       12.671      494.347      294.953      160.556        0.075        0.047       12.139        7.450        0.377      343.452       19.572      862.330
09/06/2013  23:00:00       -3.696        5.522       10.126       13.655       18.118       20.000      186.449      328.269      399.987        0.053        0.046        6.644       14.873        5.010      343.700       19.997      862.342
09/06/2013  23:01:00       -3.124       11.321       10.227       11.614       12.359       11.820      134.885      152.748      139.701        0.033        0.021       11.744        6.901        0.345      343.529       19.705      862.333
09/06/2013  23:02:00        0.276        8.054       13.152       20.149       20.069       21.497      405.992      402.782      462.128        0.075        0.064        8.059       16.881        4.388      343.549       19.739      862.329
09/06/2013  23:03:00       -6.882       -7.591       -3.927        6.133        6.566        7.014       37.611       43.119       49.199        0.013        0.006       10.246        4.320        0.178      344.287       20.999      862.328
09/06/2013  23:04:00      -15.788      -20.778        1.096       10.455        5.546        6.129      109.306       30.760       37.563        0.043        0.009       26.096        5.540        0.045      344.409       21.208      862.318
09/06/2013  23:05:00      -11.608      -13.782       -0.738        7.087       13.040        6.333       50.222      170.053       40.111        0.029        0.013       18.019        5.218        0.084      344.321       21.055      862.301
09/06/2013  23:06:00      -11.961      -19.406       -9.100        9.694        8.514        7.284       93.971       72.489       53.052        0.041        0.011       22.796        4.626        0.041      344.507       21.375      862.292
09/06/2013  23:07:00      -43.991      -13.806      -11.555        7.741        6.273        6.370       59.921       39.353       40.576        0.120        0.007       46.107        3.888        0.007      344.266       20.964      862.287
09/06/2013  23:08:00      -52.076       -1.775       -3.060       10.221       11.032        8.343      104.475      121.698       69.599        0.151        0.015       52.106        5.287        0.010      344.087       20.657      862.292
09/06/2013  23:09:00      -51.845        3.124       -4.583       25.635       13.836       13.640      657.155      191.447      186.061        0.188        0.052       51.939       13.125        0.064      344.011       20.527      862.291
09/06/2013  23:10:00      -57.835      -10.393       -3.246       14.094       13.657        7.611      198.649      186.526       57.934        0.195        0.022       58.761        6.295        0.011      344.143       20.752      862.289
09/06/2013  23:11:00      -34.941      -28.032        1.475       29.267       11.564       10.701      856.560      133.718      114.521        0.156        0.055       44.796        7.483        0.028      344.052       20.599      862.290
09/06/2013  23:12:00       -7.326       -5.311        3.765       25.429       14.184       11.297      646.622      201.179      127.617        0.054        0.049        9.049        9.398        1.079      343.783       20.140      862.290
09/06/2013  23:13:00      -70.816       -6.156       -4.785       19.255       20.355        8.075      370.763      414.345       65.209        0.296        0.043       71.083        4.790        0.005      344.042       20.580      862.287
09/06/2013  23:14:00      -93.147        5.439       -9.247       23.181       15.650       11.827      537.348      244.915      139.878        0.486        0.046       93.305        8.964        0.009      343.947       20.418      862.284
09/06/2013  23:15:00      -77.538      -33.157       -0.508       19.806       18.225       13.444      392.263      332.141      180.742        0.401        0.045       84.330       12.178        0.021      343.924       20.378      862.292
09/06/2013  23:16:00      -65.123      -40.309       -3.258       17.175       14.815       12.380      294.970      219.496      153.262        0.327        0.033       76.589        8.051        0.011      343.924       20.379      862.300
09/06/2013  23:17:00      -66.043      -38.478       -3.953       16.007       15.569       13.025      256.216      242.403      169.646        0.326        0.033       76.435        8.930        0.014      343.900       20.339      862.301
09/06/2013  23:18:00      -75.662       -9.884       -2.311       30.245       18.905       11.337      914.752      357.395      128.526        0.361        0.070       76.304        8.863        0.013      343.791       20.152      862.299
09/06/2013  23:19:00      -71.042      -10.531       -4.300       22.265       14.084       11.005      495.711      198.373      121.113        0.300        0.041       71.818        8.061        0.013      343.714       20.021      862.306
09/06/2013  23:20:00      -59.654      -10.924        0.591       29.781       17.982       10.992      886.898      323.364      120.818        0.250        0.067       60.646       13.007        0.046      343.740       20.065      862.318
09/06/2013  23:21:00      -64.298      -22.104        4.673       27.344       16.631       12.056      747.717      276.607      145.357        0.291        0.058       67.992       11.142        0.027      343.777       20.127      862.330
09/06/2013  23:22:00      -64.245      -16.558        0.882       35.786       11.104        7.846     1280.635      123.289       61.564        0.293        0.073       66.344       14.653        0.049      343.733       20.051      862.328
09/06/2013  23:23:00      -84.231      -15.353       -9.862       20.298       13.784       11.405      411.994      189.996      130.085        0.408        0.037       85.619       11.665        0.019      343.633       19.881      862.330
09/06/2013  23:24:00      -46.471       -8.574       -1.658       25.156       17.947        9.108      632.829      322.093       82.947        0.164        0.052       47.255        5.585        0.014      343.505       19.663      862.336
09/06/2013  23:25:00        6.354       31.766       -1.511       21.179       14.851       13.973      448.542      220.561      195.234        0.096        0.043       32.395        7.953        0.060      343.455       19.578      862.329
09/06/2013  23:26:00       52.365       21.862        3.074       18.669       16.251       11.951      348.533      264.105      142.829        0.199        0.038       56.746        8.619        0.023      343.348       19.397      862.317
09/06/2013  23:27:00       40.783        4.764       -0.675       22.536       18.106       15.654      507.880      327.827      245.039        0.138        0.054       41.061       10.105        0.061      343.461       19.588      862.316
09/06/2013  23:28:00       27.127       -4.287        6.144       17.270       17.488       16.528      298.248      305.842      273.178        0.083        0.044       27.463       12.607        0.211      343.223       19.183      862.305
09/06/2013  23:29:00       14.635        0.763        6.135       29.029       24.965       23.263      842.687      623.229      541.149        0.113        0.100       14.655       17.623        1.446      343.038       18.867      862.297
09/06/2013  23:30:00       -9.239       -5.378       -0.297       36.887       14.735       16.023     1360.677      217.107      256.722        0.097        0.092       10.690       21.760        4.143      343.420       19.519      862.293
09/06/2013  23:31:00      -36.601      -15.708      -10.155        7.024        7.731        6.492       49.342       59.766       42.144        0.092        0.008       39.830        5.180        0.017      343.617       19.855      862.282
09/06/2013  23:32:00      -45.861       -4.872       -4.582       11.217        7.314        4.663      125.821       53.493       21.740        0.117        0.010       46.120        4.021        0.008      343.588       19.803      862.268
09/06/2013  23:33:00      -49.806      -15.118       -5.772       10.237        8.134        6.020      104.798       66.162       36.241        0.147        0.010       52.050        3.872        0.006      343.522       19.691      862.253
09/06/2013  23:34:00      -37.785      -13.921       -1.562       16.033       11.553        7.036      257.045      133.474       49.503        0.103        0.022       40.267        7.794        0.037      343.638       19.891      862.247
09/06/2013  23:35:00      -59.519      -13.677       -5.737       16.972       10.016        6.646      288.060      100.315       44.169        0.210        0.022       61.070        5.953        0.010      343.446       19.563      862.250
09/06/2013  23:36:00      -52.072       -4.868       -1.599       10.699       13.385        7.551      114.465      179.170       57.018        0.154        0.018       52.299        7.556        0.021      343.362       19.418      862.255
09/06/2013  23:37:00      -24.725        6.570       -2.529        9.446        6.298        7.358       89.221       39.666       54.135        0.042        0.009       25.583        4.514        0.031      343.369       19.433      862.257
09/06/2013  23:38:00       18.818        3.556        7.870       19.733       16.051       16.871      389.401      257.626      284.617        0.068        0.047       19.151        6.437        0.113      343.232       19.199      862.255
09/06/2013  23:39:00        9.921        6.273       18.244       23.538       12.088       14.297      554.049      146.112      204.401        0.069        0.045       11.738        5.148        0.192      342.851       18.549      862.267
09/06/2013  23:40:00      -10.353        3.046       10.480        9.483       15.902       12.823       89.921      252.875      164.441        0.037        0.025       10.792       12.732        1.392      343.156       19.069      862.261
09/06/2013  23:41:00      -70.308      -20.421       -8.607       10.092       12.239        8.783      101.842      149.802       77.138        0.288        0.016       73.213        3.509        0.002      343.354       19.405      862.256
09/06/2013  23:42:00      -87.816      -18.189      -12.439       14.602       12.947        8.673      213.224      167.633       75.228        0.433        0.023       89.680        8.309        0.009      343.272       19.268      862.271
09/06/2013  23:43:00      -87.727      -10.904      -18.397       15.305       11.505        8.962      234.249      132.358       80.320        0.430        0.022       88.402        7.183        0.007      343.214       19.169      862.274
09/06/2013  23:44:00      -65.105      -14.835       -9.610       11.186       14.495        8.059      125.127      210.116       64.943        0.248        0.020       66.774        7.886        0.014      343.236       19.206      862.278
09/06/2013  23:45:00      -56.405      -16.005       -8.335       11.494       10.054        7.119      132.111      101.081       50.677        0.190        0.014       58.632        5.610        0.009      343.301       19.314      862.290
09/06/2013  23:46:00      -29.730      -14.198       -3.404        8.179        4.880        3.887       66.895       23.811       15.108        0.060        0.005       32.946        2.918        0.008      343.407       19.497      862.302
09/06/2013  23:47:00        2.203        3.867       16.656       13.195       18.339       10.548      174.117      336.325      111.268        0.046        0.031        4.450       11.526        6.708      342.955       18.726      862.309
09/06/2013  23:48:00       13.355      -19.119       -6.411       34.336       26.380       14.632     1178.982      695.906      214.107        0.134        0.104       23.321        6.167        0.070      343.036       18.866      862.325
09/06/2013  23:49:00      -35.609        1.534       -4.878       24.204        9.921        9.604      585.853       98.431       92.242        0.104        0.039       35.642       11.190        0.099      343.199       19.143      862.348
09/06/2013  23:50:00      -95.689      -34.297      -13.236       27.684       21.114       12.088      766.383      445.801      146.126        0.593        0.068      101.649       12.621        0.015      343.204       19.151      862.366
09/06/2013  23:51:00      -90.978      -57.114       -7.017       33.312       24.400       17.180     1109.696      595.348      295.161        0.679        0.100      107.420       14.296        0.018      343.080       18.940      862.386
09/06/2013  23:52:00     -108.630      -48.824       -1.113       22.179       23.968       15.277      491.927      574.468      233.391        0.774        0.065      119.097       13.341        0.013      343.035       18.864      862.397
09/06/2013  23:53:00      -94.829      -24.610       -1.321       32.816       17.319       15.348     1076.890      299.934      235.555        0.561        0.081       97.970       18.552        0.036      343.005       18.813      862.402
09/06/2013  23:54:00      -52.328      -36.935        4.933       33.419       27.191       17.108     1116.825      739.343      292.667        0.314        0.107       64.051       16.996        0.070      343.027       18.851      862.395
09/06/2013  23:55:00      -75.781      -64.337        9.197       46.431       39.167       21.141     2155.826     1534.053      446.948        0.705        0.207       99.409       19.915        0.040      343.078       18.936      862.383
09/06/2013  23:56:00      -88.091      -81.911       -2.166       43.715       40.751       26.503     1910.986     1660.604      702.429        0.937        0.214      120.290       24.240        0.041      343.130       19.026      862.389
09/06/2013  23:57:00     -102.366      -89.488       -2.616       35.688       23.419       18.056     1273.610      548.446      326.026        1.032        0.107      135.966       16.662        0.015      343.151       19.062      862.395
09/06/2013  23:58:00      -56.322      -44.040        5.150       40.056       30.615       22.220     1604.491      937.271      493.745        0.409        0.152       71.496       22.480        0.099      343.069       18.921      862.399
09/06/2013  23:59:00      -98.294      -58.896      -12.875       20.628       27.847       14.107      425.502      775.441      199.003        0.735        0.070      114.588        7.398        0.004      343.061       18.908      862.416
